[[{"header":{"parameterUnit":"m.s-1","parameterCategory":1,"la1":31.0,"la2":29.5877,"lo1":-88.7671,"lo2":-86.6584,"dy":0.0162,"dx":0.0185,"nx":115,"ny":88,"refTime":"2023-09-09T18:00:00:Z","depth":0,"parameterNumber":2,"parameterNumberName":"U-component_of_WINDS"},"data":[0.0,0.0,0.0,0.0,0.0,0.0,0.0,0.0,0.0,0.0,0.0,0.0,0.0,0.0,0.0,0.0,0.0,0.0,0.0,0.0,0.0,0.0,0.0,0.0,0.0,0.0,0.0,0.0,0.0,0.0,0.0,0.0,0.0,0.0,0.0,0.0,0.0,0.0,0.0,0.0,0.0,0.0,0.0,0.0,0.0,0.0,0.0,0.0,0.0,0.0,0.0,0.0,0.0,0.0,0.0,0.0,0.0,0.0,0.0,0.0,0.0,0.0,0.0,0.0,0.0,0.0,0.0,0.0,0.0,0.0,0.0,0.0,0.0,0.0,0.0,0.0,0.0,0.0,0.0,0.0,0.0,0.0,0.0,0.0,0.0,0.0,0.0,0.0,0.0,0.0,0.0,0.0,0.0,0.0,0.0,0.0,0.0,0.0,0.0,0.0,0.0,0.0,0.0,0.0,0.0,0.0,0.0,0.0,0.0,0.0,0.0,0.0,0.0,0.0,0.0,0.0,0.0,0.0,0.0,0.0,0.0,0.0,0.0,0.0,0.0,0.0,0.0,0.0,0.0,0.0,0.0,0.0,0.0,0.0,0.0,0.0,0.0,0.0,0.0,0.0,0.0,0.0,0.0,0.0,0.0,0.0,0.0,0.0,0.0,0.0,0.0,0.0,0.0,0.0,0.0,0.0,0.0,0.0,0.0,0.0,0.0,0.0,0.0,0.0,0.0,0.0,0.0,0.0,0.0,0.0,0.0,0.0,0.0,0.0,0.0,0.0,0.0,0.0,0.0,0.0,0.0,0.0,0.0,0.0,0.0,0.0,0.0,0.0,0.0,0.0,0.0,0.0,0.0,0.0,0.0,0.0,0.0,0.0,0.0,0.0,0.0,0.0,0.0,0.0,0.0,0.0,0.0,0.0,0.0,0.0,0.0,0.0,0.0,0.0,0.0,0.0,0.0,0.0,0.0,0.0,0.0,0.0,0.0,0.0,0.0,0.0,0.0,0.0,0.0,0.0,0.0,0.0,0.0,0.0,0.0,0.0,0.0,0.0,0.0,0.0,0.0,0.0,0.0,0.0,0.0,0.0,0.0,0.0,0.0,0.0,0.0,0.0,0.0,0.0,0.0,0.0,0.0,0.0,0.0,0.0,0.0,0.0,0.0,0.0,0.0,0.0,0.0,0.0,0.0,0.0,0.0,0.0,0.0,0.0,0.0,0.0,0.0,0.0,0.0,0.0,0.0,0.0,0.0,0.0,0.0,0.0,0.0,0.0,0.0,0.0,0.0,0.0,0.0,0.0,0.0,0.0,0.0,0.0,0.0,0.0,0.0,0.0,0.0,0.0,0.0,0.0,0.0,0.0,0.0,0.0,0.0,0.0,0.0,0.0,0.0,0.0,0.0,0.0,0.0,0.0,0.0,0.0,0.0,0.0,0.0,0.0,0.0,0.0,0.0,0.0,0.0,0.0,0.0,0.0,0.0,0.0,0.0,0.0,0.0,0.0,0.0,0.0,0.0,0.0,0.0,0.0,0.0,0.0,0.0,0.0,0.0,0.0,0.0,0.0,0.0,0.0,0.0,0.0,0.0,0.0,0.0,0.0,0.0,0.0,0.0,0.0,0.0,0.0,0.0,0.0,0.0,0.0,0.0,0.0,0.0,0.0,0.0,0.0,0.0,0.0,0.0,0.0,0.0,0.0,0.0,0.0,0.0,0.0,0.0,0.0,0.0,0.0,0.0,0.0,0.0,0.0,0.0,0.0,0.0,0.0,0.0,0.0,0.0,0.0,0.0,0.0,0.0,0.0,0.0,0.0,0.0,0.0,0.0,0.0,0.0,0.0,0.0,0.0,0.0,0.0,0.0,0.0,0.0,0.0,0.0,0.0,0.0,0.0,0.0,0.0,0.0,0.0,0.0,0.0,0.0,0.0,0.0,0.0,0.0,0.0,0.0,0.0,0.0,0.0,0.0,0.0,0.0,0.0,0.0,0.0,0.0,0.0,0.0,0.0,0.0,0.0,0.0,0.0,0.0,0.0,0.0,0.0,0.0,0.0,0.0,0.0,0.0,0.0,0.0,0.0,0.0,0.0,0.0,0.0,0.0,0.0,0.0,0.0,0.0,0.0,0.0,0.0,0.0,0.0,0.0,0.0,0.0,0.0,0.0,0.0,0.0,0.0,0.0,0.0,0.0,0.0,0.0,0.0,0.0,0.0,0.0,0.0,0.0,0.0,0.0,0.0,0.0,0.0,0.0,0.0,0.0,0.0,0.0,0.0,0.0,0.0,0.0,0.0,0.0,0.0,0.0,0.0,0.0,0.0,0.0,0.0,0.0,0.0,0.0,0.0,0.0,0.0,0.0,0.0,0.0,0.0,0.0,0.0,0.0,0.0,0.0,0.0,0.0,0.0,0.0,0.0,0.0,0.0,0.0,0.0,0.0,0.0,0.0,0.0,0.0,0.0,0.0,0.0,0.0,0.0,0.0,0.0,0.0,0.0,0.0,0.0,0.0,0.0,0.0,0.0,0.0,0.0,0.0,0.0,0.0,0.0,0.0,0.0,0.0,0.0,0.0,0.0,0.0,0.0,0.0,0.0,0.0,0.0,0.0,0.0,0.0,0.0,0.0,0.0,0.0,0.0,0.0,0.0,0.0,0.0,0.0,0.0,0.0,0.0,0.0,0.0,0.0,0.0,0.0,0.0,0.0,0.0,0.0,0.0,0.0,0.0,0.0,0.0,0.0,0.0,0.0,0.0,0.0,0.0,0.0,0.0,0.0,0.0,0.0,0.0,0.0,0.0,0.0,0.0,0.0,0.0,0.0,0.0,0.0,0.0,0.0,0.0,0.0,0.0,0.0,0.0,0.0,0.0,0.0,0.0,0.0,0.0,0.0,0.0,0.0,0.0,0.0,0.0,0.0,0.0,0.0,0.0,0.0,0.0,0.0,0.0,0.0,0.0,0.0,0.0,0.0,0.0,0.0,0.0,0.0,0.0,0.0,0.0,0.0,0.0,0.0,0.0,0.0,0.0,0.0,0.0,0.0,0.0,0.0,0.0,0.0,0.0,0.0,0.0,0.0,0.0,0.0,0.0,0.0,0.0,0.0,0.0,0.0,0.0,0.0,0.0,0.0,0.0,0.0,0.0,0.0,0.0,0.0,0.0,0.0,0.0,0.0,0.0,0.0,0.0,0.0,0.0,0.0,0.0,0.0,0.0,0.0,0.0,0.0,0.0,0.0,0.0,0.0,0.0,0.0,0.0,0.0,0.0,0.0,0.0,0.0,0.0,0.0,0.0,0.0,0.0,0.0,0.0,0.0,0.0,0.0,0.0,0.0,0.0,0.0,0.0,0.0,0.0,0.0,0.0,0.0,0.0,0.0,0.0,0.0,0.0,0.0,0.0,0.0,0.0,0.0,0.0,0.0,0.0,0.0,0.0,0.0,0.0,0.0,0.0,0.0,0.0,0.0,0.0,0.0,0.0,0.0,0.0,0.0,0.0,0.0,0.0,0.0,0.0,0.0,0.0,0.0,0.0,0.0,0.0,0.0,0.0,0.0,0.0,0.0,0.0,0.0,0.0,0.0,0.0,0.0,0.0,0.0,0.0,0.0,0.0,0.0,0.0,0.0,0.0,0.0,0.0,0.0,0.0,0.0,0.0,0.0,0.0,0.0,0.0,0.0,0.0,0.0,0.0,0.0,0.0,0.0,0.0,0.0,0.0,0.0,0.0,0.0,0.0,0.0,0.0,0.0,0.0,0.0,0.0,0.0,0.0,0.0,0.0,0.0,0.0,0.0,0.0,0.0,0.0,0.0,0.0,0.0,0.0,0.0,0.0,0.0,0.0,0.0,0.0,0.0,0.0,0.0,0.0,0.0,0.0,0.0,0.0,0.0,0.0,0.0,0.0,0.0,0.0,0.0,0.0,0.0,0.0,0.0,0.0,0.0,0.0,0.0,0.0,0.0,0.0,0.0,0.0,0.0,0.0,0.0,0.0,0.0,0.0,0.0,0.0,0.0,0.0,0.0,0.0,0.0,0.0,0.0,0.0,0.0,0.0,0.0,0.0,0.0,0.0,0.0,0.0,0.0,0.0,0.0,0.0,0.0,0.0,0.0,0.0,0.0,0.0,0.0,0.0,0.0,0.0,0.0,0.0,0.0,0.0,0.0,0.0,0.0,0.0,0.0,0.0,0.0,0.0,0.0,0.0,0.0,0.0,0.0,0.0,0.0,0.0,0.0,0.0,0.0,0.0,0.0,0.0,0.0,0.0,0.0,0.0,0.931,0.0,0.0,0.0,0.0,0.0,0.0,0.0,0.0,0.0,0.0,0.0,0.0,0.0,0.0,0.0,0.0,0.0,0.0,0.0,0.0,0.0,0.0,0.0,0.0,0.0,0.0,0.0,0.0,0.0,0.0,0.0,0.0,0.0,0.0,0.0,0.0,0.0,0.0,0.0,0.0,0.0,0.0,0.0,0.0,0.0,0.0,0.0,0.0,0.0,0.0,0.0,0.0,0.0,0.0,0.0,0.0,0.0,0.0,0.0,0.0,0.0,0.0,0.0,0.0,0.0,0.0,0.0,0.0,0.0,0.0,0.0,0.0,0.0,0.0,0.0,0.0,0.0,0.0,0.0,0.0,0.0,0.0,0.0,0.0,0.0,0.0,0.0,0.0,0.0,0.0,0.0,0.0,0.0,0.0,0.0,0.0,0.0,0.0,0.0,0.0,0.0,0.0,0.0,0.0,0.0,0.0,0.0,0.0,0.0,0.0,0.7184,0.792,0.8239,0.873,0.9468,0.0,0.0,0.0,0.0,0.0,0.0,0.0,0.0,0.0,0.0,0.0,0.0,0.0,0.0,0.0,0.0,0.0,0.0,0.0,0.0,0.0,0.0,0.0,0.0,0.0,0.0,0.0,0.0,0.0,0.0,0.0,0.0,0.0,0.0,0.0,0.0,0.0,0.0,0.0,0.0,0.0,0.0,0.0,0.0,0.0,0.0,0.0,0.0,0.0,0.0,0.0,0.0,0.0,0.0,0.0,0.0,0.0,0.0,0.0,0.0,0.0,0.0,0.0,0.0,0.0,0.0,0.0,0.0,0.0,0.0,0.0,0.0,0.0,0.0,0.0,0.0,0.0,0.0,0.0,0.0,0.0,0.0,0.0,0.0,0.0,0.0,0.0,0.0,0.0,0.0,0.0,0.0,0.0,0.0,0.0,0.0,0.0,0.0,0.0,0.0,0.0,0.0,0.0,0.0,0.0,0.0,0.0,0.0,0.0,0.0,0.0,0.0,0.8609,0.8923,0.9411,0.0,0.0,0.0,0.0,0.0,0.0,0.0,0.0,0.0,0.0,0.0,0.0,0.0,0.0,0.0,0.0,0.0,0.0,0.0,0.0,0.0,0.0,0.0,0.0,0.0,0.0,0.0,0.0,0.0,0.0,0.0,0.0,0.0,0.0,0.0,0.0,0.0,0.0,0.0,0.0,0.0,0.0,0.0,0.0,0.0,0.0,0.0,0.0,0.0,0.0,0.0,0.0,0.0,0.0,0.0,0.0,0.0,0.0,0.0,0.0,0.0,0.0,0.0,0.0,0.0,0.0,0.0,0.0,0.0,0.0,0.0,0.0,0.0,0.0,0.0,0.0,0.0,0.0,0.0,0.0,0.0,0.0,0.0,0.0,0.0,0.0,0.0,0.0,0.0,0.0,0.0,0.0,0.0,0.0,0.0,0.0,0.0,0.0,0.0,0.0,0.0,0.0,0.0,0.0,0.0,0.0,0.0,0.0,0.0,0.0,0.8495,0.8504,0.9144,0.0,0.9322,0.0,0.0,0.0,0.0,0.0,0.0,0.0,0.0,0.0,0.0,0.0,0.0,0.0,0.0,0.0,0.0,0.0,0.0,0.0,0.0,0.0,0.0,0.0,0.0,0.0,0.0,0.0,0.0,0.0,0.0,0.0,0.0,0.0,0.0,0.0,0.0,0.0,0.0,0.0,0.0,0.0,0.0,0.0,0.0,0.0,0.0,0.0,0.0,0.0,0.0,0.0,0.0,0.0,0.0,0.0,0.0,0.0,0.0,0.0,0.0,0.0,0.0,0.0,0.0,0.0,0.0,0.0,0.0,0.0,0.0,0.0,0.0,0.0,0.0,0.0,0.0,0.0,0.0,0.0,0.0,0.0,0.0,0.0,0.0,0.0,0.0,0.0,0.0,0.0,0.0,0.0,0.0,0.0,0.0,0.0,0.0,0.0,0.0,0.0,0.0,0.0,0.0,0.0,0.0,0.0,0.0,0.0,0.0,0.0,0.0,0.9317,0.9207,0.9379,0.943,0.0,0.0,0.0,0.0,0.0,0.0,0.0,0.0,0.0,0.0,0.0,0.0,0.0,0.0,0.0,0.0,0.0,0.0,0.0,0.0,0.0,0.0,0.0,0.0,0.0,0.0,0.0,0.0,0.0,0.0,0.0,0.0,0.0,0.0,0.0,0.0,0.0,0.0,0.0,0.0,0.0,0.0,0.0,0.0,0.0,0.0,0.0,0.0,0.0,0.0,0.0,0.0,0.0,0.0,0.0,0.0,0.0,0.0,0.0,0.0,0.0,0.0,0.0,0.0,0.0,0.0,0.0,0.0,0.0,0.0,0.0,0.0,0.0,0.0,0.0,0.0,0.0,0.0,0.0,0.0,0.0,0.0,0.0,0.0,0.0,0.0,0.0,0.0,0.0,0.0,0.0,0.0,0.0,0.0,0.0,0.0,0.0,0.0,0.0,0.0,0.0,0.0,0.0,0.0,0.0,0.0,0.0,0.0,0.0,0.0,0.9585,0.9801,0.9658,0.9499,0.9358,0.9279,0.0,0.0,0.0,0.0,0.0,0.0,0.0,0.0,0.0,0.0,0.0,0.0,0.0,0.0,0.0,0.0,0.0,0.0,0.0,0.0,0.0,0.0,0.0,0.0,0.0,0.0,0.0,0.0,0.0,0.0,0.0,0.0,0.0,0.0,0.0,0.0,0.0,0.0,0.0,0.0,0.0,0.0,0.0,0.0,0.0,0.0,0.0,0.0,0.0,0.0,0.0,0.0,0.0,0.0,0.0,0.0,0.0,0.0,0.0,0.0,0.0,0.0,0.0,0.0,0.0,0.0,0.0,0.0,0.0,0.0,0.0,0.0,0.0,0.0,0.0,0.0,0.0,0.0,0.0,0.0,0.0,0.0,0.0,0.0,0.0,0.0,0.0,0.0,0.0,0.0,0.0,0.0,0.0,0.0,0.0,0.0,0.0,0.0,0.0,0.0,0.0,0.0,0.0,0.0,0.0,0.0,0.0,0.0,0.9833,0.9816,0.9746,0.9611,0.9465,0.9322,0.0,0.0,0.0,0.0,0.0,0.0,0.0,0.0,0.0,0.0,0.0,0.0,0.0,0.0,0.0,0.0,0.0,0.0,0.0,0.0,0.0,0.0,0.0,0.0,0.0,0.0,0.0,0.0,0.0,0.0,0.0,0.0,0.0,0.0,0.0,0.0,0.0,0.0,0.0,0.0,0.0,0.0,0.0,0.0,0.0,0.0,0.0,0.0,0.0,0.0,0.0,0.0,0.0,0.0,0.0,0.0,0.0,0.0,0.0,0.0,0.0,0.0,0.0,0.0,0.0,0.0,0.0,0.0,0.0,0.0,0.0,0.0,0.0,0.0,0.0,0.0,0.0,0.0,0.0,0.0,0.0,0.0,0.0,0.0,0.0,0.0,0.0,0.0,0.0,0.0,0.0,0.0,0.0,0.0,0.0,0.0,0.0,0.0,0.0,0.0,0.0,0.0,0.0,0.0,0.0,0.0,0.0,0.0,0.0,0.9909,0.9796,0.9688,0.9593,0.9474,0.9345,0.0,0.0,0.0,0.0,0.0,0.0,0.0,0.0,0.0,0.0,0.0,0.0,0.0,0.0,0.0,0.0,0.0,0.0,0.0,0.0,0.0,0.0,0.0,0.0,0.0,0.0,0.0,0.0,0.0,0.0,0.0,0.0,0.0,0.0,0.0,0.0,0.0,0.0,0.0,0.0,0.0,0.0,0.0,0.0,0.0,0.0,0.0,0.0,0.0,0.0,0.0,0.0,0.0,0.0,0.0,0.0,0.0,0.0,0.0,0.0,0.0,0.0,0.0,0.0,0.0,0.0,0.0,0.0,0.0,0.0,0.0,0.0,0.0,0.0,0.0,0.0,0.0,0.0,0.0,0.0,0.0,0.0,0.0,0.0,0.0,0.0,0.0,0.0,0.0,0.0,0.0,0.0,0.0,0.0,0.0,0.0,0.0,0.0,0.0,0.0,0.0,0.0,0.0,0.0,0.0,0.0,0.0,0.0,0.0,1.0286,0.0,1.0071,0.9992,0.987,0.963,0.0,0.0,0.0,0.0,0.0,0.0,0.0,0.0,0.0,0.0,0.0,0.0,0.0,0.0,0.0,0.0,0.0,0.0,0.0,0.0,0.0,0.0,0.0,0.0,0.0,0.0,0.0,0.0,0.0,0.0,0.0,0.0,0.0,0.0,0.0,0.0,0.0,0.0,0.0,0.0,0.0,0.0,0.0,0.0,0.0,0.0,0.0,0.0,0.0,0.0,0.0,0.0,0.0,0.0,0.0,0.0,0.0,0.0,0.0,0.0,0.0,0.0,0.0,0.0,0.0,0.0,0.0,0.0,0.0,0.0,0.0,0.0,0.0,0.0,0.0,0.0,0.0,0.0,0.0,0.0,0.0,0.0,0.0,0.0,0.0,0.0,0.0,0.0,0.0,0.0,0.0,0.0,0.0,0.0,0.0,0.0,0.0,0.0,0.0,0.0,0.0,0.0,0.0,0.0,0.0,0.0,0.0,0.0,1.0393,1.1068,1.1042,1.0957,1.0799,1.0752,1.0263,0.0,0.0,0.0,0.0,0.0,0.0,0.0,0.0,0.0,0.0,0.0,0.0,0.0,0.0,0.0,0.0,0.0,0.0,0.0,0.0,0.0,0.0,0.0,0.0,0.0,0.0,0.0,0.0,0.0,0.0,0.0,0.0,0.0,0.0,0.0,0.0,0.0,0.0,0.0,0.0,0.0,0.0,0.0,0.0,0.0,0.0,0.0,0.0,0.0,0.0,0.0,0.0,0.0,0.0,0.0,0.0,0.0,0.0,0.0,0.0,0.0,0.0,0.0,0.0,0.0,0.0,0.0,0.0,0.0,0.0,0.0,0.0,0.0,0.0,0.0,0.0,0.0,0.0,0.0,0.0,0.0,0.0,0.0,0.0,0.0,0.0,0.0,0.0,0.0,0.0,0.0,0.0,0.0,0.0,0.0,0.0,0.0,0.0,0.0,0.0,0.0,0.0,0.0,0.0,0.0,0.0,0.0,0.0,0.0,1.1978,1.1936,1.1824,1.17,1.1581,1.1106,0.0,0.0,0.0,0.0,0.0,0.0,0.0,0.0,0.0,0.0,0.0,0.0,0.0,0.0,0.0,0.0,0.0,0.0,0.0,0.0,0.0,0.0,0.0,0.0,0.0,0.0,0.0,0.0,0.0,0.0,0.0,0.0,0.0,0.0,0.0,0.0,0.0,0.0,0.0,0.0,0.0,0.0,0.0,0.0,0.0,0.0,0.0,0.0,0.0,0.0,0.0,0.0,0.0,0.0,0.0,0.0,0.0,0.0,0.0,0.0,0.0,0.0,0.0,0.0,0.0,0.0,0.0,0.0,0.0,0.0,0.0,0.0,0.0,0.0,0.0,0.0,0.0,0.0,0.0,0.0,0.0,0.0,0.0,0.0,0.0,0.0,0.0,0.0,0.0,0.0,0.0,0.0,0.0,0.0,0.0,0.0,0.0,0.0,0.0,0.0,0.0,0.0,0.0,0.0,0.0,0.0,0.0,0.0,0.0,1.3307,1.2944,1.2687,1.2547,1.2433,1.1758,1.0555,0.0,0.0,0.0,0.0,0.0,0.0,0.0,0.0,0.0,0.0,0.0,0.0,0.0,0.0,0.0,0.0,0.0,0.0,0.0,0.0,0.0,0.0,0.0,0.0,0.0,0.0,0.0,0.0,0.0,0.0,0.0,0.0,0.0,0.0,0.0,0.0,0.0,0.0,0.0,0.0,0.0,0.0,0.0,0.0,0.0,0.0,0.0,0.0,0.0,0.0,0.0,0.0,0.0,0.0,0.0,0.0,0.0,0.0,0.0,0.0,0.0,0.0,0.0,0.0,0.0,0.0,0.0,0.0,0.0,0.0,0.0,0.0,0.0,0.0,0.0,0.0,0.0,0.0,0.0,0.0,0.0,0.0,0.0,0.0,0.0,0.0,0.0,0.0,0.0,0.0,0.0,0.0,0.0,0.0,0.0,0.0,0.0,0.0,0.0,0.0,0.0,0.0,0.0,0.0,0.0,0.0,0.0,0.0,1.4885,1.4031,1.3512,1.3372,1.3229,1.2364,0.0,0.0,0.0,0.0,0.0,0.0,0.0,0.0,0.0,0.0,0.0,0.0,0.0,0.0,0.0,0.0,0.0,0.0,0.0,0.0,0.0,0.0,0.0,0.0,0.0,0.0,0.0,0.0,0.0,0.0,0.0,0.0,0.0,0.0,0.0,0.0,0.0,0.0,0.0,0.0,0.0,0.0,0.0,0.0,0.0,0.0,0.0,0.0,0.0,0.0,0.0,0.0,0.0,0.0,0.0,0.0,0.0,0.0,0.0,0.0,0.0,0.0,0.0,0.0,0.0,0.0,0.0,0.0,0.0,0.0,0.0,0.0,0.0,0.0,0.0,0.0,0.0,0.0,0.0,0.0,0.0,0.0,0.0,0.0,0.0,0.0,0.0,0.0,0.0,0.0,0.0,0.0,0.0,0.0,0.0,0.0,0.0,0.0,0.0,0.0,0.0,0.0,0.0,0.0,0.0,0.0,0.0,0.0,0.0,1.4883,1.457,1.4333,1.4187,1.3993,1.3362,0.0,0.0,0.0,0.0,0.0,0.0,0.0,0.0,0.0,0.0,0.0,0.0,0.0,0.0,0.0,0.0,0.0,0.0,0.0,0.0,0.0,0.0,0.0,0.0,0.0,0.0,0.0,0.0,0.0,0.0,0.0,0.0,0.0,0.0,0.0,0.0,0.0,0.0,0.0,0.0,0.0,0.0,0.0,0.0,0.0,0.0,0.0,0.0,0.0,0.0,0.0,0.0,0.0,0.0,0.0,0.0,0.0,0.0,0.0,0.0,0.0,0.0,0.0,0.0,0.0,0.0,0.0,0.0,0.0,0.0,0.0,0.0,0.0,0.0,0.0,0.0,0.0,0.0,0.0,0.0,0.0,0.0,0.0,0.0,0.0,0.0,0.0,0.0,0.0,0.0,0.0,0.0,0.0,0.0,0.0,0.0,0.0,0.0,0.0,0.0,0.0,0.0,0.0,0.0,0.0,0.0,0.0,0.0,1.5135,1.538,1.491,1.4594,1.4441,1.4232,1.3683,0.0,0.0,0.0,0.0,0.0,0.0,0.0,0.0,0.0,0.0,0.0,0.0,0.0,0.0,0.0,0.0,0.0,0.0,0.0,0.0,0.0,0.0,0.0,0.0,0.0,0.0,0.0,0.0,0.0,0.0,0.0,0.0,0.0,0.0,0.0,0.0,0.0,0.0,0.0,0.0,0.0,0.0,0.0,0.0,0.0,0.0,0.0,0.0,0.0,0.0,0.0,0.0,0.0,0.0,0.0,0.0,0.0,0.0,0.0,0.0,0.0,0.0,0.0,0.0,0.0,0.0,0.0,0.0,0.0,0.0,0.0,0.0,0.0,0.0,0.0,0.0,0.0,0.0,0.0,0.0,0.0,0.0,0.0,0.0,0.0,0.0,0.0,0.0,0.0,0.0,0.0,0.0,0.0,0.0,0.0,0.0,0.0,0.0,0.0,0.0,0.0,0.0,0.0,0.0,0.0,0.0,0.0,0.0,1.5319,1.5932,1.5059,1.4505,1.43,1.415,1.3641,0.0,0.0,0.0,0.0,0.0,0.0,0.0,0.0,0.0,0.0,0.0,0.0,0.0,0.0,0.0,0.0,0.0,0.0,0.0,0.0,0.0,0.0,0.0,0.0,0.0,0.0,0.0,0.0,0.0,0.0,0.0,0.0,0.0,0.0,0.0,0.0,0.0,0.0,0.0,0.0,0.0,0.0,0.0,0.0,0.0,0.0,0.0,0.0,0.0,0.0,0.0,0.0,0.0,0.0,0.0,0.0,0.0,0.0,0.0,0.0,0.0,0.0,0.0,0.0,0.0,0.0,0.0,0.0,0.0,0.0,0.0,0.0,0.0,0.0,0.0,0.0,0.0,0.0,0.0,0.0,0.0,0.0,0.0,0.0,0.0,0.0,0.0,0.0,0.0,0.0,0.0,0.0,0.0,0.0,0.0,0.0,0.0,0.0,0.0,0.0,0.0,0.0,0.0,0.0,0.0,0.0,0.0,0.0,1.5022,1.5062,1.4706,1.4433,1.4225,1.4057,1.377,0.0,0.0,0.0,0.0,0.0,0.0,0.0,0.0,0.0,0.0,0.0,0.0,0.0,0.0,0.0,0.0,0.0,0.0,0.0,0.0,0.0,0.0,0.0,0.0,0.0,0.0,0.0,0.0,0.0,0.0,0.0,0.0,0.0,0.0,0.0,0.0,0.0,0.0,0.0,0.0,0.0,0.0,0.0,0.0,0.0,0.0,0.0,0.0,1.0706,0.0,0.0,0.0,0.0,0.0,0.0,0.0,0.0,0.0,0.0,0.0,0.0,0.0,0.0,0.0,0.0,0.0,0.0,0.0,0.0,0.0,0.0,0.0,0.0,0.0,0.0,0.0,0.0,0.0,0.0,0.0,0.0,0.0,0.0,0.0,0.0,0.0,0.0,0.0,0.0,0.0,0.0,0.0,0.0,0.0,0.0,0.0,0.0,0.0,0.0,0.0,0.0,0.0,0.0,0.0,0.0,0.0,0.0,0.0,1.5074,1.53,1.4746,1.4368,1.4147,1.3934,1.3587,0.0,0.0,0.0,0.0,0.0,0.0,0.0,0.0,0.0,0.0,0.0,0.0,0.0,0.0,0.0,0.0,0.0,0.0,0.0,0.0,0.0,0.0,0.0,0.0,0.0,0.0,0.0,0.0,0.0,0.0,0.0,0.0,0.0,0.0,0.0,0.0,0.0,0.0,0.0,0.0,0.0,0.0,0.0,0.0,0.0,0.0,0.0,0.0,0.0,0.0,0.0,0.0,0.0,0.0,0.0,0.0,0.0,0.0,0.0,0.0,0.0,0.0,0.0,0.0,0.0,0.0,0.0,0.0,0.0,0.0,0.0,0.0,0.0,0.0,0.0,0.0,0.0,0.0,0.0,0.0,0.0,0.0,0.0,0.0,0.0,0.0,0.0,0.0,0.0,0.0,0.0,0.0,0.0,0.0,0.0,0.0,0.0,0.0,0.0,0.0,0.0,0.0,0.0,0.0,0.0,0.0,0.0,1.5228,1.516,1.565,1.4839,1.4289,1.4107,1.3728,1.3139,1.2329,0.0,0.0,0.0,0.0,0.0,0.0,0.0,0.0,0.0,0.0,0.0,0.0,0.0,0.0,0.0,0.0,0.0,0.0,0.0,0.0,0.0,0.0,0.0,0.0,0.0,0.0,0.0,0.0,0.0,0.0,0.0,0.0,0.0,0.0,0.0,0.0,0.0,0.0,0.8893,0.9992,0.0,0.0,0.0,0.0,0.0,0.0,0.0,0.0,1.1099,0.0,0.0,0.0,0.0,0.0,0.0,0.0,0.0,0.0,0.0,0.0,0.0,0.0,0.0,0.0,0.0,0.0,0.0,0.0,0.0,0.0,0.0,0.0,0.0,0.0,0.0,0.0,0.0,0.0,0.0,0.0,0.0,0.0,0.0,0.0,0.0,0.0,0.0,0.0,0.0,0.0,0.0,0.0,0.0,0.0,0.0,0.0,0.0,0.0,0.0,0.0,0.0,0.0,0.0,0.0,0.0,1.41,1.4577,1.4855,1.4889,1.4513,1.425,1.4089,1.325,1.2338,1.1448,0.0,0.0,0.0,0.0,0.0,0.0,0.0,0.0,0.0,0.0,0.0,0.0,0.0,0.0,0.0,0.0,0.0,0.0,0.0,0.0,0.0,0.0,0.0,0.0,0.0,0.0,0.0,0.0,0.0,0.0,0.0,0.0,0.0,0.0,0.0,0.0,0.0,0.0,0.0,1.1083,1.1844,0.0,0.0,0.0,0.0,0.0,0.0,0.0,0.0,1.0881,0.0,0.0,0.0,0.0,0.0,0.0,0.0,0.0,0.0,0.0,0.0,0.0,0.0,0.0,0.0,0.0,0.0,0.0,0.0,0.0,0.0,0.0,0.0,0.0,0.0,0.0,0.0,0.0,0.0,0.0,0.0,0.0,0.0,0.0,0.0,0.0,0.0,0.0,0.0,0.0,0.0,0.0,0.0,0.0,0.0,0.0,0.0,0.0,0.0,0.0,0.0,0.0,0.0,0.0,0.0,1.3649,1.4412,1.4723,1.4592,1.4405,1.4026,1.3432,1.2844,1.192,0.0,0.0,0.0,0.0,0.0,0.0,0.0,0.0,0.0,0.0,0.0,0.0,0.0,0.0,0.0,0.0,0.0,0.0,0.0,0.0,0.0,0.0,0.0,0.0,0.0,0.0,0.0,0.0,0.0,0.0,0.0,0.0,0.0,0.0,0.0,0.0,0.0,0.0,0.0,0.0,1.1489,1.2148,1.269,0.0,0.0,0.0,0.0,0.0,0.0,1.1201,1.092,0.0,0.0,0.0,0.0,0.0,0.0,0.0,0.0,0.0,0.0,0.0,0.0,0.0,0.0,0.0,0.0,0.0,0.0,0.0,0.0,0.0,0.0,0.0,0.0,0.0,0.0,0.0,0.0,0.0,0.0,0.0,0.0,0.0,0.0,0.0,0.0,0.0,0.0,0.0,0.0,0.0,0.0,0.0,0.0,0.0,0.0,0.0,0.0,0.0,0.0,0.0,0.0,0.0,0.0,0.0,1.3356,1.4138,1.4538,1.4495,1.4223,1.3658,1.2817,1.2307,1.1366,0.0,0.0,0.0,0.0,0.0,0.0,0.0,0.0,0.0,0.0,0.0,0.0,0.0,0.0,0.0,0.0,0.0,0.0,0.0,0.0,0.0,0.0,0.0,0.0,0.0,0.0,0.0,0.0,0.0,0.0,0.0,0.0,0.0,0.0,0.0,0.0,0.0,0.0,0.0,0.0,0.0,1.2307,1.2837,1.2706,0.0,0.0,0.0,0.0,1.1523,1.1213,0.0,0.0,0.0,0.0,0.0,0.0,0.0,0.0,0.0,0.0,0.0,0.0,0.0,0.0,0.0,0.0,0.0,0.0,0.0,0.0,0.0,0.0,0.0,0.0,0.0,0.0,0.0,0.0,0.0,0.0,0.0,0.0,0.0,0.0,0.0,0.0,0.0,0.0,0.0,0.0,0.0,0.0,0.0,0.0,0.0,0.0,0.0,0.0,0.0,0.0,0.0,0.0,0.0,0.0,0.0,0.0,1.2527,1.3264,1.394,1.4431,1.3683,1.3106,1.278,1.1278,1.0291,0.0,0.0,0.0,0.0,0.0,0.0,0.0,0.0,0.0,0.0,0.0,0.0,0.0,0.0,0.0,0.0,0.0,0.0,0.0,0.0,0.0,0.0,0.0,0.0,0.0,0.0,0.0,0.0,0.0,0.0,0.0,0.0,0.0,0.0,0.0,0.0,0.0,0.0,0.0,0.0,0.0,1.2323,1.2898,1.2822,1.2607,0.0,0.0,1.1809,1.1534,1.1181,0.0,0.0,0.0,0.0,0.0,0.0,0.0,0.0,0.0,0.0,0.0,0.0,0.0,0.0,0.0,0.0,0.0,0.0,0.0,0.0,0.0,0.0,0.0,0.0,0.0,0.0,0.0,0.0,0.0,0.0,0.0,0.0,0.0,0.0,0.0,0.0,0.0,0.0,0.0,0.0,0.0,0.0,0.0,0.0,0.0,0.0,0.0,0.0,0.0,0.0,0.0,0.0,0.0,0.0,0.0,1.1824,1.1704,1.2834,1.3325,1.3099,1.3057,1.2532,1.1459,1.0598,0.9879,0.0,0.0,0.0,0.0,0.0,0.0,0.0,0.0,0.0,0.0,0.0,0.0,0.0,0.0,0.0,0.0,0.0,0.0,0.0,0.0,0.0,0.0,0.0,0.0,0.0,0.0,0.0,0.0,0.0,0.0,0.0,0.0,0.0,0.0,0.0,0.0,0.0,0.0,0.0,0.0,0.0,0.0,1.3035,1.2852,0.0,0.0,0.0,1.1848,1.1887,0.0,0.0,0.0,0.0,0.0,0.0,0.0,0.0,0.0,0.0,0.0,0.0,0.0,0.0,0.0,0.0,0.0,0.0,0.0,0.0,0.0,0.0,0.0,0.0,0.0,0.0,0.0,0.0,0.0,0.0,0.0,0.0,0.0,0.0,0.0,0.0,0.0,0.0,0.0,0.0,0.0,0.0,0.0,0.0,0.0,0.0,0.0,0.0,0.0,0.0,0.0,0.0,0.0,0.0,0.0,0.0,0.0,1.1715,1.2613,1.2837,1.2279,1.2349,1.1747,1.0421,1.0008,0.0,0.0,0.0,0.0,0.0,0.0,0.0,0.0,0.0,0.0,0.0,0.0,0.0,0.0,0.0,0.0,0.0,0.0,0.0,0.0,0.0,0.0,0.0,0.0,0.0,0.0,0.0,0.9057,0.0,0.0,0.0,0.0,0.0,0.0,0.0,0.0,0.0,0.0,0.0,0.0,0.0,0.0,1.3371,1.338,1.3139,1.2951,0.0,0.0,1.1969,1.1891,1.1089,1.0361,0.0,0.0,0.0,0.0,0.0,0.0,0.0,0.0,0.0,0.0,0.0,0.0,0.0,0.0,0.0,0.0,0.0,0.0,0.0,0.0,0.0,0.0,0.0,0.0,0.0,0.0,0.0,0.0,0.0,0.0,0.0,0.0,0.0,0.0,0.0,0.0,0.0,0.0,0.0,0.0,0.0,0.0,0.0,0.0,0.0,0.0,0.0,0.0,0.0,0.0,0.0,0.0,0.0,0.0,1.2645,1.3307,1.2632,1.2527,1.2969,1.1545,1.0616,1.0319,0.9446,0.8942,0.0,0.0,0.0,0.0,0.0,0.0,0.0,0.0,0.0,0.0,0.0,0.0,0.0,0.0,0.0,0.0,0.0,0.0,0.0,0.0,0.0,0.0,0.0,0.0,0.0,0.0,0.0,0.0,0.0,0.0,0.0,0.0,0.0,0.0,0.0,0.0,0.0,0.0,0.0,0.0,0.0,1.3504,1.4044,1.3837,1.3287,0.0,1.2385,1.2194,1.1154,1.0511,1.0008,0.9684,0.0,0.0,0.0,0.0,0.0,0.0,0.0,0.0,0.0,0.0,0.0,0.0,0.0,0.0,0.0,0.0,0.0,0.0,0.0,0.0,0.0,0.0,0.0,0.0,0.0,0.0,0.0,0.0,0.0,0.0,0.0,0.0,0.0,0.0,0.0,0.0,0.0,0.0,0.0,0.0,0.0,0.0,0.0,0.0,0.0,0.0,0.0,0.0,0.0,0.0,0.0,0.0,0.0,1.2969,1.2714,1.2788,1.2652,1.2313,1.2067,1.1635,1.0973,1.0565,1.0271,0.0,0.0,0.0,0.0,0.0,0.0,0.0,0.0,0.0,0.0,0.0,0.0,0.0,0.0,0.0,0.0,0.0,0.0,0.0,0.0,0.0,0.0,0.0,0.0,0.0,0.0,0.0,0.0,0.8084,0.7431,0.6879,0.0,0.0,0.0,0.0,0.0,0.0,0.0,0.0,0.0,0.0,1.4711,1.4801,1.4114,0.0,0.0,1.237,1.1558,1.1207,1.0392,0.9705,0.9462,0.9197,0.0,0.0,0.0,0.0,0.0,0.0,0.0,0.0,0.0,0.0,0.0,0.0,0.0,0.0,0.0,0.0,0.0,0.0,0.0,0.0,0.0,0.0,0.0,0.0,0.0,0.0,0.0,0.0,0.0,0.0,0.0,0.0,0.0,0.0,0.0,0.0,0.0,0.0,0.0,0.0,0.0,0.0,0.0,0.0,0.0,0.0,0.0,0.0,0.0,0.0,0.0,0.0,1.3584,1.2919,1.3091,1.2819,1.2132,1.2309,1.2074,1.1368,1.1227,1.1095,0.0,0.0,0.0,0.0,0.0,0.0,0.0,0.0,0.0,0.0,0.0,0.0,0.0,0.0,0.0,0.0,0.0,0.0,0.0,0.0,0.0,0.0,0.0,0.0,0.0,0.0,0.0,0.0,0.8792,0.8113,0.761,0.0,0.0,0.0,0.0,0.0,0.0,0.0,0.0,0.0,0.0,1.5221,1.5429,1.4475,1.3681,1.3506,1.2194,1.1104,1.0821,0.9934,0.9207,0.8999,0.0,0.0,0.0,0.0,0.0,0.0,0.0,0.0,0.0,0.0,0.0,0.0,0.0,0.0,0.0,0.0,0.0,0.0,0.0,0.0,0.0,0.0,0.0,0.0,0.0,0.0,0.0,1.7636,0.0,0.0,1.7578,0.0,0.0,0.0,0.0,0.0,0.0,0.0,0.0,0.0,0.0,0.0,0.0,0.0,0.0,0.0,0.0,0.0,0.0,0.0,0.0,0.0,0.0,1.4611,1.4539,1.3594,1.3034,1.287,1.2009,1.1503,1.1271,1.1147,1.1033,1.0848,0.0,0.0,0.0,0.0,0.0,0.0,0.0,0.0,0.0,0.0,0.0,0.0,0.0,0.0,0.0,0.0,0.0,0.0,0.0,0.0,0.0,0.0,0.0,0.0,0.0,0.0,1.0952,0.9763,0.8977,0.0,0.0,0.0,0.0,0.0,0.0,0.0,0.0,0.0,1.5349,1.4855,1.4761,1.5904,1.5046,1.3811,1.2544,1.179,1.0952,0.9732,0.9046,0.8515,0.0,0.0,0.0,0.0,0.0,0.0,0.0,0.0,0.0,0.0,0.0,0.0,0.0,0.0,0.0,0.0,0.0,0.0,0.0,0.0,0.0,0.0,0.0,0.0,0.0,0.0,0.0,2.0048,2.0006,0.0,0.0,0.0,0.0,0.0,0.0,0.0,0.0,0.0,0.0,0.0,1.9173,1.9173,0.0,0.0,0.0,0.0,0.0,0.0,0.0,0.0,0.0,0.0,0.0,0.0,1.4576,1.4462,1.4047,1.3765,1.3629,1.318,1.2892,1.2728,1.2577,1.239,1.2142,0.0,0.0,0.0,0.0,0.0,0.0,0.0,0.0,0.0,0.0,0.0,0.0,0.0,0.0,0.0,0.0,0.0,0.0,0.0,0.0,0.0,0.0,0.0,0.0,0.0,1.2015,0.0,0.0,0.0,0.0,0.0,0.0,0.0,0.0,0.0,0.0,0.0,1.4896,1.5466,1.5981,1.6203,1.5949,1.484,1.3569,0.0,0.0,0.0,0.0,0.0,0.0,0.0,0.0,0.0,0.0,0.0,0.0,0.0,0.0,0.761,0.8013,0.7897,0.7735,0.7724,0.0,0.0,0.0,0.0,0.0,0.0,0.0,0.0,0.0,0.0,0.0,0.0,0.0,0.0,2.1713,2.1673,2.1132,0.0,0.0,0.0,0.0,0.0,0.0,0.0,0.0,2.0077,2.0062,1.9995,1.9979,1.9966,0.0,1.9368,1.8828,0.0,0.0,0.0,0.0,0.0,0.0,0.0,0.0,1.4768,1.4362,1.4195,1.4053,1.3894,1.3713,1.3559,1.3387,1.3192,1.2953,1.2738,1.2856,1.2984,0.0,0.0,0.0,0.0,0.0,0.0,0.0,0.0,0.0,0.0,0.0,0.0,0.0,0.0,0.0,0.0,0.0,0.0,0.0,0.0,0.0,0.0,0.0,1.2317,0.0,0.0,0.0,0.0,0.0,0.0,0.0,0.0,0.0,1.3507,1.4307,1.4961,1.4971,1.5615,1.588,1.5356,0.0,0.0,0.0,0.0,0.0,0.0,0.0,0.7849,0.7878,0.789,0.7983,0.8301,0.8146,0.793,0.7779,0.0,0.0,0.8146,0.8059,0.7904,0.7894,0.7782,0.7671,0.7554,0.7364,0.716,0.0,0.0,0.0,0.0,0.0,0.0,0.0,0.0,2.2502,2.2532,0.0,2.2448,0.0,0.0,0.0,0.0,2.128,2.0521,0.0,0.0,2.0129,2.0083,2.0072,2.0038,1.9941,1.9869,1.9923,1.9881,1.9738,1.8172,0.0,0.0,0.0,0.0,0.0,0.0,1.5201,1.4278,1.4091,1.3881,1.3705,1.3576,1.3387,1.3201,1.2926,1.2754,1.2655,1.3157,1.3313,1.3007,1.3527,0.0,0.0,0.0,0.0,0.0,0.0,0.0,0.0,0.0,0.0,0.0,0.0,0.0,0.0,0.0,0.0,0.0,0.0,0.0,0.0,1.2642,0.0,0.0,0.0,0.0,0.0,0.0,0.0,0.0,0.0,0.0,1.4086,1.41,1.4078,1.4012,0.0,0.0,0.0,0.0,1.2232,1.1467,0.9955,0.8755,0.8409,0.7611,0.7068,0.7244,0.0,0.0,0.7184,0.748,0.7633,0.7616,0.7265,0.7127,0.7299,0.7392,0.7451,0.7475,0.7359,0.7251,0.7181,0.6981,0.6801,2.387,0.0,0.0,0.0,0.0,2.2846,2.314,2.3201,2.3196,2.323,2.3245,2.2628,0.0,0.0,0.0,0.0,0.0,0.0,2.1651,2.1632,2.1626,2.16,2.1502,2.1489,2.1428,2.1357,2.0807,2.0532,2.0464,1.9415,1.8615,1.8099,0.0,0.0,0.0,0.0,1.5363,1.4967,1.4292,1.3831,1.3636,1.3477,1.3286,1.2989,1.2762,1.2847,1.3215,1.3227,1.3571,1.428,1.4352,0.0,0.0,0.0,0.0,0.0,0.0,0.0,0.0,0.0,0.0,0.0,0.0,0.0,0.0,0.0,0.0,0.0,0.0,0.0,1.2662,1.2416,1.2448,0.0,0.0,0.0,0.0,0.0,0.0,0.0,0.0,0.0,1.4652,1.4562,1.44,0.0,0.0,1.4065,1.3444,1.2677,1.1686,1.0431,0.9324,0.0,0.7713,0.7217,0.6852,0.6622,0.6522,0.6449,0.6315,0.6466,0.6544,0.6276,0.6188,0.6214,0.6269,0.6595,0.6831,0.6852,0.6822,0.6738,0.6589,0.6443,0.6291,2.5307,2.3686,2.3813,2.3724,2.3549,2.407,2.4145,2.3911,2.3941,2.4009,2.3989,2.3488,2.3291,2.3344,2.3017,0.0,0.0,0.0,2.225,2.2217,2.2206,2.2129,2.2017,2.2028,2.1975,2.1861,2.1398,2.1134,2.107,2.0252,1.9608,1.9114,0.0,0.0,1.73,1.6642,1.5961,1.5201,1.4845,1.4293,1.3552,1.3303,1.3202,1.3203,1.3059,1.321,1.3749,1.388,1.4209,1.4749,1.4868,1.4979,0.0,0.0,0.0,0.0,0.0,0.0,0.0,0.0,0.0,0.0,0.0,1.6901,1.7007,0.0,0.0,0.0,1.4167,1.3655,1.3075,1.2972,0.0,0.0,0.0,0.0,0.0,0.0,0.0,1.5953,1.6321,1.6053,1.4735,1.4502,1.414,1.3231,1.3318,1.3179,1.2388,0.0,1.0944,0.9765,0.884,0.8043,0.7488,0.6879,0.6373,0.6045,0.5964,0.5912,0.5704,0.5695,0.5658,0.5445,0.5428,0.5482,0.5482,0.575,0.6037,0.6229,0.6245,0.616,0.6029,0.5929,0.5789,2.6586,2.6581,2.6759,2.6378,2.5699,2.5746,2.5345,2.4683,2.4804,2.4864,2.4872,2.4792,2.4782,2.4727,2.3997,0.0,2.3539,2.2756,2.2368,2.2275,2.221,2.2139,2.2062,2.2066,2.1983,2.188,2.1797,2.168,2.1543,2.0807,2.0399,2.0264,1.958,1.8824,1.8003,1.7713,1.677,1.5212,1.5565,1.5043,1.3583,1.3225,1.3284,1.3759,1.3637,1.378,1.4257,1.4855,1.5012,1.4735,1.5139,1.527,1.4998,0.0,0.0,0.0,0.0,0.0,0.0,0.0,0.0,0.0,0.0,0.0,0.0,0.0,0.0,0.0,1.4907,0.0,1.384,1.3967,0.0,0.0,0.0,1.5141,1.5308,1.5919,1.6418,1.6577,0.0,0.0,1.4482,1.4093,1.349,1.2271,1.1955,1.1681,1.1205,1.0726,1.0097,0.9373,0.8496,0.7778,0.7384,0.6498,0.5739,0.5453,0.5313,0.5215,0.5179,0.5053,0.494,0.4896,0.4906,0.4912,0.4944,0.4944,0.5081,0.557,0.5625,0.5555,0.554,0.5446,0.5358,2.8543,2.8026,2.8106,2.7424,2.6298,2.6295,2.6236,2.6111,2.6149,2.6198,2.6247,2.5643,2.5074,2.4561,2.4383,2.4262,2.4228,2.3925,2.3782,2.3783,2.3658,2.3565,2.3499,2.3394,2.3315,2.318,2.2558,2.2211,2.2144,2.1327,2.0918,2.0853,2.0006,1.925,1.8592,1.7826,1.716,1.6592,1.5971,1.5336,1.4725,1.4463,1.4374,1.4374,1.4163,1.4324,1.4929,1.4973,1.509,1.5358,1.5375,1.5269,1.4949,1.5228,0.0,0.0,0.0,0.0,0.0,0.0,0.0,0.0,0.0,1.8942,1.9121,0.0,1.725,0.0,1.4931,1.3905,1.3822,1.3767,0.0,0.0,1.5153,1.5795,1.6409,1.7091,1.747,1.7409,1.6955,1.6095,1.4621,1.392,1.2985,1.1511,1.1347,1.1216,1.0808,1.0284,0.9714,0.9066,0.828,0.7539,0.6873,0.5872,0.5068,0.4786,0.464,0.4515,0.4405,0.4345,0.4302,0.4237,0.4231,0.4248,0.4318,0.4307,0.4398,0.4634,0.4899,0.5122,0.5074,0.5036,0.4988,2.9591,2.8869,2.8896,2.8286,2.7284,2.7032,2.6787,2.6504,2.6507,2.656,2.6632,2.6182,2.5576,2.4875,2.4866,2.4663,2.4375,2.4229,2.4172,2.4153,2.3998,2.3896,2.3871,2.3728,2.362,2.3513,2.3006,2.2736,2.266,2.1832,2.1388,2.1355,2.0433,1.9639,1.8971,1.8143,1.745,1.6931,1.5853,1.5318,1.5395,1.4906,1.4707,1.4848,1.4631,1.4816,1.5449,1.5299,1.531,1.5507,1.5403,1.5208,1.4932,1.5384,1.5705,0.0,0.0,0.0,0.0,0.0,0.0,0.0,0.0,0.0,0.0,0.0,1.8024,1.6772,1.5754,1.5125,1.4973,1.4887,1.5138,1.5832,1.6186,1.6572,1.707,1.7347,1.7502,1.7407,1.6952,1.6124,1.4686,1.3968,1.3052,1.1469,1.1176,1.09,1.0314,0.9752,0.92,0.8604,0.7882,0.7044,0.6075,0.5282,0.466,0.4339,0.4178,0.4075,0.395,0.3917,0.3901,0.3884,0.3868,0.388,0.3917,0.3933,0.3936,0.3961,0.4175,0.4371,0.4442,0.4385,0.4317,3.0137,2.9404,2.9404,2.9087,2.8523,2.7938,2.7296,2.6645,2.6654,2.6633,2.6615,2.6607,2.6179,2.5411,2.5393,2.501,2.4306,2.4178,2.4065,2.3955,2.3742,2.3653,2.3616,2.3481,2.3354,2.3241,2.3163,2.3107,2.2998,2.2255,2.1833,2.1725,2.0852,2.0045,1.9394,1.8562,1.7693,1.6766,1.5704,1.5388,1.587,1.5053,1.4838,1.5268,1.5101,1.5253,1.5769,1.5668,1.5551,1.5433,1.5358,1.5208,1.4978,1.5501,1.5848,0.0,1.6698,0.0,0.0,0.0,0.0,0.0,0.0,0.0,0.0,1.972,1.8685,1.6873,1.6846,1.6815,1.6499,1.6454,1.6641,1.7144,1.7241,1.7287,1.7386,1.7305,1.7208,1.7109,1.6701,1.5896,1.4629,1.4003,1.309,1.1648,1.1031,1.0508,0.9853,0.9332,0.8864,0.8218,0.7418,0.6471,0.5374,0.4788,0.4393,0.4037,0.3875,0.3777,0.3639,0.3618,0.3607,0.3586,0.3569,0.3586,0.3618,0.36,0.357,0.3483,0.3487,0.3559,0.3769,0.3737,0.3583,3.0642,2.9949,2.9931,2.994,2.9854,2.9115,2.85,2.8008,2.8021,2.7698,2.7164,2.7206,2.6794,2.6046,2.6027,2.5604,2.486,2.4714,2.4309,2.3754,2.3492,2.3342,2.3271,2.3119,2.2965,2.2893,2.2829,2.2764,2.2685,2.2481,2.2285,2.2078,2.1275,2.075,2.0431,0.0,0.0,0.0,1.6653,1.6432,1.6378,1.6047,1.5856,1.5855,1.5603,0.0,1.5769,1.5683,1.5595,1.5551,1.5448,0.0,0.0,0.0,0.0,0.0,0.0,0.0,0.0,0.0,0.0,0.0,2.0107,2.0425,2.0622,1.9761,1.8641,1.7399,1.7194,1.7076,1.6908,1.6727,1.6681,1.6809,1.7192,1.7448,1.7421,1.7749,1.7882,1.7573,1.6604,1.5487,1.4348,1.3243,1.211,1.0971,1.0305,0.9821,0.9343,0.9292,0.9099,0.8408,0.714,0.5971,0.4988,0.4495,0.4075,0.3749,0.352,0.3372,0.3253,0.3208,0.3171,0.3089,0.3032,0.3097,0.32,0.313,0.3077,0.3155,0.2921,0.285,0.3319,0.3433,0.3434,3.1115,3.0451,3.0484,3.0371,0.0,2.9706,2.9473,2.9301,2.8603,2.8143,2.7839,2.789,2.7426,2.6651,2.6651,2.6177,2.5392,2.5254,2.5003,2.4617,2.397,2.36,2.3536,2.2976,2.2655,2.2592,2.2542,2.244,2.2371,2.2271,2.2172,2.1996,2.1532,2.1054,2.0513,1.8884,1.7665,1.6914,1.6686,1.6488,1.6342,1.6139,1.597,1.5899,1.5668,0.0,0.0,0.0,0.0,0.0,0.0,0.0,0.0,1.627,0.0,1.6938,1.8084,1.8874,1.904,1.938,1.9566,1.9603,1.9821,2.005,2.0292,1.9678,1.8845,1.7809,1.7563,1.7437,1.726,1.7066,1.7083,1.7404,1.7545,1.7589,1.7552,1.7571,1.7496,1.7081,1.6121,1.5067,1.4076,1.2984,1.1906,1.09,1.0277,0.9733,0.9288,0.9036,0.858,0.7658,0.6545,0.5536,0.4811,0.4208,0.3733,0.3422,0.322,0.306,0.2928,0.2911,0.2878,0.2821,0.276,0.2722,0.2775,0.2717,0.2639,0.2605,0.2504,0.2441,0.2693,0.279,0.2858,3.1493,3.094,3.1046,3.0784,3.0324,3.0201,3.0192,3.0154,2.8902,0.0,0.0,2.8327,2.796,2.7281,2.7254,2.6756,2.5966,2.5787,2.565,2.5447,2.4547,2.4061,2.3943,2.3044,2.2578,2.2494,2.229,2.2135,2.2013,2.194,2.1823,2.1693,2.1573,2.106,2.0132,1.8715,1.7639,1.6932,1.6462,1.6205,1.6125,1.5885,1.5726,1.5741,1.5566,1.5477,1.5492,1.5477,1.5463,1.5418,1.5418,1.5417,1.5456,1.6443,1.7082,1.7127,1.8151,1.8831,1.8903,1.9111,1.9246,1.9302,1.931,1.9406,1.9627,1.9497,1.9016,1.8125,1.7902,1.7735,1.7515,1.7306,1.7396,1.7914,1.7679,1.7462,1.7366,1.698,1.6578,1.616,1.5251,1.4373,1.3497,1.2481,1.1636,1.0806,1.0079,0.9561,0.8993,0.843,0.781,0.6771,0.5927,0.5168,0.4543,0.3957,0.3414,0.3105,0.2904,0.2755,0.263,0.2596,0.2596,0.2563,0.2491,0.2445,0.2415,0.2356,0.225,0.2123,0.2156,0.2196,0.2129,0.2162,0.2285,3.1526,3.1517,3.1627,3.1649,3.1601,3.1011,3.0502,2.9999,2.9289,2.8613,2.8039,2.8071,2.7986,2.7865,2.7763,2.73,2.6566,2.6314,2.5787,2.5079,2.4731,2.4505,2.4286,2.3425,2.2984,2.2859,2.2157,2.1739,2.1664,2.154,2.1402,2.1214,2.1183,2.0671,1.9673,1.9295,1.8702,1.773,1.6691,1.6039,1.5856,1.5697,1.558,1.5463,1.5374,1.5358,1.5418,1.5418,1.5448,1.5477,1.5418,1.5652,1.6206,1.669,1.717,1.7741,1.8351,1.8673,1.8576,1.876,1.8879,1.8879,1.8731,1.875,1.8993,1.9011,1.8755,1.8221,1.8029,1.7859,1.7525,1.7309,1.7109,1.7026,1.6808,1.6552,1.6269,1.5864,1.5454,1.4994,1.388,1.2902,1.2236,1.1176,1.0244,0.9637,0.9064,0.8399,0.7653,0.7486,0.7185,0.6343,0.5642,0.4926,0.4209,0.3594,0.3152,0.2799,0.2593,0.2424,0.2248,0.2217,0.2197,0.217,0.2158,0.2154,0.2151,0.2001,0.1944,0.1963,0.1957,0.1904,0.1997,0.2052,0.2096,3.1644,3.1404,3.1485,3.1617,3.1731,3.1512,3.1081,3.0485,3.0184,2.9519,2.8641,2.8558,2.8285,2.7853,2.7689,2.744,2.7081,2.6807,2.6413,2.5927,2.5334,2.4924,2.4696,2.3867,2.3374,2.3211,2.2377,2.194,2.1827,2.1392,2.1007,2.0778,2.0712,2.0371,1.9791,1.9307,1.8806,1.8255,1.706,1.6367,1.6234,1.5743,1.5448,1.5418,1.5374,1.5374,1.5418,1.5433,1.5609,1.5976,1.5884,1.6127,1.6731,1.7133,1.743,1.7687,1.819,1.8425,1.8234,1.8319,1.8338,1.8279,1.8167,1.8068,1.7982,1.8187,1.8161,1.7855,1.7659,1.7434,1.7089,1.6858,1.6603,1.629,1.5974,1.5644,1.5299,1.488,1.4388,1.3871,1.275,1.1784,1.1208,1.0084,0.9162,0.8647,0.7928,0.7161,0.6444,0.6252,0.611,0.5789,0.5237,0.4592,0.3953,0.3391,0.2973,0.2685,0.2413,0.2195,0.2065,0.1993,0.1951,0.1932,0.1877,0.185,0.1876,0.1732,0.1679,0.1746,0.1762,0.1798,0.1905,0.1997,0.2089,3.1958,3.1385,3.145,3.1504,3.156,3.1748,3.1529,3.108,3.1081,3.0469,2.9488,2.9257,2.8702,2.7894,2.7739,2.7561,2.7296,2.7023,2.6842,2.6607,2.5815,2.5344,2.5139,2.429,2.3792,2.3575,2.2774,2.2283,2.2101,2.1398,2.0787,2.0424,2.0254,2.008,1.9902,1.9268,1.8875,1.8655,1.758,1.6913,1.6732,1.6123,1.5812,1.5751,1.575,1.5721,1.5751,1.5782,1.6015,1.6414,1.6377,1.6582,1.7144,1.7436,1.7618,1.7674,1.7977,1.8068,1.7888,1.7808,1.7713,1.7625,1.7544,1.7372,1.7081,1.7214,1.7325,1.7256,1.7094,1.6829,1.6475,1.616,1.5842,1.5488,1.5084,1.4675,1.4295,1.3794,1.3263,1.2725,1.1662,1.0677,1.0042,0.9049,0.8118,0.7467,0.6706,0.6006,0.5545,0.5096,0.4884,0.4863,0.4623,0.416,0.3688,0.3152,0.2717,0.2506,0.2226,0.1986,0.1871,0.1745,0.1699,0.1677,0.1615,0.1589,0.1596,0.1532,0.1498,0.1562,0.1613,0.1696,0.1828,0.1975,0.2089,3.2529,3.1968,3.2001,3.1742,3.1402,3.1542,3.1584,3.1534,3.1661,3.1267,3.0422,2.9968,2.9256,2.8481,2.8364,2.7856,2.7058,2.6776,2.6537,2.633,2.6015,2.5766,2.554,2.4721,2.4269,2.4047,2.3224,2.2692,2.2446,2.1703,2.0923,2.0137,1.9919,1.9777,1.9614,1.9431,1.9222,1.9037,1.8296,1.7641,1.7173,1.7055,1.6942,1.6758,1.6744,1.6772,1.6687,1.6789,1.6736,1.6689,1.6655,1.6902,1.7375,1.7316,1.7512,1.8037,1.7874,1.7679,1.7455,1.7222,1.7097,1.7055,1.6795,1.6573,1.6377,1.6139,1.6194,1.6423,1.6383,1.6122,1.5746,1.5287,1.4835,1.4402,1.3973,1.3545,1.299,1.2502,1.1978,1.1441,1.0384,0.9466,0.8875,0.7866,0.6844,0.6112,0.554,0.5022,0.4652,0.422,0.3832,0.3745,0.3701,0.3638,0.3175,0.272,0.2389,0.2115,0.1886,0.1697,0.1544,0.1468,0.1427,0.1434,0.1423,0.1424,0.141,0.1393,0.1461,0.1457,0.1499,0.1577,0.1707,0.1883,0.2019,3.2995,3.243,3.2522,3.2299,3.1873,3.1438,3.1312,3.1428,3.1445,3.1255,3.0965,3.0716,3.0,2.8922,2.8766,2.8201,2.7298,2.7087,2.6604,2.5972,2.5717,2.5511,2.531,2.4872,2.4574,2.4379,2.3557,2.3003,2.2666,2.1888,2.1031,2.0292,2.0105,1.9778,1.9286,1.9186,1.9093,1.8917,1.8593,1.8261,1.791,1.7263,1.6861,1.6774,1.6739,1.6722,1.6705,1.6652,1.675,1.7068,1.6932,1.7078,1.765,1.7376,1.7303,1.7557,1.7303,1.7026,1.6884,1.6689,1.6527,1.6432,1.6216,1.5986,1.5722,1.5433,1.5288,1.5243,1.5345,1.5266,1.4846,1.4203,1.3564,1.306,1.2539,1.1997,1.139,1.103,1.061,1.0061,0.9157,0.8321,0.7667,0.6596,0.5631,0.5,0.4526,0.4158,0.3935,0.3561,0.3236,0.3056,0.3034,0.2943,0.2713,0.2516,0.2207,0.1932,0.1679,0.1465,0.1318,0.1276,0.1258,0.1244,0.1299,0.1323,0.1331,0.1325,0.1368,0.1373,0.1488,0.1602,0.1692,0.1861,0.1975,3.3472,3.2931,3.2812,3.2512,3.2005,3.1428,3.1123,3.1078,3.1035,3.0995,3.1012,3.1012,3.0463,2.9578,2.9235,2.8619,2.7746,2.7328,2.6705,2.5918,2.5493,2.5166,2.497,2.4766,2.4584,2.4328,2.3769,2.3209,2.2782,2.2025,2.1245,2.0601,2.038,1.9922,1.9233,1.9103,1.8911,1.8669,1.8615,1.8517,1.826,1.7474,1.7032,1.705,1.7014,1.6977,1.6922,1.6798,1.6917,1.7298,1.7112,1.7123,1.7456,1.7199,1.6955,1.6871,1.6659,1.6445,1.6262,1.6151,1.5998,1.5812,1.5635,1.5378,1.5062,1.4777,1.4389,1.3948,1.3994,1.3905,1.3779,1.307,1.2344,1.1637,1.1098,1.0525,0.9987,0.9663,0.9251,0.8763,0.7986,0.7127,0.6317,0.5327,0.4515,0.4056,0.3675,0.3369,0.3233,0.2923,0.2593,0.2462,0.2304,0.2237,0.2284,0.2156,0.1969,0.1724,0.1446,0.1265,0.1152,0.112,0.1105,0.1092,0.1186,0.1232,0.1203,0.1227,0.1308,0.1332,0.1433,0.1591,0.1655,0.1843,0.1931,3.4046,3.3325,3.2761,3.2187,3.1462,3.1527,3.1194,3.0655,3.0547,3.0547,3.0547,3.0547,3.0456,3.0232,2.9792,2.9146,2.8216,2.7358,2.6779,2.6382,2.5512,2.4902,2.463,2.4426,2.4234,2.403,2.3806,2.3242,2.2382,2.2039,2.1513,2.0809,2.0647,2.025,1.9616,1.934,1.891,1.8464,1.8337,1.8183,1.8042,1.7887,1.7805,1.779,1.7898,1.7745,1.7612,1.7612,1.7484,1.7209,1.7141,1.7021,1.6774,1.6616,1.6371,1.6098,1.6044,1.5923,1.568,1.5568,1.5468,1.5312,1.4994,1.4674,1.4466,1.4082,1.3536,1.2708,1.2341,1.2223,1.2348,1.1874,1.1145,1.0299,0.9773,0.9291,0.8869,0.833,0.7967,0.7521,0.6738,0.5791,0.4641,0.405,0.3582,0.3181,0.2882,0.2662,0.2415,0.2105,0.1904,0.1815,0.1658,0.1524,0.1748,0.1746,0.1567,0.1323,0.1136,0.1047,0.0988,0.0934,0.0925,0.0952,0.1034,0.1067,0.1064,0.1135,0.1244,0.1323,0.1393,0.151,0.1599,0.1773,0.185,3.4005,3.3795,3.3215,3.2829,3.2603,3.1785,3.1259,3.1039,3.0497,3.0274,3.0189,3.0189,3.0108,2.9989,2.9804,2.9298,2.8608,2.8229,2.7626,2.6793,2.5863,2.5285,2.4987,2.4313,2.3861,2.3704,2.3553,2.3135,2.2547,2.2302,2.1808,2.1121,2.0956,2.0559,1.997,1.9773,1.9384,1.8762,1.8639,1.8289,1.7754,1.7618,1.7494,1.7323,1.7509,1.7509,1.7263,1.7131,1.6942,1.6744,1.6454,1.6247,1.6117,1.5879,1.5637,1.5446,1.5424,1.5345,1.5187,1.5051,1.496,1.4846,1.4477,1.415,1.3858,1.3457,1.2932,1.2344,1.15,1.0986,1.0447,1.0126,0.9617,0.8879,0.8273,0.7715,0.7188,0.6806,0.6478,0.5949,0.5188,0.4269,0.3606,0.3085,0.2735,0.2411,0.2079,0.1858,0.1724,0.1523,0.1321,0.1232,0.1142,0.1053,0.0943,0.1188,0.1187,0.092,0.0712,0.0643,0.0591,0.0672,0.0701,0.0715,0.0811,0.095,0.0962,0.1037,0.1154,0.1291,0.1377,0.1433,0.1524,0.1673,0.1721,3.3899,3.3894,3.3517,3.3267,3.3048,3.2129,3.1476,3.1081,3.0548,3.0119,2.9891,2.9836,2.9738,2.9649,2.9592,2.9307,2.8854,2.8651,2.8088,2.7168,2.6314,2.5626,2.5077,2.4368,2.3732,2.3327,2.3053,2.2768,2.2486,2.2301,2.189,2.1375,2.1232,2.0836,2.0251,2.0088,1.9712,1.9092,1.8744,1.8225,1.7613,1.7324,1.7057,1.6748,1.6854,1.6871,1.6731,1.6539,1.6358,1.6163,1.5766,1.5534,1.54,1.5153,1.4983,1.488,1.4857,1.4777,1.464,1.4523,1.443,1.4291,1.3975,1.3668,1.3338,1.2905,1.2419,1.1749,1.0857,0.9867,0.8982,0.8453,0.7997,0.7458,0.6868,0.6316,0.578,0.5449,0.499,0.4385,0.3664,0.2978,0.249,0.2131,0.1862,0.1628,0.1288,0.1098,0.1052,0.0919,0.0784,0.0695,0.065,0.0515,0.0404,0.0493,0.0693,0.0492,0.0423,0.0342,0.0304,0.0416,0.0474,0.0507,0.0608,0.0768,0.0895,0.0953,0.1076,0.1235,0.1308,0.1366,0.1466,0.1555,0.1588,3.3646,3.363,3.3678,3.3223,3.2679,3.2439,3.1742,3.0669,3.0453,3.0044,2.9557,2.9518,2.9434,2.9328,2.9305,2.912,2.8801,2.8397,2.8039,2.761,2.6747,2.581,2.4995,2.4507,2.3761,2.2896,2.2449,2.2231,2.2161,2.1949,2.1752,2.1694,2.1438,2.1019,2.0481,2.0318,1.9864,1.9182,1.8636,1.8127,1.7679,1.7174,1.6692,1.6244,1.6088,1.6066,1.6156,1.5923,1.57,1.5479,1.5221,1.4937,1.4639,1.4477,1.4373,1.4396,1.4373,1.4257,1.4057,1.3986,1.3892,1.3668,1.3478,1.3228,1.2856,1.2476,1.1889,1.0979,1.0052,0.9081,0.7967,0.7202,0.6623,0.6194,0.5739,0.5273,0.4835,0.4281,0.3607,0.2909,0.2364,0.1872,0.1466,0.121,0.0968,0.0784,0.0599,0.045,0.0426,0.0314,0.0202,0.018,0.0178,0.0088,-0.0067,-0.0179,0.0,0.0111,0.0133,0.013,0.012,0.0173,0.0278,0.0311,0.051,0.0674,0.0838,0.0914,0.1022,0.1155,0.1219,0.1296,0.1374,0.1452,0.1477,3.2282,3.272,3.2822,3.2761,3.249,3.2077,3.1374,3.0542,3.0039,2.9649,2.9382,2.9275,2.9167,2.9036,2.8975,2.8826,2.8558,2.8364,2.8263,2.7982,2.7115,2.643,2.5848,2.4675,2.3496,2.2534,2.2184,2.1973,2.1797,2.1643,2.1482,2.1375,2.1218,2.0988,2.0702,2.0616,2.0195,1.9398,1.913,1.8469,1.736,1.6963,1.649,1.5784,1.54,1.5198,1.5119,1.513,1.504,1.4766,1.4489,1.4221,1.3975,1.3881,1.3847,1.3858,1.3858,1.3787,1.361,1.3491,1.3396,1.3194,1.3021,1.2779,1.2452,1.2017,1.1466,1.0681,0.9776,0.8746,0.7832,0.6748,0.5955,0.5425,0.4905,0.4357,0.3764,0.3034,0.2442,0.2018,0.154,0.1104,0.0752,0.0472,0.0255,0.0097,-0.0094,-0.0231,-0.0181,-0.0202,-0.027,-0.0247,-0.0265,-0.0238,-0.0347,-0.0409,-0.0339,-0.0191,-0.0127,-0.0105,-0.0098,-0.0038,0.0054,0.0208,0.0396,0.0575,0.0743,0.0879,0.0985,0.1059,0.1127,0.1208,0.1285,0.1319,0.133,3.1325,3.1728,3.183,3.1855,3.1849,3.144,3.0934,3.0275,2.9769,2.9351,2.9069,2.8889,2.8771,2.8637,2.8597,2.8444,2.825,2.8201,2.8137,2.8042,2.7472,2.6881,2.6229,2.4737,2.3587,2.2909,2.2557,2.2361,2.2201,2.1924,2.168,2.1406,2.119,2.0907,2.0624,2.0497,2.0115,1.9472,1.9194,1.851,1.746,1.6787,1.6196,1.5522,1.4936,1.4512,1.4267,1.4258,1.4212,1.4059,1.38,1.3539,1.3368,1.3344,1.3344,1.3344,1.3344,1.3286,1.3142,1.306,1.2939,1.2817,1.2642,1.2406,1.2076,1.1619,1.1116,1.0423,0.9529,0.8565,0.7616,0.6482,0.5469,0.461,0.415,0.3478,0.2651,0.1871,0.1317,0.0969,0.0616,0.0305,-0.0027,-0.024,-0.042,-0.0551,-0.0702,-0.0806,-0.0714,-0.0703,-0.0677,-0.0672,-0.0665,-0.0651,-0.0592,-0.0599,-0.0621,-0.0519,-0.042,-0.0373,-0.0357,-0.0222,-0.0126,0.0121,0.0313,0.0499,0.065,0.0813,0.0936,0.0986,0.1026,0.105,0.1094,0.1161,0.1172,3.0697,3.0729,3.0744,3.077,3.0779,3.0732,3.0351,2.977,2.9564,2.9157,2.869,2.8493,2.8332,2.8235,2.821,2.8088,2.798,2.7855,2.7715,2.7615,2.7394,2.6885,2.5799,2.4654,2.3909,2.3557,2.3222,2.3041,2.2854,2.2498,2.222,2.1694,2.1329,2.09,2.0348,2.0067,1.9759,1.9285,1.884,1.8292,1.7629,1.6589,1.5818,1.5391,1.4579,1.3965,1.3658,1.3362,1.3314,1.3467,1.3204,1.2997,1.2895,1.2881,1.2881,1.2881,1.2871,1.2774,1.27,1.2642,1.2569,1.2421,1.2274,1.2076,1.1678,1.1242,1.071,1.0017,0.9228,0.8365,0.73,0.6202,0.5046,0.3916,0.3285,0.2569,0.1488,0.0932,0.0508,0.0,-0.0335,-0.0532,-0.0809,-0.0981,-0.1099,-0.1127,-0.1179,-0.1195,-0.1156,-0.1109,-0.1085,-0.1049,-0.0972,-0.094,-0.0849,-0.0817,-0.0829,-0.0708,-0.0616,-0.0591,-0.0526,-0.0396,-0.0232,0.0017,0.0232,0.0407,0.0567,0.0729,0.0825,0.0864,0.088,0.0881,0.0916,0.0987,0.095,2.9606,3.0051,3.0067,3.0067,3.0067,3.0067,2.9628,2.8955,2.8892,2.8718,2.8436,2.821,2.8073,2.8024,2.7825,2.769,2.7579,2.7514,2.7376,2.717,2.7067,2.635,2.5419,2.4771,2.4084,2.3441,2.3098,2.2778,2.2657,2.2356,2.2008,2.1815,2.1174,2.0641,2.02,1.9749,1.9302,1.8854,1.8522,1.7941,1.7141,1.6268,1.5507,1.4879,1.3993,1.3396,1.3122,1.2672,1.2559,1.2886,1.274,1.2608,1.2578,1.2505,1.2455,1.2431,1.2357,1.2258,1.215,1.2126,1.2051,1.1918,1.1794,1.1569,1.1276,1.0735,1.0198,0.9569,0.8916,0.8125,0.7167,0.6081,0.4707,0.3013,0.2328,0.177,0.1034,0.0425,-0.0052,-0.0456,-0.0828,-0.1063,-0.1231,-0.1418,-0.1588,-0.1553,-0.154,-0.152,-0.1466,-0.1347,-0.1273,-0.1159,-0.1111,-0.1109,-0.1087,-0.1063,-0.0999,-0.0877,-0.0798,-0.075,-0.0656,-0.0517,-0.0308,-0.0084,0.0168,0.0354,0.0498,0.0661,0.0713,0.0736,0.0774,0.0778,0.0796,0.0828,0.0723,2.8748,2.9039,2.9039,2.9039,2.9039,2.9039,2.8774,2.8394,2.8284,2.8186,2.8039,2.784,2.7675,2.7575,2.7412,2.7258,2.713,2.7089,2.6985,2.6777,2.6474,2.5912,2.5254,2.4887,2.4354,2.3714,2.3262,2.3065,2.2922,2.2541,2.2185,2.1832,2.1309,2.0618,1.9799,1.9543,1.8976,1.8336,1.8034,1.7575,1.6863,1.5828,1.5179,1.4494,1.3575,1.2817,1.2525,1.2141,1.2076,1.2274,1.2224,1.215,1.215,1.2051,1.1977,1.1952,1.1852,1.1728,1.1669,1.1653,1.1569,1.1444,1.1318,1.1091,1.071,1.0223,0.9725,0.9178,0.8468,0.7691,0.6763,0.5514,0.3898,0.2342,0.1552,0.104,0.0524,-0.0025,-0.0537,-0.0981,-0.1317,-0.157,-0.1654,-0.185,-0.1917,-0.1884,-0.1825,-0.1775,-0.1721,-0.1567,-0.147,-0.1403,-0.1378,-0.1422,-0.1363,-0.1307,-0.1198,-0.1075,-0.0946,-0.0893,-0.0723,-0.0589,-0.0387,-0.0151,0.0084,0.0282,0.0415,0.0523,0.0567,0.0601,0.0655,0.0664,0.065,0.0578,0.0474,2.8103,2.798,2.798,2.798,2.805,2.801,2.8025,2.792,2.7815,2.769,2.7549,2.7412,2.7207,2.6937,2.6896,2.6791,2.6645,2.6748,2.6656,2.6429,2.6075,2.5605,2.5135,2.4813,2.446,2.4063,2.3738,2.3437,2.3158,2.2875,2.2418,2.1858,2.1564,2.0686,1.9653,1.9219,1.8609,1.7751,1.7385,1.7056,1.6416,1.5437,1.4673,1.4208,1.3127,1.2302,1.1943,1.1694,1.1678,1.1753,1.1703,1.1703,1.1653,1.1528,1.1444,1.1393,1.1301,1.1226,1.1192,1.1167,1.1116,1.0972,1.0812,1.0582,1.0146,0.9718,0.9223,0.8672,0.7925,0.7058,0.5982,0.4435,0.3009,0.1815,0.1088,0.0523,-0.0024,-0.0496,-0.1028,-0.1646,-0.1814,-0.2012,-0.2156,-0.224,-0.2238,-0.2163,-0.2075,-0.2008,-0.1957,-0.1852,-0.1776,-0.1732,-0.1743,-0.177,-0.1671,-0.1551,-0.14,-0.126,-0.1098,-0.0977,-0.0774,-0.0606,-0.042,-0.0202,-0.0017,0.0149,0.0305,0.0371,0.0436,0.0454,0.0483,0.0463,0.0429,0.0308,0.0189,2.8005,2.798,2.798,2.793,2.784,2.784,2.773,2.7529,2.7503,2.735,2.7144,2.6989,2.6817,2.6578,2.6406,2.6286,2.6304,2.6536,2.6624,2.6342,2.6157,2.5413,2.4744,2.4434,2.4218,2.3839,2.3318,2.2987,2.2744,2.2408,2.2032,2.1827,2.1167,2.0361,1.951,1.8746,1.7966,1.709,1.6599,1.6228,1.5774,1.4912,1.416,1.3662,1.2607,1.1888,1.1477,1.1301,1.115,1.1099,1.1276,1.1343,1.1217,1.1065,1.0964,1.0863,1.0744,1.0675,1.0641,1.0531,1.0429,1.0352,1.0061,0.9795,0.9569,0.9066,0.854,0.7984,0.7364,0.6303,0.4847,0.3627,0.2445,0.146,0.0683,0.0,-0.0683,-0.103,-0.1447,-0.195,-0.2304,-0.2523,-0.2577,-0.2577,-0.2547,-0.2434,-0.233,-0.2216,-0.217,-0.2118,-0.2072,-0.2022,-0.202,-0.2023,-0.19,-0.176,-0.1585,-0.1417,-0.1257,-0.1098,-0.0891,-0.0714,-0.0563,-0.0356,-0.0134,0.0016,0.0146,0.0277,0.0352,0.0326,0.0301,0.0238,0.0162,0.0043,-0.0087,2.768,2.763,2.7615,2.759,2.7499,2.7437,2.735,2.7222,2.7104,2.6907,2.6698,2.6592,2.6392,2.6123,2.5892,2.5743,2.5786,2.6146,2.6207,2.5902,2.5697,2.5169,2.4393,2.3866,2.3543,2.3318,2.2848,2.2482,2.2235,2.1882,2.1588,2.1411,2.0859,1.9975,1.9017,1.8325,1.7427,1.637,1.5777,1.54,1.5002,1.4257,1.3366,1.2699,1.1903,1.1343,1.1049,1.0947,1.0718,1.0531,1.0633,1.0786,1.0684,1.0565,1.0437,1.03,1.0146,1.0043,0.9966,0.9836,0.9681,0.9536,0.923,0.8909,0.8593,0.815,0.7637,0.702,0.6308,0.5351,0.3705,0.279,0.1851,0.0934,0.0191,-0.0541,-0.1226,-0.1489,-0.1755,-0.2248,-0.2604,-0.2783,-0.2854,-0.2912,-0.28,-0.2717,-0.2577,-0.2489,-0.2415,-0.2362,-0.2319,-0.2298,-0.228,-0.2243,-0.2118,-0.1966,-0.1754,-0.1562,-0.1375,-0.1225,-0.105,-0.0897,-0.0747,-0.0514,-0.0269,-0.0151,-0.0017,0.0117,0.0184,0.0147,0.008,0.0,-0.0125,-0.0281,-0.0408,2.7284,2.7192,2.7192,2.7181,2.713,2.6989,2.6925,2.6858,2.6671,2.6431,2.6229,2.6176,2.592,2.5578,2.5328,2.5202,2.5305,2.5501,2.5563,2.5279,2.527,2.4697,2.3984,2.3304,2.2825,2.2659,2.2266,2.1987,2.1694,2.14,2.1051,2.0784,2.0495,1.9518,1.834,1.78,1.6941,1.5586,1.5021,1.4628,1.4293,1.3594,1.2777,1.1873,1.1214,1.0854,1.0608,1.048,1.0334,0.9947,0.987,0.9888,0.9914,0.994,0.981,0.9666,0.951,0.9387,0.923,0.9047,0.8837,0.8613,0.8276,0.7963,0.753,0.7095,0.6583,0.5873,0.5105,0.4003,0.2623,0.1845,0.1064,0.0196,-0.0504,-0.1148,-0.1726,-0.1989,-0.2347,-0.2645,-0.2943,-0.3128,-0.3188,-0.3216,-0.3107,-0.297,-0.2858,-0.2768,-0.269,-0.2614,-0.257,-0.2554,-0.257,-0.2399,-0.2289,-0.2174,-0.1973,-0.1775,-0.1555,-0.1391,-0.1225,-0.1063,-0.09,-0.0649,-0.0437,-0.0336,-0.0252,-0.0168,-0.0134,-0.0118,-0.02,-0.0343,-0.0493,-0.0621,-0.0737,2.7207,2.7192,2.7192,2.7078,2.6858,2.6671,2.6513,2.6379,2.6165,2.5934,2.5797,2.5605,2.5342,2.4991,2.4751,2.4776,2.4919,2.5037,2.4936,2.4722,2.4712,2.428,2.317,2.2684,2.2222,2.1765,2.1494,2.1305,2.1063,2.0722,2.041,2.0139,1.9694,1.872,1.7633,1.6944,1.6067,1.4827,1.4252,1.3872,1.3485,1.3057,1.2404,1.1459,1.0751,1.0345,1.0095,0.9906,0.9699,0.9491,0.9297,0.908,0.8995,0.9152,0.9133,0.8975,0.8804,0.8672,0.8494,0.815,0.7898,0.7652,0.723,0.6853,0.6524,0.6032,0.5406,0.4604,0.3528,0.2312,0.148,0.0838,0.014,-0.0616,-0.1203,-0.1764,-0.243,-0.2832,-0.309,-0.3309,-0.3425,-0.3471,-0.3524,-0.3522,-0.3411,-0.3274,-0.3135,-0.3079,-0.3065,-0.295,-0.283,-0.2826,-0.283,-0.2629,-0.2434,-0.2338,-0.2204,-0.2023,-0.1808,-0.158,-0.1418,-0.1241,-0.1037,-0.0843,-0.0691,-0.0589,-0.0522,-0.0471,-0.0454,-0.0454,-0.0589,-0.0724,-0.0824,-0.0925,-0.1076,2.6933,2.6855,2.6841,2.6671,2.6433,2.6272,2.6096,2.5975,2.5674,2.5425,2.523,2.5034,2.4738,2.445,2.4261,2.4223,2.4176,2.4298,2.4177,2.4029,2.3903,2.3548,2.2455,2.2022,2.144,2.0948,2.0635,2.0528,2.0431,2.0053,1.9639,1.917,1.8629,1.7695,1.6609,1.5833,1.4954,1.4008,1.3398,1.3003,1.2665,1.2249,1.156,1.0929,1.0359,0.9932,0.9591,0.942,0.9204,0.8995,0.8824,0.8494,0.8276,0.8143,0.8223,0.8176,0.8037,0.7818,0.761,0.7182,0.6858,0.6583,0.6068,0.566,0.53,0.4749,0.3972,0.2977,0.2114,0.0976,0.0251,-0.0307,-0.0923,-0.1593,-0.2068,-0.2571,-0.313,-0.3522,-0.3771,-0.3941,-0.3885,-0.3885,-0.3888,-0.383,-0.3716,-0.3574,-0.3411,-0.338,-0.3408,-0.3244,-0.3107,-0.3137,-0.3107,-0.2939,-0.277,-0.2688,-0.254,-0.2343,-0.2135,-0.1888,-0.1665,-0.1542,-0.1341,-0.1132,-0.0984,-0.0944,-0.086,-0.0843,-0.0825,-0.0845,-0.0985,-0.1108,-0.1148,-0.1244,-0.1436,2.6606,2.6457,2.6431,2.6258,2.6002,2.5811,2.5674,2.5481,2.5146,2.4821,2.4593,2.4363,2.4131,2.3868,2.3628,2.3428,2.3115,2.3263,2.3175,2.2941,2.2799,2.2509,2.1888,2.1352,2.0695,2.0259,1.9769,1.9594,1.9748,1.9353,1.8783,1.8168,1.7484,1.65,1.5442,1.4642,1.3853,1.3009,1.2382,1.195,1.1627,1.1079,1.0525,1.0092,0.9799,0.937,0.9016,0.8811,0.8653,0.8468,0.8282,0.8017,0.7616,0.7262,0.7155,0.7208,0.7128,0.6934,0.661,0.6172,0.5769,0.5437,0.4862,0.4426,0.3871,0.3143,0.22,0.1089,0.0335,-0.0307,-0.1005,-0.1453,-0.2009,-0.2623,-0.307,-0.3405,-0.3852,-0.4215,-0.4463,-0.4494,-0.4356,-0.4273,-0.4273,-0.427,-0.4184,-0.3882,-0.3716,-0.3719,-0.3688,-0.3491,-0.3355,-0.3416,-0.3388,-0.3246,-0.316,-0.314,-0.2968,-0.275,-0.2563,-0.2351,-0.2107,-0.1882,-0.1685,-0.1559,-0.1499,-0.1437,-0.1326,-0.1255,-0.1298,-0.136,-0.1448,-0.1529,-0.1605,-0.1746,-0.1928,2.6326,2.6313,2.6192,2.6002,2.5688,2.5425,2.5146,2.4863,2.4421,2.4105,2.3901,2.3645,2.336,2.306,2.2757,2.2408,2.2173,2.2097,2.1961,2.1641,2.1661,2.1367,2.0783,2.072,2.0115,1.9592,1.9075,1.9042,1.8934,1.8533,1.7955,1.7206,1.6259,1.5375,1.4151,1.3378,1.2593,1.1691,1.1243,1.0892,1.0512,1.0008,0.9631,0.9259,0.8893,0.8566,0.8312,0.8123,0.7984,0.7931,0.7729,0.7461,0.7139,0.6642,0.6186,0.605,0.605,0.6154,0.5719,0.5195,0.467,0.4226,0.3564,0.2982,0.2312,0.1449,0.0474,-0.0363,-0.1006,-0.1619,-0.2287,-0.2788,-0.3287,-0.3674,-0.4067,-0.4374,-0.4708,-0.4846,-0.5097,-0.5156,-0.5042,-0.4767,-0.4625,-0.4653,-0.4625,-0.4294,-0.4049,-0.4052,-0.4024,-0.3855,-0.3633,-0.3694,-0.3694,-0.358,-0.3494,-0.3484,-0.3365,-0.3164,-0.3049,-0.2847,-0.2597,-0.2356,-0.2229,-0.2122,-0.2051,-0.1996,-0.1928,-0.188,-0.1856,-0.191,-0.2013,-0.2052,-0.2107,-0.2261,-0.2411,2.5784,2.5948,2.5797,2.5508,2.5174,2.4893,2.458,2.4234,2.3855,2.3531,2.3275,2.2944,2.2622,2.2304,2.2087,2.1808,2.1482,2.125,2.0996,2.0677,2.0642,2.038,1.9987,1.9696,1.9277,1.8846,1.8259,1.7706,1.7639,1.7302,1.6792,1.5896,1.4827,1.3827,1.2861,1.1976,1.121,1.0523,0.9983,0.95,0.9186,0.891,0.863,0.8228,0.7949,0.7705,0.7491,0.7408,0.7268,0.7187,0.6972,0.6761,0.6408,0.5914,0.5422,0.5038,0.4842,0.4787,0.4625,0.4125,0.3624,0.3093,0.2399,0.1618,0.0697,-0.0195,-0.1033,-0.1758,-0.24,-0.2956,-0.3456,-0.3926,-0.434,-0.4701,-0.5003,-0.5226,-0.5449,-0.5508,-0.5645,-0.5704,-0.5704,-0.5426,-0.5148,-0.5066,-0.5011,-0.4708,-0.4543,-0.4543,-0.4519,-0.4436,-0.4187,-0.3971,-0.3944,-0.3916,-0.383,-0.3785,-0.3721,-0.3618,-0.367,-0.3435,-0.3101,-0.2889,-0.2789,-0.2706,-0.2667,-0.2592,-0.2531,-0.2405,-0.231,-0.2424,-0.2581,-0.2646,-0.2719,-0.2761,-0.2873,2.5048,2.5231,2.5189,2.4964,2.4593,2.435,2.3946,2.3488,2.316,2.2854,2.2561,2.2192,2.1839,2.1608,2.1388,2.1103,2.0688,2.0474,2.0204,1.9987,1.9758,1.9517,1.9185,1.8805,1.8434,1.7978,1.7218,1.6645,1.6056,1.5595,1.5015,1.4579,1.3361,1.2394,1.155,1.0629,0.9767,0.9064,0.8441,0.7989,0.7733,0.765,0.7369,0.7121,0.6933,0.6776,0.6564,0.6566,0.6463,0.6376,0.6213,0.6023,0.5727,0.523,0.4732,0.4291,0.3959,0.3547,0.3378,0.2989,0.2569,0.1983,0.1144,0.0112,-0.092,-0.1704,-0.2345,-0.3067,-0.3591,-0.4091,-0.4563,-0.5003,-0.5336,-0.5609,-0.5855,-0.6055,-0.6191,-0.6218,-0.6191,-0.6196,-0.6196,-0.6055,-0.5805,-0.5591,-0.5395,-0.5093,-0.5038,-0.5034,-0.4983,-0.4928,-0.4712,-0.4436,-0.4384,-0.4356,-0.4245,-0.4162,-0.4104,-0.4061,-0.411,-0.3978,-0.3618,-0.3455,-0.335,-0.3298,-0.3265,-0.3347,-0.3379,-0.3054,-0.2776,-0.3026,-0.3235,-0.3286,-0.3344,-0.3384,-0.337,2.4076,2.3962,2.4352,2.4366,2.4102,2.3679,2.3173,2.2659,2.2218,2.1951,2.1671,2.1285,2.0955,2.072,2.056,2.0237,1.9726,1.9671,1.9407,1.9108,1.8841,1.8707,1.8405,1.81,1.7687,1.7114,1.6253,1.5403,1.4527,1.3478,1.3416,1.344,1.2029,1.1164,1.0232,0.9215,0.8205,0.7465,0.6813,0.649,0.6278,0.6145,0.596,0.5796,0.5739,0.568,0.5454,0.5532,0.5618,0.5559,0.5391,0.5254,0.4983,0.4512,0.4015,0.3627,0.313,0.2659,0.2238,0.2014,0.1593,0.0838,-0.0195,-0.1311,-0.2232,-0.2843,-0.3539,-0.4208,-0.4725,-0.5191,-0.5605,-0.6018,-0.6317,-0.648,-0.6669,-0.681,-0.6891,-0.6815,-0.6788,-0.6766,-0.6685,-0.6571,-0.6485,-0.629,-0.5914,-0.5609,-0.5504,-0.5504,-0.5418,-0.5336,-0.5171,-0.5007,-0.4928,-0.4846,-0.4715,-0.4656,-0.4656,-0.4607,-0.4599,-0.4378,-0.4076,-0.3989,-0.3978,-0.3913,-0.39,-0.405,-0.415,-0.3896,-0.3729,-0.381,-0.3893,-0.3915,-0.3899,-0.3907,-0.3904,2.3297,2.2761,2.2774,2.3018,2.3305,2.2798,2.231,2.1839,2.1463,2.1071,2.0687,2.0484,2.0237,2.0009,1.9922,1.9551,1.8988,1.8911,1.862,1.8361,1.8158,1.7988,1.7681,1.7204,1.6693,1.5867,1.5002,1.4138,1.3146,1.1893,1.1214,1.091,1.032,0.9754,0.8823,0.7627,0.6519,0.5829,0.5239,0.4875,0.4799,0.4532,0.4338,0.4284,0.4202,0.4188,0.4125,0.4374,0.4457,0.4457,0.4315,0.4263,0.4153,0.3683,0.3294,0.2935,0.2434,0.1875,0.1345,0.112,0.0699,-0.0586,-0.1591,-0.2514,-0.3322,-0.3929,-0.456,-0.5167,-0.5719,-0.6154,-0.6534,-0.6939,-0.7235,-0.7343,-0.7429,-0.7563,-0.7563,-0.7461,-0.7381,-0.7327,-0.7219,-0.7133,-0.7047,-0.6993,-0.6561,-0.6154,-0.605,-0.5941,-0.5909,-0.5855,-0.5719,-0.5637,-0.5559,-0.5473,-0.5367,-0.5317,-0.5262,-0.5182,-0.5071,-0.4859,-0.4648,-0.4686,-0.4663,-0.4589,-0.4535,-0.4652,-0.4717,-0.4681,-0.4608,-0.4478,-0.4461,-0.45,-0.446,-0.441,-0.4366,2.2075,2.1397,2.1086,2.1421,2.203,2.1554,2.1096,2.0687,2.027,1.984,1.9426,1.9329,1.9275,1.9165,1.8989,1.8839,1.8402,1.824,1.7944,1.7716,1.7442,1.7161,1.6743,1.6179,1.5463,1.4502,1.3572,1.2695,1.1848,1.0586,0.9703,0.8991,0.838,0.7857,0.7377,0.5961,0.4746,0.4181,0.3713,0.329,0.3191,0.2876,0.2772,0.2741,0.2697,0.2749,0.2847,0.3067,0.3236,0.3267,0.3267,0.3241,0.31,0.2877,0.2545,0.2183,0.1764,0.1259,0.0784,0.0224,-0.042,-0.1676,-0.2539,-0.3405,-0.4184,-0.4901,-0.5445,-0.61,-0.662,-0.7025,-0.7354,-0.7702,-0.7883,-0.7937,-0.8076,-0.8182,-0.8156,-0.8076,-0.7963,-0.7883,-0.7803,-0.775,-0.7797,-0.7711,-0.7262,-0.6831,-0.6593,-0.6512,-0.6485,-0.6431,-0.6376,-0.6327,-0.625,-0.6164,-0.6046,-0.5996,-0.5887,-0.5721,-0.5604,-0.5424,-0.5288,-0.5302,-0.5225,-0.509,-0.5101,-0.5215,-0.5265,-0.5272,-0.5137,-0.4975,-0.4942,-0.4914,-0.4907,-0.484,-0.4792,2.0239,1.9737,1.9465,1.976,2.0268,1.9824,1.9396,1.9116,1.8637,1.8268,1.7989,1.7677,1.7818,1.8019,1.7853,1.7718,1.7643,1.7426,1.7129,1.6809,1.6428,1.6039,1.548,1.4883,1.4156,1.3176,1.2247,1.1382,1.052,0.9215,0.8186,0.7115,0.6305,0.5763,0.5928,0.4538,0.3445,0.2778,0.221,0.1812,0.1516,0.1248,0.1239,0.1239,0.1255,0.134,0.1507,0.176,0.1956,0.2153,0.2211,0.2266,0.238,0.2125,0.1846,0.1566,0.1148,0.0617,0.0028,-0.0783,-0.1732,-0.2597,-0.3375,-0.4153,-0.4956,-0.5645,-0.6241,-0.6837,-0.7295,-0.7708,-0.8029,-0.8321,-0.8448,-0.8573,-0.8712,-0.8771,-0.8712,-0.8659,-0.8547,-0.8488,-0.8441,-0.8415,-0.8521,-0.8435,-0.801,-0.7584,-0.7214,-0.7079,-0.7112,-0.7052,-0.6993,-0.6972,-0.6923,-0.6815,-0.6723,-0.6615,-0.6523,-0.6322,-0.6127,-0.5917,-0.5749,-0.5656,-0.5584,-0.555,-0.562,-0.5712,-0.5798,-0.5852,-0.5669,-0.548,-0.5328,-0.5265,-0.526,-0.5213,-0.5143,1.926,1.8536,1.8126,1.7842,1.7763,1.8202,1.8219,1.7955,1.7544,1.7243,1.7128,1.6857,1.6789,1.6872,1.6815,1.6644,1.6356,1.6257,1.596,1.5639,1.5179,1.4782,1.4271,1.3603,1.2785,1.1836,1.0883,0.9882,0.881,0.7759,0.6789,0.5694,0.4226,0.3507,0.3473,0.2743,0.1942,0.1169,0.0627,0.0259,0.0032,-0.0153,-0.0237,-0.0234,-0.0142,0.0,0.014,0.0419,0.0756,0.1036,0.112,0.1317,0.1429,0.1232,0.1064,0.0784,0.0364,-0.0308,-0.1259,-0.2207,-0.2959,-0.3541,-0.4122,-0.4897,-0.5746,-0.6376,-0.695,-0.7456,-0.7937,-0.8315,-0.8666,-0.8923,-0.9099,-0.9223,-0.9335,-0.9335,-0.9283,-0.9204,-0.9093,-0.9093,-0.9066,-0.9073,-0.9119,-0.9099,-0.8725,-0.8494,-0.815,-0.7889,-0.7836,-0.7691,-0.7605,-0.7605,-0.7557,-0.7482,-0.7375,-0.7289,-0.7115,-0.6881,-0.6621,-0.632,-0.6165,-0.6068,-0.6054,-0.6056,-0.612,-0.619,-0.619,-0.6169,-0.6126,-0.5997,-0.5782,-0.5604,-0.555,-0.548,-0.5379,1.7872,1.7254,1.6767,1.6271,1.5906,1.6626,1.682,1.6485,1.6106,1.593,1.5932,1.5778,1.5789,1.582,1.5741,1.5743,1.5362,1.513,1.4911,1.456,1.3916,1.3496,1.2986,1.2306,1.1301,1.0371,0.9491,0.8559,0.7508,0.6498,0.5229,0.373,0.2287,0.1679,0.1419,0.0929,0.0533,-0.0165,-0.0649,-0.1049,-0.1241,-0.1411,-0.1519,-0.1524,-0.1442,-0.1286,-0.1118,-0.0811,-0.0392,-0.0112,0.014,0.0364,0.0449,0.0421,0.0252,-0.0028,-0.0728,-0.1454,-0.2486,-0.3345,-0.4064,-0.4697,-0.5089,-0.5637,-0.6394,-0.7025,-0.7536,-0.8017,-0.8521,-0.887,-0.9185,-0.9439,-0.9647,-0.9777,-0.988,-0.9888,-0.9888,-0.9803,-0.9777,-0.9751,-0.9751,-0.9751,-0.9699,-0.9629,-0.9446,-0.929,-0.9106,-0.885,-0.8586,-0.8415,-0.827,-0.8243,-0.8196,-0.8096,-0.8017,-0.7963,-0.7745,-0.7459,-0.7172,-0.6901,-0.6721,-0.6646,-0.6619,-0.6553,-0.6553,-0.6532,-0.6474,-0.6432,-0.6389,-0.6297,-0.6142,-0.5992,-0.5836,-0.5685,-0.5534,1.6093,1.5806,1.5352,1.499,1.4775,1.5117,1.5059,1.4684,1.4375,1.4384,1.4506,1.4379,1.4568,1.4914,1.4693,1.4688,1.4772,1.4316,1.3991,1.3581,1.2927,1.2328,1.1589,1.085,0.9864,0.8858,0.7952,0.7219,0.6273,0.4987,0.3455,0.2045,0.1036,0.029,-0.0194,-0.0553,-0.0848,-0.132,-0.1649,-0.201,-0.2251,-0.2411,-0.2474,-0.2493,-0.2439,-0.2322,-0.2097,-0.1761,-0.1398,-0.1036,-0.0672,-0.042,-0.028,-0.0224,-0.0449,-0.098,-0.1873,-0.2734,-0.3511,-0.4312,-0.5164,-0.5823,-0.6122,-0.6534,-0.7047,-0.7691,-0.817,-0.86,-0.9028,-0.9335,-0.9621,-0.9888,-1.0128,-1.0283,-1.0437,-1.047,-1.0522,-1.0488,-1.048,-1.0454,-1.0437,-1.0385,-1.0249,-1.0154,-1.0043,-1.0017,-0.9862,-0.9758,-0.9446,-0.908,-0.8961,-0.889,-0.8837,-0.8732,-0.8653,-0.8521,-0.8294,-0.798,-0.7833,-0.7596,-0.74,-0.7179,-0.7088,-0.7009,-0.6927,-0.6851,-0.6793,-0.6687,-0.6602,-0.6511,-0.6398,-0.6147,-0.5927,-0.5728,-0.5599,1.5225,1.4971,1.4273,1.3932,1.3789,1.3367,1.3402,1.3786,1.3722,1.3752,1.3782,1.3631,1.3653,1.3796,1.3559,1.3529,1.3322,1.3057,1.2704,1.2228,1.1661,1.0923,1.0206,0.9459,0.8463,0.7524,0.6628,0.5783,0.467,0.3394,0.2182,0.0942,0.0031,-0.0718,-0.1251,-0.1727,-0.197,-0.2177,-0.2422,-0.2733,-0.2991,-0.3051,-0.3145,-0.32,-0.3132,-0.3023,-0.2882,-0.2462,-0.2071,-0.1706,-0.1399,-0.1175,-0.101,-0.1148,-0.1399,-0.2015,-0.2877,-0.3707,-0.4398,-0.525,-0.615,-0.6934,-0.7364,-0.7723,-0.8096,-0.8441,-0.889,-0.923,-0.9569,-0.9888,-1.0146,-1.0385,-1.059,-1.0744,-1.0879,-1.0947,-1.0972,-1.0998,-1.0989,-1.0972,-1.0955,-1.082,-1.0693,-1.0616,-1.0506,-1.0582,-1.0557,-1.0429,-1.0249,-0.9829,-0.9595,-0.9517,-0.9394,-0.9263,-0.9133,-0.8995,-0.8765,-0.8524,-0.8391,-0.8222,-0.7955,-0.7746,-0.7558,-0.739,-0.7209,-0.7125,-0.7083,-0.6963,-0.6793,-0.6708,-0.6575,-0.6297,-0.6019,-0.5841,-0.5707,1.4271,1.3947,1.325,1.2779,1.2424,1.1937,1.2006,1.2344,1.2634,1.2751,1.268,1.2685,1.2661,1.2633,1.258,1.246,1.2267,1.1924,1.1549,1.1094,1.028,0.9636,0.8928,0.8106,0.7053,0.6137,0.5217,0.4369,0.3194,0.1899,0.0647,-0.0216,-0.0946,-0.1392,-0.184,-0.2244,-0.2519,-0.2726,-0.2949,-0.3237,-0.3361,-0.3452,-0.3568,-0.358,-0.3522,-0.3441,-0.3332,-0.2826,-0.2519,-0.2184,-0.1931,-0.1708,-0.1681,-0.1931,-0.2402,-0.3047,-0.3821,-0.4591,-0.53,-0.6172,-0.7036,-0.7812,-0.8488,-0.8961,-0.9152,-0.938,-0.9588,-0.9829,-1.0146,-1.0462,-1.0693,-1.0905,-1.1074,-1.1226,-1.1301,-1.1343,-1.1393,-1.1444,-1.1427,-1.1402,-1.1301,-1.1141,-1.104,-1.0964,-1.0888,-1.0845,-1.082,-1.0786,-1.0633,-1.0377,-1.0198,-1.012,-0.994,-0.9784,-0.9629,-0.9472,-0.9287,-0.9112,-0.8973,-0.8789,-0.8529,-0.826,-0.8026,-0.7738,-0.7419,-0.7384,-0.7369,-0.7131,-0.6942,-0.687,-0.6777,-0.6544,-0.6266,-0.6019,-0.5906,1.3338,1.2837,1.2219,1.1513,1.0836,1.0785,1.0636,1.0415,1.0995,1.1323,1.1383,1.1583,1.1597,1.1517,1.1473,1.1402,1.1097,1.0691,1.0276,1.0033,0.9117,0.8336,0.7535,0.6724,0.5674,0.4611,0.3694,0.2891,0.1763,0.0573,-0.0511,-0.1403,-0.1604,-0.1904,-0.2277,-0.2474,-0.2628,-0.2658,-0.2967,-0.3256,-0.3477,-0.3583,-0.3608,-0.363,-0.3522,-0.3416,-0.3246,-0.2993,-0.274,-0.2436,-0.2268,-0.2043,-0.2322,-0.2794,-0.3322,-0.3959,-0.4708,-0.5496,-0.6253,-0.7117,-0.7966,-0.8712,-0.938,-0.9906,-1.0138,-1.0087,-1.019,-1.0446,-1.0786,-1.0939,-1.1116,-1.1276,-1.1402,-1.1553,-1.1644,-1.1744,-1.1852,-1.1828,-1.1769,-1.1728,-1.1578,-1.1444,-1.1318,-1.1242,-1.1141,-1.1049,-1.1049,-1.1074,-1.1023,-1.0845,-1.071,-1.0633,-1.0429,-1.0257,-1.0102,-0.9966,-0.9836,-0.9684,-0.9552,-0.9454,-0.9256,-0.8883,-0.8472,-0.8237,-0.8012,-0.7745,-0.7609,-0.7457,-0.7311,-0.711,-0.6989,-0.6796,-0.6557,-0.6306,-0.6105,1.1996,1.1716,1.1071,1.0372,0.9736,0.9688,0.9446,0.9059,0.8924,0.957,1.0415,1.0559,1.0523,1.0348,1.0182,1.0073,0.9831,0.9349,0.8837,0.8348,0.77,0.6915,0.6107,0.5243,0.4235,0.3234,0.2285,0.1322,0.0145,-0.0778,-0.1321,-0.1723,-0.2017,-0.2336,-0.2334,-0.2467,-0.2551,-0.2411,-0.251,-0.2782,-0.2944,-0.3047,-0.3102,-0.3072,-0.2963,-0.288,-0.271,-0.2545,-0.2322,-0.2127,-0.2352,-0.2519,-0.2852,-0.3541,-0.4067,-0.4591,-0.5473,-0.6344,-0.7149,-0.7945,-0.8791,-0.9503,-1.0131,-1.0625,-1.0863,-1.071,-1.0786,-1.1091,-1.1293,-1.1418,-1.1544,-1.1644,-1.1728,-1.1843,-1.1968,-1.2126,-1.2258,-1.2175,-1.2067,-1.1968,-1.1828,-1.1694,-1.1569,-1.1469,-1.1368,-1.1352,-1.1377,-1.1377,-1.1377,-1.1242,-1.1065,-1.0964,-1.0845,-1.0667,-1.0539,-1.0411,-1.0283,-1.0257,-1.0158,-1.0061,-0.9929,-0.9534,-0.9102,-0.8891,-0.8648,-0.8356,-0.8111,-0.8017,-0.7861,-0.7544,-0.7317,-0.7172,-0.6935,-0.6681,-0.6425,1.1043,1.0571,0.9889,0.9213,0.8664,0.8666,0.8388,0.7949,0.7652,0.7885,0.8521,0.895,0.914,0.8978,0.88,0.8633,0.8422,0.7951,0.7454,0.6902,0.6207,0.5419,0.4584,0.3743,0.2689,0.1705,0.0609,-0.0455,-0.1373,-0.1738,-0.2051,-0.2266,-0.2519,-0.2465,-0.2268,-0.2324,-0.224,-0.1959,-0.1877,-0.1875,-0.2069,-0.2209,-0.2291,-0.2291,-0.2235,-0.2179,-0.2068,-0.193,-0.1987,-0.2045,-0.2298,-0.2826,-0.3322,-0.4067,-0.4673,-0.5332,-0.615,-0.7128,-0.7871,-0.8659,-0.9503,-1.0182,-1.0753,-1.1217,-1.1569,-1.1469,-1.1519,-1.1778,-1.1719,-1.1819,-1.1993,-1.2126,-1.215,-1.2224,-1.2249,-1.2332,-1.2357,-1.2298,-1.2224,-1.2175,-1.2002,-1.1828,-1.1719,-1.1619,-1.1544,-1.1544,-1.1569,-1.1578,-1.1578,-1.1603,-1.1418,-1.1267,-1.1141,-1.1023,-1.0871,-1.0769,-1.0693,-1.0701,-1.0718,-1.0481,-1.0246,-1.0035,-0.977,-0.9455,-0.9182,-0.8905,-0.8712,-0.8568,-0.8254,-0.79,-0.7724,-0.759,-0.7343,-0.7104,-0.6903,1.0183,0.9425,0.8771,0.8182,0.767,0.7717,0.7456,0.6972,0.6745,0.6421,0.6251,0.7012,0.7298,0.7389,0.7299,0.7168,0.6886,0.631,0.586,0.5332,0.4736,0.3837,0.2978,0.2148,0.1119,0.0057,-0.1041,-0.1768,-0.2488,-0.2657,-0.2742,-0.2907,-0.277,-0.2549,-0.2268,-0.1959,-0.1736,-0.1344,-0.1092,-0.0701,-0.0924,-0.1259,-0.1314,-0.1341,-0.1314,-0.1286,-0.1202,-0.1259,-0.1428,-0.1877,-0.224,-0.2963,-0.3683,-0.4429,-0.5195,-0.5905,-0.6799,-0.7691,-0.8494,-0.9276,-1.0035,-1.0702,-1.1242,-1.1678,-1.2002,-1.2126,-1.2175,-1.22,-1.2175,-1.22,-1.2372,-1.2455,-1.2455,-1.2505,-1.2505,-1.2529,-1.2505,-1.2431,-1.2382,-1.2332,-1.215,-1.1977,-1.1877,-1.1778,-1.1744,-1.1719,-1.1719,-1.1719,-1.1728,-1.1728,-1.1644,-1.1519,-1.1418,-1.1276,-1.1175,-1.1124,-1.1074,-1.1099,-1.1065,-1.0806,-1.0573,-1.0474,-1.0261,-0.9946,-0.966,-0.9494,-0.9247,-0.9065,-0.87,-0.8347,-0.8208,-0.8065,-0.7749,-0.754,-0.7374,0.8904,0.8209,0.7955,0.7589,0.7219,0.6966,0.6615,0.6159,0.566,0.5273,0.4952,0.4632,0.4879,0.5565,0.5341,0.517,0.4908,0.4497,0.3978,0.3396,0.2958,0.2162,0.133,0.054,-0.0506,-0.1482,-0.2317,-0.2794,-0.3211,-0.3299,-0.3302,-0.3274,-0.2963,-0.2631,-0.2156,-0.1736,-0.1177,-0.07,-0.0168,0.0224,0.0476,0.0168,-0.0168,-0.0168,-0.0028,-0.0056,-0.0084,-0.0224,-0.0533,-0.1092,-0.2041,-0.2989,-0.3904,-0.4759,-0.555,-0.6421,-0.7364,-0.8243,-0.904,-0.9803,-1.0531,-1.1141,-1.1603,-1.1902,-1.2126,-1.2249,-1.2348,-1.2495,-1.2471,-1.2397,-1.2495,-1.2421,-1.2431,-1.2603,-1.2676,-1.2725,-1.2725,-1.2578,-1.2455,-1.2348,-1.2224,-1.2101,-1.2026,-1.1927,-1.1868,-1.1843,-1.1843,-1.1843,-1.1852,-1.1852,-1.1852,-1.1778,-1.1653,-1.1644,-1.1569,-1.1494,-1.1444,-1.1494,-1.146,-1.1222,-1.1064,-1.1006,-1.0781,-1.0474,-1.0343,-1.0208,-0.9959,-0.9589,-0.9296,-0.8961,-0.876,-0.8536,-0.8218,-0.7963,-0.7839]},{"header":{"parameterUnit":"m.s-1","parameterCategory":1,"la1":31.0,"la2":29.5877,"lo1":-88.7671,"lo2":-86.6584,"dy":0.0162,"dx":0.0185,"nx":115,"ny":88,"refTime":"2023-09-09T18:00:00:Z","depth":0,"parameterNumber":3,"parameterNumberName":"V-component_of_WINDS"},"data":[0.0,0.0,0.0,0.0,0.0,0.0,0.0,0.0,0.0,0.0,0.0,0.0,0.0,0.0,0.0,0.0,0.0,0.0,0.0,0.0,0.0,0.0,0.0,0.0,0.0,0.0,0.0,0.0,0.0,0.0,0.0,0.0,0.0,0.0,0.0,0.0,0.0,0.0,0.0,0.0,0.0,0.0,0.0,0.0,0.0,0.0,0.0,0.0,0.0,0.0,0.0,0.0,0.0,0.0,0.0,0.0,0.0,0.0,0.0,0.0,0.0,0.0,0.0,0.0,0.0,0.0,0.0,0.0,0.0,0.0,0.0,0.0,0.0,0.0,0.0,0.0,0.0,0.0,0.0,0.0,0.0,0.0,0.0,0.0,0.0,0.0,0.0,0.0,0.0,0.0,0.0,0.0,0.0,0.0,0.0,0.0,0.0,0.0,0.0,0.0,0.0,0.0,0.0,0.0,0.0,0.0,0.0,0.0,0.0,0.0,0.0,0.0,0.0,0.0,0.0,0.0,0.0,0.0,0.0,0.0,0.0,0.0,0.0,0.0,0.0,0.0,0.0,0.0,0.0,0.0,0.0,0.0,0.0,0.0,0.0,0.0,0.0,0.0,0.0,0.0,0.0,0.0,0.0,0.0,0.0,0.0,0.0,0.0,0.0,0.0,0.0,0.0,0.0,0.0,0.0,0.0,0.0,0.0,0.0,0.0,0.0,0.0,0.0,0.0,0.0,0.0,0.0,0.0,0.0,0.0,0.0,0.0,0.0,0.0,0.0,0.0,0.0,0.0,0.0,0.0,0.0,0.0,0.0,0.0,0.0,0.0,0.0,0.0,0.0,0.0,0.0,0.0,0.0,0.0,0.0,0.0,0.0,0.0,0.0,0.0,0.0,0.0,0.0,0.0,0.0,0.0,0.0,0.0,0.0,0.0,0.0,0.0,0.0,0.0,0.0,0.0,0.0,0.0,0.0,0.0,0.0,0.0,0.0,0.0,0.0,0.0,0.0,0.0,0.0,0.0,0.0,0.0,0.0,0.0,0.0,0.0,0.0,0.0,0.0,0.0,0.0,0.0,0.0,0.0,0.0,0.0,0.0,0.0,0.0,0.0,0.0,0.0,0.0,0.0,0.0,0.0,0.0,0.0,0.0,0.0,0.0,0.0,0.0,0.0,0.0,0.0,0.0,0.0,0.0,0.0,0.0,0.0,0.0,0.0,0.0,0.0,0.0,0.0,0.0,0.0,0.0,0.0,0.0,0.0,0.0,0.0,0.0,0.0,0.0,0.0,0.0,0.0,0.0,0.0,0.0,0.0,0.0,0.0,0.0,0.0,0.0,0.0,0.0,0.0,0.0,0.0,0.0,0.0,0.0,0.0,0.0,0.0,0.0,0.0,0.0,0.0,0.0,0.0,0.0,0.0,0.0,0.0,0.0,0.0,0.0,0.0,0.0,0.0,0.0,0.0,0.0,0.0,0.0,0.0,0.0,0.0,0.0,0.0,0.0,0.0,0.0,0.0,0.0,0.0,0.0,0.0,0.0,0.0,0.0,0.0,0.0,0.0,0.0,0.0,0.0,0.0,0.0,0.0,0.0,0.0,0.0,0.0,0.0,0.0,0.0,0.0,0.0,0.0,0.0,0.0,0.0,0.0,0.0,0.0,0.0,0.0,0.0,0.0,0.0,0.0,0.0,0.0,0.0,0.0,0.0,0.0,0.0,0.0,0.0,0.0,0.0,0.0,0.0,0.0,0.0,0.0,0.0,0.0,0.0,0.0,0.0,0.0,0.0,0.0,0.0,0.0,0.0,0.0,0.0,0.0,0.0,0.0,0.0,0.0,0.0,0.0,0.0,0.0,0.0,0.0,0.0,0.0,0.0,0.0,0.0,0.0,0.0,0.0,0.0,0.0,0.0,0.0,0.0,0.0,0.0,0.0,0.0,0.0,0.0,0.0,0.0,0.0,0.0,0.0,0.0,0.0,0.0,0.0,0.0,0.0,0.0,0.0,0.0,0.0,0.0,0.0,0.0,0.0,0.0,0.0,0.0,0.0,0.0,0.0,0.0,0.0,0.0,0.0,0.0,0.0,0.0,0.0,0.0,0.0,0.0,0.0,0.0,0.0,0.0,0.0,0.0,0.0,0.0,0.0,0.0,0.0,0.0,0.0,0.0,0.0,0.0,0.0,0.0,0.0,0.0,0.0,0.0,0.0,0.0,0.0,0.0,0.0,0.0,0.0,0.0,0.0,0.0,0.0,0.0,0.0,0.0,0.0,0.0,0.0,0.0,0.0,0.0,0.0,0.0,0.0,0.0,0.0,0.0,0.0,0.0,0.0,0.0,0.0,0.0,0.0,0.0,0.0,0.0,0.0,0.0,0.0,0.0,0.0,0.0,0.0,0.0,0.0,0.0,0.0,0.0,0.0,0.0,0.0,0.0,0.0,0.0,0.0,0.0,0.0,0.0,0.0,0.0,0.0,0.0,0.0,0.0,0.0,0.0,0.0,0.0,0.0,0.0,0.0,0.0,0.0,0.0,0.0,0.0,0.0,0.0,0.0,0.0,0.0,0.0,0.0,0.0,0.0,0.0,0.0,0.0,0.0,0.0,0.0,0.0,0.0,0.0,0.0,0.0,0.0,0.0,0.0,0.0,0.0,0.0,0.0,0.0,0.0,0.0,0.0,0.0,0.0,0.0,0.0,0.0,0.0,0.0,0.0,0.0,0.0,0.0,0.0,0.0,0.0,0.0,0.0,0.0,0.0,0.0,0.0,0.0,0.0,0.0,0.0,0.0,0.0,0.0,0.0,0.0,0.0,0.0,0.0,0.0,0.0,0.0,0.0,0.0,0.0,0.0,0.0,0.0,0.0,0.0,0.0,0.0,0.0,0.0,0.0,0.0,0.0,0.0,0.0,0.0,0.0,0.0,0.0,0.0,0.0,0.0,0.0,0.0,0.0,0.0,0.0,0.0,0.0,0.0,0.0,0.0,0.0,0.0,0.0,0.0,0.0,0.0,0.0,0.0,0.0,0.0,0.0,0.0,0.0,0.0,0.0,0.0,0.0,0.0,0.0,0.0,0.0,0.0,0.0,0.0,0.0,0.0,0.0,0.0,0.0,0.0,0.0,0.0,0.0,0.0,0.0,0.0,0.0,0.0,0.0,0.0,0.0,0.0,0.0,0.0,0.0,0.0,0.0,0.0,0.0,0.0,0.0,0.0,0.0,0.0,0.0,0.0,0.0,0.0,0.0,0.0,0.0,0.0,0.0,0.0,0.0,0.0,0.0,0.0,0.0,0.0,0.0,0.0,0.0,0.0,0.0,0.0,0.0,0.0,0.0,0.0,0.0,0.0,0.0,0.0,0.0,0.0,0.0,0.0,0.0,0.0,0.0,0.0,0.0,0.0,0.0,0.0,0.0,0.0,0.0,0.0,0.0,0.0,0.0,0.0,0.0,0.0,0.0,0.0,0.0,0.0,0.0,0.0,0.0,0.0,0.0,0.0,0.0,0.0,0.0,0.0,0.0,0.0,0.0,0.0,0.0,0.0,0.0,0.0,0.0,0.0,0.0,0.0,0.0,0.0,0.0,0.0,0.0,0.0,0.0,0.0,0.0,0.0,0.0,0.0,0.0,0.0,0.0,0.0,0.0,0.0,0.0,0.0,0.0,0.0,0.0,0.0,0.0,0.0,0.0,0.0,0.0,0.0,0.0,0.0,0.0,0.0,0.0,0.0,0.0,0.0,0.0,0.0,0.0,0.0,0.0,0.0,0.0,0.0,0.0,0.0,0.0,0.0,0.0,0.0,0.0,0.0,0.0,0.0,0.0,0.0,0.0,0.0,0.0,0.0,0.0,0.0,0.0,0.0,0.0,0.0,0.0,0.0,0.0,0.0,0.0,0.0,0.0,0.0,0.0,0.0,0.0,0.0,0.0,0.0,0.0,0.0,0.0,0.0,0.0,0.0,0.0,0.0,0.0,0.0,0.0,0.0,0.0,0.0,0.0,0.0,0.0,0.0,0.0,0.0,0.0,0.0,0.0,0.0,0.0,0.0,0.0,0.0,0.0,0.0,0.0,0.0,0.0,0.0,0.0,0.0,0.0,0.0,0.0,0.0,0.0,0.0,0.0,0.0,0.0,0.0,0.0,0.0,0.0,0.0,0.0,0.0,0.0,0.0,0.0,0.0,0.0,0.0,0.0,0.0,0.0,0.0,0.0,0.0,0.0,0.0,0.0,0.0,0.0,0.0,0.0,0.0,0.0,0.0,0.0,0.0,0.0,0.0,0.0,0.3809,0.0,0.0,0.0,0.0,0.0,0.0,0.0,0.0,0.0,0.0,0.0,0.0,0.0,0.0,0.0,0.0,0.0,0.0,0.0,0.0,0.0,0.0,0.0,0.0,0.0,0.0,0.0,0.0,0.0,0.0,0.0,0.0,0.0,0.0,0.0,0.0,0.0,0.0,0.0,0.0,0.0,0.0,0.0,0.0,0.0,0.0,0.0,0.0,0.0,0.0,0.0,0.0,0.0,0.0,0.0,0.0,0.0,0.0,0.0,0.0,0.0,0.0,0.0,0.0,0.0,0.0,0.0,0.0,0.0,0.0,0.0,0.0,0.0,0.0,0.0,0.0,0.0,0.0,0.0,0.0,0.0,0.0,0.0,0.0,0.0,0.0,0.0,0.0,0.0,0.0,0.0,0.0,0.0,0.0,0.0,0.0,0.0,0.0,0.0,0.0,0.0,0.0,0.0,0.0,0.0,0.0,0.0,0.0,0.0,0.0,0.2351,0.2795,0.306,0.3417,0.3886,0.0,0.0,0.0,0.0,0.0,0.0,0.0,0.0,0.0,0.0,0.0,0.0,0.0,0.0,0.0,0.0,0.0,0.0,0.0,0.0,0.0,0.0,0.0,0.0,0.0,0.0,0.0,0.0,0.0,0.0,0.0,0.0,0.0,0.0,0.0,0.0,0.0,0.0,0.0,0.0,0.0,0.0,0.0,0.0,0.0,0.0,0.0,0.0,0.0,0.0,0.0,0.0,0.0,0.0,0.0,0.0,0.0,0.0,0.0,0.0,0.0,0.0,0.0,0.0,0.0,0.0,0.0,0.0,0.0,0.0,0.0,0.0,0.0,0.0,0.0,0.0,0.0,0.0,0.0,0.0,0.0,0.0,0.0,0.0,0.0,0.0,0.0,0.0,0.0,0.0,0.0,0.0,0.0,0.0,0.0,0.0,0.0,0.0,0.0,0.0,0.0,0.0,0.0,0.0,0.0,0.0,0.0,0.0,0.0,0.0,0.0,0.0,0.3187,0.3515,0.3971,0.0,0.0,0.0,0.0,0.0,0.0,0.0,0.0,0.0,0.0,0.0,0.0,0.0,0.0,0.0,0.0,0.0,0.0,0.0,0.0,0.0,0.0,0.0,0.0,0.0,0.0,0.0,0.0,0.0,0.0,0.0,0.0,0.0,0.0,0.0,0.0,0.0,0.0,0.0,0.0,0.0,0.0,0.0,0.0,0.0,0.0,0.0,0.0,0.0,0.0,0.0,0.0,0.0,0.0,0.0,0.0,0.0,0.0,0.0,0.0,0.0,0.0,0.0,0.0,0.0,0.0,0.0,0.0,0.0,0.0,0.0,0.0,0.0,0.0,0.0,0.0,0.0,0.0,0.0,0.0,0.0,0.0,0.0,0.0,0.0,0.0,0.0,0.0,0.0,0.0,0.0,0.0,0.0,0.0,0.0,0.0,0.0,0.0,0.0,0.0,0.0,0.0,0.0,0.0,0.0,0.0,0.0,0.0,0.0,0.0,0.274,0.2897,0.3317,0.0,0.4224,0.0,0.0,0.0,0.0,0.0,0.0,0.0,0.0,0.0,0.0,0.0,0.0,0.0,0.0,0.0,0.0,0.0,0.0,0.0,0.0,0.0,0.0,0.0,0.0,0.0,0.0,0.0,0.0,0.0,0.0,0.0,0.0,0.0,0.0,0.0,0.0,0.0,0.0,0.0,0.0,0.0,0.0,0.0,0.0,0.0,0.0,0.0,0.0,0.0,0.0,0.0,0.0,0.0,0.0,0.0,0.0,0.0,0.0,0.0,0.0,0.0,0.0,0.0,0.0,0.0,0.0,0.0,0.0,0.0,0.0,0.0,0.0,0.0,0.0,0.0,0.0,0.0,0.0,0.0,0.0,0.0,0.0,0.0,0.0,0.0,0.0,0.0,0.0,0.0,0.0,0.0,0.0,0.0,0.0,0.0,0.0,0.0,0.0,0.0,0.0,0.0,0.0,0.0,0.0,0.0,0.0,0.0,0.0,0.0,0.0,0.2926,0.3137,0.3635,0.4027,0.0,0.0,0.0,0.0,0.0,0.0,0.0,0.0,0.0,0.0,0.0,0.0,0.0,0.0,0.0,0.0,0.0,0.0,0.0,0.0,0.0,0.0,0.0,0.0,0.0,0.0,0.0,0.0,0.0,0.0,0.0,0.0,0.0,0.0,0.0,0.0,0.0,0.0,0.0,0.0,0.0,0.0,0.0,0.0,0.0,0.0,0.0,0.0,0.0,0.0,0.0,0.0,0.0,0.0,0.0,0.0,0.0,0.0,0.0,0.0,0.0,0.0,0.0,0.0,0.0,0.0,0.0,0.0,0.0,0.0,0.0,0.0,0.0,0.0,0.0,0.0,0.0,0.0,0.0,0.0,0.0,0.0,0.0,0.0,0.0,0.0,0.0,0.0,0.0,0.0,0.0,0.0,0.0,0.0,0.0,0.0,0.0,0.0,0.0,0.0,0.0,0.0,0.0,0.0,0.0,0.0,0.0,0.0,0.0,0.0,0.2782,0.3079,0.3444,0.3862,0.4191,0.4364,0.0,0.0,0.0,0.0,0.0,0.0,0.0,0.0,0.0,0.0,0.0,0.0,0.0,0.0,0.0,0.0,0.0,0.0,0.0,0.0,0.0,0.0,0.0,0.0,0.0,0.0,0.0,0.0,0.0,0.0,0.0,0.0,0.0,0.0,0.0,0.0,0.0,0.0,0.0,0.0,0.0,0.0,0.0,0.0,0.0,0.0,0.0,0.0,0.0,0.0,0.0,0.0,0.0,0.0,0.0,0.0,0.0,0.0,0.0,0.0,0.0,0.0,0.0,0.0,0.0,0.0,0.0,0.0,0.0,0.0,0.0,0.0,0.0,0.0,0.0,0.0,0.0,0.0,0.0,0.0,0.0,0.0,0.0,0.0,0.0,0.0,0.0,0.0,0.0,0.0,0.0,0.0,0.0,0.0,0.0,0.0,0.0,0.0,0.0,0.0,0.0,0.0,0.0,0.0,0.0,0.0,0.0,0.0,0.2692,0.2896,0.3249,0.3738,0.3994,0.4224,0.0,0.0,0.0,0.0,0.0,0.0,0.0,0.0,0.0,0.0,0.0,0.0,0.0,0.0,0.0,0.0,0.0,0.0,0.0,0.0,0.0,0.0,0.0,0.0,0.0,0.0,0.0,0.0,0.0,0.0,0.0,0.0,0.0,0.0,0.0,0.0,0.0,0.0,0.0,0.0,0.0,0.0,0.0,0.0,0.0,0.0,0.0,0.0,0.0,0.0,0.0,0.0,0.0,0.0,0.0,0.0,0.0,0.0,0.0,0.0,0.0,0.0,0.0,0.0,0.0,0.0,0.0,0.0,0.0,0.0,0.0,0.0,0.0,0.0,0.0,0.0,0.0,0.0,0.0,0.0,0.0,0.0,0.0,0.0,0.0,0.0,0.0,0.0,0.0,0.0,0.0,0.0,0.0,0.0,0.0,0.0,0.0,0.0,0.0,0.0,0.0,0.0,0.0,0.0,0.0,0.0,0.0,0.0,0.0,0.2713,0.303,0.3359,0.3731,0.3973,0.4222,0.0,0.0,0.0,0.0,0.0,0.0,0.0,0.0,0.0,0.0,0.0,0.0,0.0,0.0,0.0,0.0,0.0,0.0,0.0,0.0,0.0,0.0,0.0,0.0,0.0,0.0,0.0,0.0,0.0,0.0,0.0,0.0,0.0,0.0,0.0,0.0,0.0,0.0,0.0,0.0,0.0,0.0,0.0,0.0,0.0,0.0,0.0,0.0,0.0,0.0,0.0,0.0,0.0,0.0,0.0,0.0,0.0,0.0,0.0,0.0,0.0,0.0,0.0,0.0,0.0,0.0,0.0,0.0,0.0,0.0,0.0,0.0,0.0,0.0,0.0,0.0,0.0,0.0,0.0,0.0,0.0,0.0,0.0,0.0,0.0,0.0,0.0,0.0,0.0,0.0,0.0,0.0,0.0,0.0,0.0,0.0,0.0,0.0,0.0,0.0,0.0,0.0,0.0,0.0,0.0,0.0,0.0,0.0,0.0,0.2889,0.0,0.3566,0.3836,0.4088,0.43,0.0,0.0,0.0,0.0,0.0,0.0,0.0,0.0,0.0,0.0,0.0,0.0,0.0,0.0,0.0,0.0,0.0,0.0,0.0,0.0,0.0,0.0,0.0,0.0,0.0,0.0,0.0,0.0,0.0,0.0,0.0,0.0,0.0,0.0,0.0,0.0,0.0,0.0,0.0,0.0,0.0,0.0,0.0,0.0,0.0,0.0,0.0,0.0,0.0,0.0,0.0,0.0,0.0,0.0,0.0,0.0,0.0,0.0,0.0,0.0,0.0,0.0,0.0,0.0,0.0,0.0,0.0,0.0,0.0,0.0,0.0,0.0,0.0,0.0,0.0,0.0,0.0,0.0,0.0,0.0,0.0,0.0,0.0,0.0,0.0,0.0,0.0,0.0,0.0,0.0,0.0,0.0,0.0,0.0,0.0,0.0,0.0,0.0,0.0,0.0,0.0,0.0,0.0,0.0,0.0,0.0,0.0,0.0,0.2639,0.3278,0.3561,0.3813,0.4078,0.4358,0.4463,0.0,0.0,0.0,0.0,0.0,0.0,0.0,0.0,0.0,0.0,0.0,0.0,0.0,0.0,0.0,0.0,0.0,0.0,0.0,0.0,0.0,0.0,0.0,0.0,0.0,0.0,0.0,0.0,0.0,0.0,0.0,0.0,0.0,0.0,0.0,0.0,0.0,0.0,0.0,0.0,0.0,0.0,0.0,0.0,0.0,0.0,0.0,0.0,0.0,0.0,0.0,0.0,0.0,0.0,0.0,0.0,0.0,0.0,0.0,0.0,0.0,0.0,0.0,0.0,0.0,0.0,0.0,0.0,0.0,0.0,0.0,0.0,0.0,0.0,0.0,0.0,0.0,0.0,0.0,0.0,0.0,0.0,0.0,0.0,0.0,0.0,0.0,0.0,0.0,0.0,0.0,0.0,0.0,0.0,0.0,0.0,0.0,0.0,0.0,0.0,0.0,0.0,0.0,0.0,0.0,0.0,0.0,0.0,0.0,0.3364,0.3578,0.387,0.423,0.4547,0.4728,0.0,0.0,0.0,0.0,0.0,0.0,0.0,0.0,0.0,0.0,0.0,0.0,0.0,0.0,0.0,0.0,0.0,0.0,0.0,0.0,0.0,0.0,0.0,0.0,0.0,0.0,0.0,0.0,0.0,0.0,0.0,0.0,0.0,0.0,0.0,0.0,0.0,0.0,0.0,0.0,0.0,0.0,0.0,0.0,0.0,0.0,0.0,0.0,0.0,0.0,0.0,0.0,0.0,0.0,0.0,0.0,0.0,0.0,0.0,0.0,0.0,0.0,0.0,0.0,0.0,0.0,0.0,0.0,0.0,0.0,0.0,0.0,0.0,0.0,0.0,0.0,0.0,0.0,0.0,0.0,0.0,0.0,0.0,0.0,0.0,0.0,0.0,0.0,0.0,0.0,0.0,0.0,0.0,0.0,0.0,0.0,0.0,0.0,0.0,0.0,0.0,0.0,0.0,0.0,0.0,0.0,0.0,0.0,0.0,0.3612,0.3819,0.4122,0.4474,0.4835,0.4991,0.4908,0.0,0.0,0.0,0.0,0.0,0.0,0.0,0.0,0.0,0.0,0.0,0.0,0.0,0.0,0.0,0.0,0.0,0.0,0.0,0.0,0.0,0.0,0.0,0.0,0.0,0.0,0.0,0.0,0.0,0.0,0.0,0.0,0.0,0.0,0.0,0.0,0.0,0.0,0.0,0.0,0.0,0.0,0.0,0.0,0.0,0.0,0.0,0.0,0.0,0.0,0.0,0.0,0.0,0.0,0.0,0.0,0.0,0.0,0.0,0.0,0.0,0.0,0.0,0.0,0.0,0.0,0.0,0.0,0.0,0.0,0.0,0.0,0.0,0.0,0.0,0.0,0.0,0.0,0.0,0.0,0.0,0.0,0.0,0.0,0.0,0.0,0.0,0.0,0.0,0.0,0.0,0.0,0.0,0.0,0.0,0.0,0.0,0.0,0.0,0.0,0.0,0.0,0.0,0.0,0.0,0.0,0.0,0.0,0.3988,0.4206,0.4488,0.4834,0.5211,0.5264,0.0,0.0,0.0,0.0,0.0,0.0,0.0,0.0,0.0,0.0,0.0,0.0,0.0,0.0,0.0,0.0,0.0,0.0,0.0,0.0,0.0,0.0,0.0,0.0,0.0,0.0,0.0,0.0,0.0,0.0,0.0,0.0,0.0,0.0,0.0,0.0,0.0,0.0,0.0,0.0,0.0,0.0,0.0,0.0,0.0,0.0,0.0,0.0,0.0,0.0,0.0,0.0,0.0,0.0,0.0,0.0,0.0,0.0,0.0,0.0,0.0,0.0,0.0,0.0,0.0,0.0,0.0,0.0,0.0,0.0,0.0,0.0,0.0,0.0,0.0,0.0,0.0,0.0,0.0,0.0,0.0,0.0,0.0,0.0,0.0,0.0,0.0,0.0,0.0,0.0,0.0,0.0,0.0,0.0,0.0,0.0,0.0,0.0,0.0,0.0,0.0,0.0,0.0,0.0,0.0,0.0,0.0,0.0,0.0,0.3918,0.4316,0.4744,0.5164,0.5565,0.581,0.0,0.0,0.0,0.0,0.0,0.0,0.0,0.0,0.0,0.0,0.0,0.0,0.0,0.0,0.0,0.0,0.0,0.0,0.0,0.0,0.0,0.0,0.0,0.0,0.0,0.0,0.0,0.0,0.0,0.0,0.0,0.0,0.0,0.0,0.0,0.0,0.0,0.0,0.0,0.0,0.0,0.0,0.0,0.0,0.0,0.0,0.0,0.0,0.0,0.0,0.0,0.0,0.0,0.0,0.0,0.0,0.0,0.0,0.0,0.0,0.0,0.0,0.0,0.0,0.0,0.0,0.0,0.0,0.0,0.0,0.0,0.0,0.0,0.0,0.0,0.0,0.0,0.0,0.0,0.0,0.0,0.0,0.0,0.0,0.0,0.0,0.0,0.0,0.0,0.0,0.0,0.0,0.0,0.0,0.0,0.0,0.0,0.0,0.0,0.0,0.0,0.0,0.0,0.0,0.0,0.0,0.0,0.0,0.3721,0.4103,0.4541,0.5007,0.5489,0.5859,0.6146,0.0,0.0,0.0,0.0,0.0,0.0,0.0,0.0,0.0,0.0,0.0,0.0,0.0,0.0,0.0,0.0,0.0,0.0,0.0,0.0,0.0,0.0,0.0,0.0,0.0,0.0,0.0,0.0,0.0,0.0,0.0,0.0,0.0,0.0,0.0,0.0,0.0,0.0,0.0,0.0,0.0,0.0,0.0,0.0,0.0,0.0,0.0,0.0,0.0,0.0,0.0,0.0,0.0,0.0,0.0,0.0,0.0,0.0,0.0,0.0,0.0,0.0,0.0,0.0,0.0,0.0,0.0,0.0,0.0,0.0,0.0,0.0,0.0,0.0,0.0,0.0,0.0,0.0,0.0,0.0,0.0,0.0,0.0,0.0,0.0,0.0,0.0,0.0,0.0,0.0,0.0,0.0,0.0,0.0,0.0,0.0,0.0,0.0,0.0,0.0,0.0,0.0,0.0,0.0,0.0,0.0,0.0,0.0,0.3873,0.4381,0.4784,0.5261,0.5796,0.6153,0.6379,0.0,0.0,0.0,0.0,0.0,0.0,0.0,0.0,0.0,0.0,0.0,0.0,0.0,0.0,0.0,0.0,0.0,0.0,0.0,0.0,0.0,0.0,0.0,0.0,0.0,0.0,0.0,0.0,0.0,0.0,0.0,0.0,0.0,0.0,0.0,0.0,0.0,0.0,0.0,0.0,0.0,0.0,0.0,0.0,0.0,0.0,0.0,0.0,0.0,0.0,0.0,0.0,0.0,0.0,0.0,0.0,0.0,0.0,0.0,0.0,0.0,0.0,0.0,0.0,0.0,0.0,0.0,0.0,0.0,0.0,0.0,0.0,0.0,0.0,0.0,0.0,0.0,0.0,0.0,0.0,0.0,0.0,0.0,0.0,0.0,0.0,0.0,0.0,0.0,0.0,0.0,0.0,0.0,0.0,0.0,0.0,0.0,0.0,0.0,0.0,0.0,0.0,0.0,0.0,0.0,0.0,0.0,0.0,0.385,0.423,0.4796,0.5343,0.5874,0.6314,0.6698,0.0,0.0,0.0,0.0,0.0,0.0,0.0,0.0,0.0,0.0,0.0,0.0,0.0,0.0,0.0,0.0,0.0,0.0,0.0,0.0,0.0,0.0,0.0,0.0,0.0,0.0,0.0,0.0,0.0,0.0,0.0,0.0,0.0,0.0,0.0,0.0,0.0,0.0,0.0,0.0,0.0,0.0,0.0,0.0,0.0,0.0,0.0,0.0,1.0338,0.0,0.0,0.0,0.0,0.0,0.0,0.0,0.0,0.0,0.0,0.0,0.0,0.0,0.0,0.0,0.0,0.0,0.0,0.0,0.0,0.0,0.0,0.0,0.0,0.0,0.0,0.0,0.0,0.0,0.0,0.0,0.0,0.0,0.0,0.0,0.0,0.0,0.0,0.0,0.0,0.0,0.0,0.0,0.0,0.0,0.0,0.0,0.0,0.0,0.0,0.0,0.0,0.0,0.0,0.0,0.0,0.0,0.0,0.0,0.4039,0.4532,0.4988,0.5515,0.606,0.6535,0.6848,0.0,0.0,0.0,0.0,0.0,0.0,0.0,0.0,0.0,0.0,0.0,0.0,0.0,0.0,0.0,0.0,0.0,0.0,0.0,0.0,0.0,0.0,0.0,0.0,0.0,0.0,0.0,0.0,0.0,0.0,0.0,0.0,0.0,0.0,0.0,0.0,0.0,0.0,0.0,0.0,0.0,0.0,0.0,0.0,0.0,0.0,0.0,0.0,0.0,0.0,0.0,0.0,0.0,0.0,0.0,0.0,0.0,0.0,0.0,0.0,0.0,0.0,0.0,0.0,0.0,0.0,0.0,0.0,0.0,0.0,0.0,0.0,0.0,0.0,0.0,0.0,0.0,0.0,0.0,0.0,0.0,0.0,0.0,0.0,0.0,0.0,0.0,0.0,0.0,0.0,0.0,0.0,0.0,0.0,0.0,0.0,0.0,0.0,0.0,0.0,0.0,0.0,0.0,0.0,0.0,0.0,0.0,0.3832,0.424,0.4859,0.5255,0.5719,0.6299,0.6695,0.6822,0.6642,0.0,0.0,0.0,0.0,0.0,0.0,0.0,0.0,0.0,0.0,0.0,0.0,0.0,0.0,0.0,0.0,0.0,0.0,0.0,0.0,0.0,0.0,0.0,0.0,0.0,0.0,0.0,0.0,0.0,0.0,0.0,0.0,0.0,0.0,0.0,0.0,0.0,0.0,0.5886,0.6771,0.0,0.0,0.0,0.0,0.0,0.0,0.0,0.0,1.0718,0.0,0.0,0.0,0.0,0.0,0.0,0.0,0.0,0.0,0.0,0.0,0.0,0.0,0.0,0.0,0.0,0.0,0.0,0.0,0.0,0.0,0.0,0.0,0.0,0.0,0.0,0.0,0.0,0.0,0.0,0.0,0.0,0.0,0.0,0.0,0.0,0.0,0.0,0.0,0.0,0.0,0.0,0.0,0.0,0.0,0.0,0.0,0.0,0.0,0.0,0.0,0.0,0.0,0.0,0.0,0.0,0.3434,0.3855,0.4312,0.4802,0.5354,0.5866,0.6291,0.6427,0.6457,0.6379,0.0,0.0,0.0,0.0,0.0,0.0,0.0,0.0,0.0,0.0,0.0,0.0,0.0,0.0,0.0,0.0,0.0,0.0,0.0,0.0,0.0,0.0,0.0,0.0,0.0,0.0,0.0,0.0,0.0,0.0,0.0,0.0,0.0,0.0,0.0,0.0,0.0,0.0,0.0,0.7353,0.8008,0.0,0.0,0.0,0.0,0.0,0.0,0.0,0.0,1.0857,0.0,0.0,0.0,0.0,0.0,0.0,0.0,0.0,0.0,0.0,0.0,0.0,0.0,0.0,0.0,0.0,0.0,0.0,0.0,0.0,0.0,0.0,0.0,0.0,0.0,0.0,0.0,0.0,0.0,0.0,0.0,0.0,0.0,0.0,0.0,0.0,0.0,0.0,0.0,0.0,0.0,0.0,0.0,0.0,0.0,0.0,0.0,0.0,0.0,0.0,0.0,0.0,0.0,0.0,0.0,0.3546,0.4014,0.4484,0.4953,0.5475,0.5846,0.6086,0.6369,0.6371,0.0,0.0,0.0,0.0,0.0,0.0,0.0,0.0,0.0,0.0,0.0,0.0,0.0,0.0,0.0,0.0,0.0,0.0,0.0,0.0,0.0,0.0,0.0,0.0,0.0,0.0,0.0,0.0,0.0,0.0,0.0,0.0,0.0,0.0,0.0,0.0,0.0,0.0,0.0,0.0,0.7266,0.7795,0.8499,0.0,0.0,0.0,0.0,0.0,0.0,1.0583,1.0873,0.0,0.0,0.0,0.0,0.0,0.0,0.0,0.0,0.0,0.0,0.0,0.0,0.0,0.0,0.0,0.0,0.0,0.0,0.0,0.0,0.0,0.0,0.0,0.0,0.0,0.0,0.0,0.0,0.0,0.0,0.0,0.0,0.0,0.0,0.0,0.0,0.0,0.0,0.0,0.0,0.0,0.0,0.0,0.0,0.0,0.0,0.0,0.0,0.0,0.0,0.0,0.0,0.0,0.0,0.0,0.3657,0.4121,0.4619,0.5115,0.5513,0.5762,0.5926,0.622,0.6204,0.0,0.0,0.0,0.0,0.0,0.0,0.0,0.0,0.0,0.0,0.0,0.0,0.0,0.0,0.0,0.0,0.0,0.0,0.0,0.0,0.0,0.0,0.0,0.0,0.0,0.0,0.0,0.0,0.0,0.0,0.0,0.0,0.0,0.0,0.0,0.0,0.0,0.0,0.0,0.0,0.0,0.7579,0.8277,0.8651,0.0,0.0,0.0,0.0,1.0262,1.0571,0.0,0.0,0.0,0.0,0.0,0.0,0.0,0.0,0.0,0.0,0.0,0.0,0.0,0.0,0.0,0.0,0.0,0.0,0.0,0.0,0.0,0.0,0.0,0.0,0.0,0.0,0.0,0.0,0.0,0.0,0.0,0.0,0.0,0.0,0.0,0.0,0.0,0.0,0.0,0.0,0.0,0.0,0.0,0.0,0.0,0.0,0.0,0.0,0.0,0.0,0.0,0.0,0.0,0.0,0.0,0.0,0.3504,0.3976,0.4563,0.5235,0.5338,0.5563,0.596,0.57,0.5646,0.0,0.0,0.0,0.0,0.0,0.0,0.0,0.0,0.0,0.0,0.0,0.0,0.0,0.0,0.0,0.0,0.0,0.0,0.0,0.0,0.0,0.0,0.0,0.0,0.0,0.0,0.0,0.0,0.0,0.0,0.0,0.0,0.0,0.0,0.0,0.0,0.0,0.0,0.0,0.0,0.0,0.7552,0.8217,0.8547,0.8828,0.0,0.0,0.9931,1.0249,1.0633,0.0,0.0,0.0,0.0,0.0,0.0,0.0,0.0,0.0,0.0,0.0,0.0,0.0,0.0,0.0,0.0,0.0,0.0,0.0,0.0,0.0,0.0,0.0,0.0,0.0,0.0,0.0,0.0,0.0,0.0,0.0,0.0,0.0,0.0,0.0,0.0,0.0,0.0,0.0,0.0,0.0,0.0,0.0,0.0,0.0,0.0,0.0,0.0,0.0,0.0,0.0,0.0,0.0,0.0,0.0,0.3113,0.3398,0.4047,0.4556,0.4897,0.5275,0.5465,0.542,0.5444,0.5504,0.0,0.0,0.0,0.0,0.0,0.0,0.0,0.0,0.0,0.0,0.0,0.0,0.0,0.0,0.0,0.0,0.0,0.0,0.0,0.0,0.0,0.0,0.0,0.0,0.0,0.0,0.0,0.0,0.0,0.0,0.0,0.0,0.0,0.0,0.0,0.0,0.0,0.0,0.0,0.0,0.0,0.0,0.8145,0.8467,0.0,0.0,0.0,1.0097,1.0821,0.0,0.0,0.0,0.0,0.0,0.0,0.0,0.0,0.0,0.0,0.0,0.0,0.0,0.0,0.0,0.0,0.0,0.0,0.0,0.0,0.0,0.0,0.0,0.0,0.0,0.0,0.0,0.0,0.0,0.0,0.0,0.0,0.0,0.0,0.0,0.0,0.0,0.0,0.0,0.0,0.0,0.0,0.0,0.0,0.0,0.0,0.0,0.0,0.0,0.0,0.0,0.0,0.0,0.0,0.0,0.0,0.0,0.3498,0.4098,0.453,0.4744,0.5147,0.5261,0.5054,0.5265,0.0,0.0,0.0,0.0,0.0,0.0,0.0,0.0,0.0,0.0,0.0,0.0,0.0,0.0,0.0,0.0,0.0,0.0,0.0,0.0,0.0,0.0,0.0,0.0,0.0,0.0,0.0,0.7092,0.0,0.0,0.0,0.0,0.0,0.0,0.0,0.0,0.0,0.0,0.0,0.0,0.0,0.0,0.7856,0.8219,0.8635,0.9153,0.0,0.0,1.0405,1.1161,1.1284,1.1407,0.0,0.0,0.0,0.0,0.0,0.0,0.0,0.0,0.0,0.0,0.0,0.0,0.0,0.0,0.0,0.0,0.0,0.0,0.0,0.0,0.0,0.0,0.0,0.0,0.0,0.0,0.0,0.0,0.0,0.0,0.0,0.0,0.0,0.0,0.0,0.0,0.0,0.0,0.0,0.0,0.0,0.0,0.0,0.0,0.0,0.0,0.0,0.0,0.0,0.0,0.0,0.0,0.0,0.0,0.3731,0.4037,0.4165,0.4528,0.5125,0.4841,0.4824,0.5173,0.5156,0.5215,0.0,0.0,0.0,0.0,0.0,0.0,0.0,0.0,0.0,0.0,0.0,0.0,0.0,0.0,0.0,0.0,0.0,0.0,0.0,0.0,0.0,0.0,0.0,0.0,0.0,0.0,0.0,0.0,0.0,0.0,0.0,0.0,0.0,0.0,0.0,0.0,0.0,0.0,0.0,0.0,0.0,0.8014,0.8669,0.9137,0.9456,0.0,1.0277,1.0859,1.0914,1.1296,1.1692,1.2012,0.0,0.0,0.0,0.0,0.0,0.0,0.0,0.0,0.0,0.0,0.0,0.0,0.0,0.0,0.0,0.0,0.0,0.0,0.0,0.0,0.0,0.0,0.0,0.0,0.0,0.0,0.0,0.0,0.0,0.0,0.0,0.0,0.0,0.0,0.0,0.0,0.0,0.0,0.0,0.0,0.0,0.0,0.0,0.0,0.0,0.0,0.0,0.0,0.0,0.0,0.0,0.0,0.0,0.3872,0.4039,0.4435,0.4809,0.5132,0.5357,0.555,0.5697,0.5796,0.596,0.0,0.0,0.0,0.0,0.0,0.0,0.0,0.0,0.0,0.0,0.0,0.0,0.0,0.0,0.0,0.0,0.0,0.0,0.0,0.0,0.0,0.0,0.0,0.0,0.0,0.0,0.0,0.0,0.7739,0.7865,0.7657,0.0,0.0,0.0,0.0,0.0,0.0,0.0,0.0,0.0,0.0,0.8774,0.9226,0.9497,0.0,0.0,1.0658,1.0945,1.1605,1.1798,1.2146,1.2994,1.335,0.0,0.0,0.0,0.0,0.0,0.0,0.0,0.0,0.0,0.0,0.0,0.0,0.0,0.0,0.0,0.0,0.0,0.0,0.0,0.0,0.0,0.0,0.0,0.0,0.0,0.0,0.0,0.0,0.0,0.0,0.0,0.0,0.0,0.0,0.0,0.0,0.0,0.0,0.0,0.0,0.0,0.0,0.0,0.0,0.0,0.0,0.0,0.0,0.0,0.0,0.0,0.0,0.4202,0.4291,0.4749,0.5082,0.5307,0.5723,0.5987,0.6077,0.6255,0.6486,0.0,0.0,0.0,0.0,0.0,0.0,0.0,0.0,0.0,0.0,0.0,0.0,0.0,0.0,0.0,0.0,0.0,0.0,0.0,0.0,0.0,0.0,0.0,0.0,0.0,0.0,0.0,0.0,0.8127,0.8402,0.8072,0.0,0.0,0.0,0.0,0.0,0.0,0.0,0.0,0.0,0.0,0.9214,0.9806,1.0042,1.0403,1.1159,1.115,1.1324,1.2044,1.2186,1.2528,1.3437,0.0,0.0,0.0,0.0,0.0,0.0,0.0,0.0,0.0,0.0,0.0,0.0,0.0,0.0,0.0,0.0,0.0,0.0,0.0,0.0,0.0,0.0,0.0,0.0,0.0,0.0,0.0,0.4011,0.0,0.0,0.3998,0.0,0.0,0.0,0.0,0.0,0.0,0.0,0.0,0.0,0.0,0.0,0.0,0.0,0.0,0.0,0.0,0.0,0.0,0.0,0.0,0.0,0.0,0.4836,0.4988,0.5133,0.5382,0.5764,0.5809,0.5988,0.6296,0.6436,0.6629,0.6927,0.0,0.0,0.0,0.0,0.0,0.0,0.0,0.0,0.0,0.0,0.0,0.0,0.0,0.0,0.0,0.0,0.0,0.0,0.0,0.0,0.0,0.0,0.0,0.0,0.0,0.0,0.8442,0.8772,0.8977,0.0,0.0,0.0,0.0,0.0,0.0,0.0,0.0,0.0,0.8884,0.8838,0.9179,1.0402,1.0757,1.0937,1.1171,1.1688,1.2057,1.2099,1.2451,1.2774,0.0,0.0,0.0,0.0,0.0,0.0,0.0,0.0,0.0,0.0,0.0,0.0,0.0,0.0,0.0,0.0,0.0,0.0,0.0,0.0,0.0,0.0,0.0,0.0,0.0,0.0,0.0,0.4675,0.4596,0.0,0.0,0.0,0.0,0.0,0.0,0.0,0.0,0.0,0.0,0.0,0.4471,0.4471,0.0,0.0,0.0,0.0,0.0,0.0,0.0,0.0,0.0,0.0,0.0,0.0,0.5001,0.5264,0.5533,0.5861,0.6265,0.6482,0.6747,0.7092,0.7317,0.763,0.8018,0.0,0.0,0.0,0.0,0.0,0.0,0.0,0.0,0.0,0.0,0.0,0.0,0.0,0.0,0.0,0.0,0.0,0.0,0.0,0.0,0.0,0.0,0.0,0.0,0.0,0.8413,0.0,0.0,0.0,0.0,0.0,0.0,0.0,0.0,0.0,0.0,0.0,0.8884,0.911,0.9769,1.0372,1.0758,1.1006,1.1236,0.0,0.0,0.0,0.0,0.0,0.0,0.0,0.0,0.0,0.0,0.0,0.0,0.0,0.0,1.3017,1.314,1.273,1.2348,1.2331,0.0,0.0,0.0,0.0,0.0,0.0,0.0,0.0,0.0,0.0,0.0,0.0,0.0,0.0,0.5188,0.5103,0.4927,0.0,0.0,0.0,0.0,0.0,0.0,0.0,0.0,0.4635,0.4701,0.4731,0.4797,0.4932,0.0,0.4986,0.4891,0.0,0.0,0.0,0.0,0.0,0.0,0.0,0.0,0.5339,0.5585,0.5898,0.6275,0.6665,0.6987,0.7324,0.7632,0.7966,0.8312,0.8673,0.9086,0.9608,0.0,0.0,0.0,0.0,0.0,0.0,0.0,0.0,0.0,0.0,0.0,0.0,0.0,0.0,0.0,0.0,0.0,0.0,0.0,0.0,0.0,0.0,0.0,0.8765,0.0,0.0,0.0,0.0,0.0,0.0,0.0,0.0,0.0,0.8605,0.8875,0.9191,0.9174,0.9876,1.051,1.0827,0.0,0.0,0.0,0.0,0.0,0.0,0.0,1.4607,1.5932,1.6404,1.6879,1.7701,1.6888,1.595,1.5392,0.0,0.0,1.4038,1.3614,1.3252,1.3235,1.3278,1.332,1.3387,1.3492,1.3646,0.0,0.0,0.0,0.0,0.0,0.0,0.0,0.0,0.5662,0.554,0.0,0.5389,0.0,0.0,0.0,0.0,0.4718,0.462,0.0,0.0,0.4925,0.503,0.5074,0.5205,0.5343,0.5533,0.5408,0.549,0.5707,0.5146,0.0,0.0,0.0,0.0,0.0,0.0,0.5854,0.5951,0.6237,0.6602,0.7002,0.7333,0.7632,0.7912,0.8354,0.8684,0.8861,0.9537,1.0146,1.0627,1.1225,0.0,0.0,0.0,0.0,0.0,0.0,0.0,0.0,0.0,0.0,0.0,0.0,0.0,0.0,0.0,0.0,0.0,0.0,0.0,0.0,0.8709,0.0,0.0,0.0,0.0,0.0,0.0,0.0,0.0,0.0,0.0,0.9257,0.9091,0.9055,0.9121,0.0,0.0,0.0,0.0,1.1282,1.1978,1.2321,1.2918,1.4065,1.3981,1.4372,1.608,0.0,0.0,1.6278,1.6273,1.6138,1.6102,1.5447,1.4734,1.3727,1.3544,1.3511,1.352,1.3517,1.3531,1.3613,1.3738,1.3828,0.8541,0.0,0.0,0.0,0.0,0.6632,0.6526,0.638,0.6324,0.6197,0.6066,0.5878,0.0,0.0,0.0,0.0,0.0,0.0,0.5675,0.567,0.5845,0.6016,0.6216,0.6263,0.6398,0.6632,0.6361,0.6326,0.6477,0.6168,0.5847,0.5533,0.0,0.0,0.0,0.0,0.6188,0.6527,0.6646,0.6839,0.7136,0.7432,0.7807,0.8255,0.8568,0.8996,0.9557,0.9968,1.0674,1.1693,1.2096,0.0,0.0,0.0,0.0,0.0,0.0,0.0,0.0,0.0,0.0,0.0,0.0,0.0,0.0,0.0,0.0,0.0,0.0,0.0,0.8784,0.9062,0.9444,0.0,0.0,0.0,0.0,0.0,0.0,0.0,0.0,0.0,1.0164,0.9915,0.9736,0.0,0.0,1.0313,1.0551,1.102,1.1459,1.1764,1.2318,0.0,1.3633,1.4319,1.4993,1.5649,1.6092,1.6268,1.588,1.5756,1.5512,1.4968,1.4666,1.4421,1.4163,1.3906,1.3813,1.3781,1.3796,1.3815,1.3931,1.3977,1.4046,0.9556,0.8475,0.817,0.7823,0.7538,0.7445,0.7267,0.7026,0.6922,0.6828,0.6681,0.6514,0.635,0.6228,0.6087,0.0,0.0,0.0,0.6301,0.6344,0.6525,0.6713,0.6942,0.6972,0.714,0.7421,0.7264,0.7251,0.7435,0.7172,0.6943,0.6698,0.0,0.0,0.6598,0.6724,0.6837,0.7008,0.7301,0.744,0.7377,0.7739,0.821,0.8822,0.9102,0.9597,1.0314,1.0723,1.1378,1.2321,1.2755,1.3282,0.0,0.0,0.0,0.0,0.0,0.0,0.0,0.0,0.0,0.0,0.0,1.1267,1.1071,0.0,0.0,0.0,1.0106,1.0081,0.9942,1.0044,0.0,0.0,0.0,0.0,0.0,0.0,0.0,1.167,1.1994,1.1797,1.0755,1.0609,1.0344,0.9569,0.9945,1.0319,1.0487,0.0,1.1532,1.1846,1.2479,1.319,1.3936,1.4463,1.4969,1.5546,1.6057,1.6243,1.5778,1.5386,1.4983,1.4562,1.4422,1.4423,1.4423,1.4276,1.4136,1.4074,1.4067,1.4083,1.4161,1.4182,1.4239,1.0472,1.027,0.974,0.9179,0.8692,0.8427,0.8143,0.7842,0.7583,0.7454,0.7426,0.7285,0.7106,0.6945,0.6655,0.0,0.6694,0.666,0.6732,0.6837,0.711,0.7327,0.7435,0.7544,0.7784,0.8126,0.8123,0.8268,0.8459,0.8196,0.8113,0.829,0.7688,0.7368,0.7319,0.7656,0.7709,0.744,0.8168,0.8274,0.7802,0.8284,0.8876,0.9567,0.984,1.0337,1.1064,1.1632,1.2156,1.2641,1.3248,1.3719,1.3986,0.0,0.0,0.0,0.0,0.0,0.0,0.0,0.0,0.0,0.0,0.0,0.0,0.0,0.0,0.0,1.1081,0.0,1.146,1.1336,0.0,0.0,0.0,1.2152,1.2067,1.2522,1.2741,1.2435,0.0,0.0,1.1188,1.121,1.09,0.9673,0.9724,1.0021,1.0494,1.101,1.1538,1.2133,1.2716,1.3506,1.4453,1.4467,1.4617,1.5453,1.5708,1.5699,1.565,1.5156,1.4659,1.4632,1.4608,1.4627,1.4616,1.4616,1.4549,1.4368,1.4326,1.4332,1.4338,1.4374,1.4428,1.1677,1.1394,1.1142,1.0527,0.9637,0.9473,0.9291,0.9055,0.9004,0.8861,0.8655,0.8363,0.7966,0.7509,0.7425,0.7418,0.7465,0.7774,0.7957,0.8015,0.8378,0.8635,0.8757,0.898,0.9184,0.9365,0.9286,0.9257,0.9314,0.919,0.915,0.9203,0.9038,0.8672,0.8132,0.8171,0.83,0.8522,0.8694,0.8944,0.9201,0.9573,0.9948,1.0253,1.0576,1.1041,1.1664,1.2017,1.2523,1.3175,1.3453,1.3749,1.4124,1.4737,0.0,0.0,0.0,0.0,0.0,0.0,0.0,0.0,0.0,1.2747,1.2477,0.0,1.2276,0.0,1.1535,1.1412,1.1573,1.1578,0.0,0.0,1.263,1.3049,1.3317,1.3871,1.421,1.4192,1.3853,1.3238,1.2323,1.1941,1.1438,1.0594,1.0398,1.0482,1.0902,1.1371,1.1862,1.2364,1.2904,1.3462,1.4054,1.4353,1.4615,1.4895,1.5002,1.506,1.5113,1.4968,1.4818,1.4837,1.4818,1.4813,1.4813,1.4837,1.4789,1.4697,1.459,1.4513,1.453,1.4523,1.4539,1.2713,1.2366,1.2303,1.1789,1.0989,1.0512,1.0115,0.9811,0.9746,0.9601,0.9398,0.9207,0.8869,0.8444,0.8411,0.8342,0.8215,0.858,0.8738,0.8791,0.9152,0.9413,0.9584,0.9829,1.0087,1.0285,1.0273,1.0302,1.0327,1.021,1.0144,1.0214,1.0188,0.9899,0.9355,0.9046,0.8988,0.9217,0.9338,0.9688,1.0287,1.0413,1.0661,1.1062,1.1379,1.1838,1.2454,1.2668,1.299,1.348,1.3628,1.3845,1.417,1.4856,1.5199,0.0,0.0,0.0,0.0,0.0,0.0,0.0,0.0,0.0,0.0,0.0,1.3337,1.3016,1.2729,1.2663,1.2873,1.2913,1.313,1.3672,1.4008,1.4248,1.4387,1.4815,1.5114,1.5165,1.5031,1.455,1.3576,1.3371,1.2995,1.2218,1.2117,1.1973,1.1581,1.1831,1.2265,1.2667,1.3151,1.364,1.4098,1.4414,1.4668,1.4766,1.4813,1.4882,1.4936,1.4944,1.4949,1.4953,1.4957,1.4934,1.4944,1.494,1.4818,1.4407,1.4265,1.4186,1.4143,1.3854,1.3589,1.3655,1.3284,1.3284,1.2988,1.2476,1.1608,1.0959,1.0429,1.0298,1.019,1.0017,0.9981,0.9788,0.9501,0.9494,0.9289,0.8997,0.9281,0.9358,0.9316,0.9744,1.001,1.0146,1.0454,1.0735,1.1023,1.1141,1.1301,1.1435,1.1217,1.1185,1.1309,1.1204,1.1054,1.0778,1.0183,0.9858,0.9827,1.0101,1.0576,1.1216,1.1113,1.1334,1.1928,1.2201,1.2602,1.3173,1.3323,1.3459,1.3564,1.3708,1.3874,1.4151,1.4904,1.5304,0.0,1.5743,0.0,0.0,0.0,0.0,0.0,0.0,0.0,0.0,1.4393,1.4565,1.4347,1.4198,1.4235,1.4629,1.4621,1.4852,1.5403,1.5558,1.5565,1.5484,1.5719,1.5941,1.599,1.6164,1.5896,1.4952,1.4983,1.4731,1.3912,1.3961,1.3725,1.2725,1.2727,1.308,1.3312,1.3663,1.4158,1.4422,1.4627,1.4771,1.4872,1.4915,1.494,1.5014,1.4999,1.5022,1.5007,1.5011,1.5007,1.4999,1.4923,1.4589,1.3906,1.3543,1.3342,1.3365,1.2928,1.2342,1.4698,1.4245,1.4236,1.4081,1.3803,1.3307,1.2578,1.1745,1.1714,1.1473,1.1078,1.0923,1.069,1.0457,1.045,1.0247,0.995,1.0205,1.0162,0.987,1.0429,1.0761,1.0913,1.1276,1.1544,1.1728,1.1852,1.1977,1.2126,1.2175,1.2289,1.246,1.2252,1.2223,1.2337,0.0,0.0,0.0,1.1286,1.164,1.1982,1.223,1.2444,1.2697,1.3006,0.0,1.3203,1.3335,1.3408,1.3429,1.3577,0.0,0.0,0.0,0.0,0.0,0.0,0.0,0.0,0.0,0.0,0.0,1.5568,1.5148,1.488,1.4993,1.5061,1.5025,1.5112,1.5274,1.5459,1.5598,1.5761,1.5882,1.6386,1.674,1.6824,1.7328,1.7804,1.8,1.7307,1.6644,1.6253,1.5505,1.4822,1.4526,1.4649,1.4837,1.4843,1.4691,1.4811,1.5169,1.5139,1.4966,1.4642,1.476,1.4882,1.4967,1.5023,1.5057,1.5063,1.5092,1.508,1.5097,1.5069,1.5056,1.5054,1.457,1.4022,1.3804,1.2716,1.193,1.2496,1.2486,1.2384,1.5683,1.5307,1.5199,1.4854,0.0,1.4209,1.3743,1.3084,1.2586,1.2127,1.1745,1.1624,1.1466,1.1244,1.1244,1.1111,1.0909,1.1178,1.1165,1.1024,1.1401,1.167,1.1799,1.1993,1.2141,1.2298,1.2431,1.2535,1.2657,1.2793,1.2963,1.3184,1.3195,1.3188,1.3131,1.2588,1.2056,1.1597,1.1957,1.2228,1.2455,1.278,1.299,1.3077,1.3293,0.0,0.0,0.0,0.0,0.0,0.0,0.0,0.0,1.5172,0.0,1.583,1.6863,1.7447,1.7295,1.6884,1.6637,1.6595,1.6303,1.602,1.5712,1.5828,1.5918,1.586,1.5988,1.6154,1.6343,1.6517,1.6751,1.7066,1.7507,1.7821,1.7939,1.8355,1.8803,1.897,1.8464,1.7876,1.7578,1.6921,1.6312,1.5971,1.6171,1.6481,1.6714,1.6094,1.5721,1.6147,1.585,1.5527,1.5317,1.5048,1.4971,1.5045,1.507,1.5123,1.5149,1.5153,1.5159,1.513,1.4803,1.4512,1.4443,1.3817,1.3116,1.2664,1.1908,1.1242,1.1325,1.1241,1.1204,1.6569,1.6278,1.6075,1.5601,1.5037,1.4934,1.4685,1.4222,1.3209,0.0,0.0,1.2243,1.2157,1.2004,1.2063,1.1982,1.1833,1.2127,1.2234,1.2206,1.244,1.2659,1.2798,1.2774,1.2806,1.2954,1.3032,1.3104,1.3194,1.3314,1.3505,1.3787,1.401,1.3972,1.3707,1.3349,1.2904,1.2415,1.249,1.2632,1.2797,1.3094,1.3254,1.3267,1.3472,1.3543,1.3527,1.3514,1.3531,1.3581,1.3581,1.373,1.4008,1.51,1.579,1.5971,1.6963,1.7522,1.7474,1.7246,1.7065,1.7002,1.6934,1.6795,1.6505,1.6689,1.6824,1.6791,1.6914,1.7089,1.7287,1.7496,1.7819,1.835,1.863,1.8808,1.8869,1.9192,1.954,1.9735,1.9389,1.903,1.8705,1.8202,1.7875,1.7591,1.7635,1.8076,1.8235,1.738,1.6702,1.6918,1.6507,1.6023,1.5907,1.5438,1.5087,1.5094,1.5114,1.5142,1.5204,1.521,1.521,1.5215,1.4495,1.4047,1.3873,1.311,1.2216,1.1525,1.1221,1.0914,1.029,1.0063,1.0096,1.7251,1.7023,1.6817,1.6608,1.6319,1.5844,1.5249,1.4591,1.3813,1.3229,1.2889,1.2867,1.2864,1.2846,1.302,1.2948,1.2671,1.3012,1.3104,1.2986,1.3393,1.3723,1.3951,1.3799,1.3776,1.3871,1.3745,1.375,1.3868,1.3988,1.4233,1.4512,1.4593,1.4575,1.4524,1.4573,1.448,1.4198,1.3247,1.2873,1.3129,1.3288,1.3425,1.3531,1.3661,1.3708,1.3611,1.3581,1.3547,1.3514,1.3581,1.3848,1.4401,1.5293,1.6011,1.6544,1.7263,1.772,1.7821,1.757,1.7413,1.7413,1.7544,1.7523,1.7289,1.7269,1.7489,1.7906,1.7989,1.8213,1.8508,1.8683,1.8919,1.9203,1.942,1.9639,1.9823,2.0124,2.0416,2.0732,1.9823,1.9309,1.9392,1.8554,1.7969,1.8125,1.833,1.8645,1.8942,1.8883,1.8476,1.8038,1.743,1.6833,1.6422,1.5567,1.5324,1.5194,1.5289,1.5416,1.5502,1.5408,1.5391,1.5316,1.4548,1.3995,1.3877,1.2635,1.1695,1.1276,1.0821,1.0274,1.0097,1.0086,1.0077,1.8041,1.7632,1.7407,1.7166,1.6872,1.6448,1.5879,1.5283,1.4967,1.4238,1.3355,1.3393,1.3378,1.3285,1.358,1.3644,1.3576,1.4066,1.4266,1.4261,1.4479,1.4718,1.4986,1.4842,1.4819,1.4965,1.4706,1.4694,1.4792,1.4668,1.4777,1.5131,1.5221,1.5351,1.5497,1.5323,1.5229,1.5284,1.4094,1.3552,1.3743,1.3595,1.3547,1.3611,1.3661,1.3661,1.3611,1.3564,1.3689,1.4041,1.4146,1.4489,1.5131,1.5907,1.6504,1.6858,1.749,1.7949,1.8115,1.8002,1.7982,1.8042,1.8127,1.8226,1.8338,1.8108,1.8161,1.8489,1.8649,1.886,1.9147,1.935,1.957,1.9806,2.0037,2.0296,2.0581,2.0862,2.1181,2.136,2.0453,1.9807,2.0116,1.9015,1.8326,1.8596,1.885,1.9154,1.9469,1.9532,1.9454,1.9083,1.8491,1.7998,1.7649,1.7049,1.6651,1.6601,1.6642,1.6673,1.6669,1.6383,1.6034,1.5879,1.4626,1.3487,1.3345,1.1945,1.0986,1.0718,1.0458,1.0135,1.0095,1.0097,1.0099,1.8824,1.8257,1.8066,1.7734,1.727,1.6881,1.6501,1.6136,1.6051,1.5358,1.4303,1.4151,1.3999,1.387,1.4134,1.4309,1.4437,1.4902,1.5225,1.54,1.5511,1.5722,1.5938,1.585,1.586,1.5939,1.5725,1.5712,1.5801,1.544,1.5382,1.5637,1.5824,1.6044,1.6297,1.599,1.5943,1.611,1.5114,1.4541,1.4481,1.417,1.405,1.4089,1.4119,1.4093,1.4089,1.4055,1.4263,1.4812,1.4941,1.5295,1.5952,1.6583,1.7014,1.7293,1.782,1.8226,1.8403,1.8481,1.8544,1.8655,1.8731,1.8917,1.918,1.9035,1.8907,1.8997,1.9195,1.9402,1.9678,1.9912,2.0141,2.0414,2.0667,2.0959,2.1243,2.1549,2.1857,2.204,2.1092,2.0402,2.0418,1.9572,1.8896,1.9079,1.9339,1.9568,1.9744,1.9885,1.9958,1.9782,1.9257,1.8763,1.8862,1.8225,1.7782,1.7833,1.7811,1.7603,1.7439,1.6961,1.6514,1.6124,1.4598,1.3304,1.2772,1.1638,1.0657,1.0371,1.0186,1.0133,1.0109,1.0102,1.0099,1.9545,1.9113,1.8944,1.8419,1.7676,1.7304,1.7104,1.7033,1.6879,1.6538,1.5963,1.5352,1.4987,1.4826,1.4923,1.5006,1.4999,1.542,1.5788,1.6056,1.6454,1.6733,1.6864,1.6753,1.6758,1.6838,1.6681,1.6715,1.6914,1.6504,1.6237,1.6162,1.6275,1.6448,1.6641,1.6706,1.6857,1.7066,1.6546,1.5989,1.5429,1.5356,1.5422,1.5593,1.558,1.5606,1.5527,1.5588,1.5675,1.5837,1.5874,1.618,1.6816,1.7128,1.7512,1.8037,1.8389,1.863,1.8841,1.9001,1.9114,1.9151,1.9406,1.9621,1.9734,1.9929,1.9909,1.9747,1.983,2.0043,2.0291,2.0565,2.0798,2.1053,2.1363,2.1729,2.1998,2.2324,2.2587,2.2885,2.1771,2.1013,2.11,2.0097,1.9394,1.9535,1.9725,1.9863,1.9953,2.0069,2.0186,2.0083,1.9495,1.905,1.8974,1.8334,1.8144,1.804,1.7948,1.783,1.7432,1.6987,1.652,1.599,1.4775,1.3696,1.2872,1.199,1.1096,1.0367,1.0183,1.0171,1.0131,1.0099,1.0093,2.0468,1.9971,1.9783,1.9168,1.8309,1.7968,1.7716,1.751,1.752,1.7459,1.7297,1.6982,1.6459,1.5744,1.5987,1.6036,1.596,1.6316,1.6543,1.6666,1.7022,1.7329,1.7518,1.77,1.7813,1.7916,1.7711,1.773,1.7908,1.7724,1.7414,1.7141,1.7209,1.723,1.7138,1.7162,1.7267,1.7372,1.7262,1.7103,1.6849,1.6169,1.5826,1.5918,1.5955,1.5973,1.5991,1.6046,1.6282,1.6627,1.6821,1.7228,1.7843,1.8191,1.8475,1.8745,1.9007,1.9203,1.938,1.9497,1.9609,1.9714,1.9892,2.0052,2.026,2.0481,2.0614,2.0647,2.0596,2.063,2.0862,2.0811,2.0837,2.1157,2.1447,2.1755,2.2057,2.274,2.3282,2.3418,2.2737,2.2036,2.1651,2.0529,1.9801,1.9869,2.0002,2.0102,2.0127,2.0196,2.029,2.0299,2.0005,1.9841,1.9776,1.9605,1.9367,1.9396,1.9439,1.9143,1.8273,1.7688,1.7181,1.6261,1.5042,1.3902,1.2939,1.2096,1.1245,1.0516,1.0185,1.0187,1.0113,1.0103,1.0102,2.1324,2.0828,2.0503,1.9875,1.9089,1.8837,1.847,1.8124,1.8236,1.8303,1.8313,1.8313,1.7899,1.7206,1.7135,1.7026,1.6961,1.7118,1.726,1.7318,1.7562,1.7826,1.81,1.841,1.8652,1.8794,1.8654,1.8669,1.8821,1.8811,1.8549,1.8187,1.823,1.8096,1.7779,1.7775,1.7751,1.7639,1.7781,1.7882,1.7866,1.7134,1.6664,1.6646,1.6683,1.672,1.6775,1.6872,1.714,1.7641,1.7876,1.8242,1.876,1.9101,1.9291,1.9365,1.9548,1.9729,1.9904,1.9945,2.0067,2.0239,2.0376,2.0547,2.0779,2.1007,2.1133,2.1123,2.1092,2.1058,2.1117,2.0967,2.0905,2.0994,2.1262,2.1639,2.2171,2.2972,2.3561,2.3914,2.3443,2.2778,2.1941,2.0975,2.0365,2.0162,2.0196,2.0269,2.0271,2.0318,2.0383,2.0418,2.0417,2.0425,2.0439,2.0296,2.0452,2.0474,2.0359,1.996,1.9184,1.8306,1.7445,1.6115,1.5071,1.4087,1.3089,1.2184,1.137,1.0561,1.0193,1.0189,1.0159,1.0127,1.011,2.2057,2.159,2.1022,2.0505,2.0044,1.9796,1.9445,1.9016,1.9042,1.9042,1.9042,1.9042,1.9077,1.9029,1.8257,1.7817,1.776,1.7724,1.7893,1.8132,1.8114,1.8259,1.856,1.8827,1.9105,1.933,1.9451,1.9459,1.9414,1.9627,1.9541,1.9152,1.9212,1.9008,1.8655,1.8717,1.8542,1.8105,1.8178,1.8222,1.8279,1.8322,1.8238,1.8143,1.8174,1.8215,1.8398,1.8478,1.8627,1.8987,1.8995,1.9155,1.9424,1.9584,1.9815,2.0013,2.008,2.0152,2.0342,2.0427,2.0527,2.0693,2.0876,2.1103,2.1246,2.1479,2.1505,2.1097,2.1269,2.1224,2.1016,2.1041,2.1017,2.077,2.0958,2.156,2.2515,2.2887,2.347,2.4128,2.3892,2.3013,2.1717,2.1457,2.0985,2.0517,2.0344,2.0393,2.0404,2.0458,2.0478,2.0486,2.0499,2.051,2.0492,2.0472,2.0487,2.0524,2.0398,1.9973,1.8861,1.7827,1.6947,1.6144,1.5512,1.457,1.3336,1.235,1.1594,1.0877,1.0317,1.0182,1.0168,1.0119,1.0105,2.2829,2.2475,2.1829,2.1421,2.1122,2.0445,1.9962,1.9727,1.9523,1.9473,1.9605,1.9605,1.9693,1.9802,1.9587,1.9254,1.8846,1.8817,1.8942,1.9111,1.8963,1.9054,1.9347,1.9383,1.9539,1.9759,1.9939,2.0155,2.0435,2.0616,2.0515,2.0219,2.0193,1.9984,1.9582,1.9559,1.9341,1.8885,1.8925,1.8857,1.8667,1.8769,1.8884,1.8988,1.8817,1.8817,1.8964,1.9109,1.9277,1.9475,1.9696,1.9841,1.9947,2.0187,2.0424,2.0544,2.0561,2.0596,2.0712,2.0811,2.0925,2.1006,2.1262,2.1481,2.1648,2.1853,2.2009,2.1986,2.1801,2.1562,2.1068,2.0703,2.0449,2.0482,2.0671,2.1198,2.2205,2.2978,2.3762,2.4543,2.4276,2.3462,2.2605,2.1952,2.131,2.0562,2.0422,2.0463,2.0474,2.049,2.0504,2.051,2.0515,2.052,2.0564,2.0532,2.0512,2.0546,2.0378,1.9638,1.8662,1.8112,1.7349,1.598,1.5467,1.4735,1.3344,1.1849,1.121,1.0704,1.02,1.0193,1.0199,1.0136,1.0148,2.3298,2.3132,2.2714,2.2386,2.2082,2.1417,2.0883,2.0524,2.0267,2.0172,2.0161,2.0172,2.0248,2.0377,2.0529,2.0426,2.0017,1.983,1.9851,2.0057,1.9829,1.9797,1.9992,1.9998,2.009,2.0233,2.0485,2.0772,2.1106,2.1302,2.1278,2.1051,2.1139,2.0927,2.0517,2.0486,2.0279,1.9901,1.9666,1.9458,1.9306,1.9198,1.928,1.9523,1.9431,1.9365,1.946,1.9624,1.98,1.996,2.0225,2.0429,2.053,2.0761,2.0909,2.0958,2.0974,2.1007,2.1103,2.123,2.1294,2.1388,2.1572,2.1768,2.1926,2.2184,2.2347,2.2332,2.2259,2.1839,2.1033,2.0472,2.0172,2.0148,2.0233,2.0903,2.2149,2.2916,2.3859,2.487,2.4888,2.4251,2.3442,2.2654,2.1835,2.0972,2.0683,2.0517,2.05,2.0526,2.0532,2.0535,2.0537,2.054,2.0562,2.0541,2.0496,2.0502,2.0425,1.9587,1.8591,1.814,1.7376,1.6008,1.5046,1.4354,1.3212,1.1621,1.0806,1.0337,1.019,1.0202,1.0188,1.0175,1.017,2.3559,2.3548,2.3582,2.3209,2.2829,2.2661,2.2226,2.1375,2.1274,2.0939,2.0648,2.0669,2.0754,2.0871,2.0903,2.106,2.1166,2.0726,2.0653,2.09,2.071,2.0576,2.0558,2.0747,2.0746,2.0661,2.1118,2.1375,2.1447,2.1664,2.1752,2.1837,2.2007,2.1814,2.1302,2.1458,2.1348,2.0888,2.0382,2.0132,2.0293,1.98,1.9674,1.997,2.0045,2.0063,2.0041,2.0152,2.0277,2.0495,2.0712,2.0941,2.1151,2.1262,2.1309,2.1293,2.1309,2.1387,2.1542,2.1588,2.1649,2.1768,2.1886,2.2015,2.2212,2.245,2.2479,2.2264,2.2249,2.1924,2.0959,2.0697,2.0459,1.9796,1.9851,2.0666,2.2034,2.2685,2.3435,2.5046,2.5418,2.5184,2.4409,2.3582,2.2733,2.1783,2.1105,2.062,2.0562,2.0544,2.0585,2.0585,2.0409,2.0234,2.041,2.0566,2.0508,2.0429,2.0312,1.9804,1.8378,1.7597,1.699,1.5817,1.5069,1.4359,1.3235,1.1781,1.0988,1.0542,1.0397,1.0191,1.0181,1.017,1.0186,2.3186,2.3447,2.3304,2.3153,2.2962,2.2565,2.1968,2.1386,2.1083,2.0857,2.0862,2.0978,2.1094,2.1242,2.1391,2.1624,2.1913,2.1716,2.1687,2.1764,2.1665,2.1642,2.1641,2.145,2.1249,2.1198,2.1423,2.164,2.1845,2.2024,2.21,2.2231,2.2408,2.2409,2.2249,2.2302,2.2184,2.1877,2.167,2.134,2.0873,2.0669,2.05,2.0385,2.053,2.068,2.081,2.073,2.0795,2.1039,2.123,2.1434,2.1572,2.1632,2.1631,2.1648,2.1648,2.1693,2.1781,2.1855,2.1913,2.2013,2.2161,2.2301,2.2463,2.2721,2.2873,2.2841,2.2754,2.2417,2.2194,2.1403,2.0683,1.9899,1.9953,2.0499,2.1905,2.3043,2.4252,2.5291,2.5637,2.5288,2.4617,2.4038,2.3397,2.2187,2.1582,2.121,2.0741,2.0624,2.0604,2.0584,2.0213,1.9862,1.988,1.9722,1.9411,1.9413,1.9433,1.9257,1.7988,1.7207,1.6543,1.5858,1.5131,1.4227,1.3084,1.2195,1.1403,1.0631,1.029,1.0202,1.0193,1.0188,1.0187,2.3074,2.3317,2.3179,2.3144,2.3086,2.2685,2.2218,2.1795,2.1529,2.1374,2.1363,2.1474,2.1632,2.1776,2.1894,2.2123,2.2371,2.2432,2.2482,2.2506,2.2496,2.2506,2.255,2.2323,2.2188,2.2219,2.241,2.2606,2.279,2.3003,2.3046,2.2955,2.3074,2.3068,2.2955,2.2965,2.2937,2.2899,2.2673,2.2355,2.195,2.1535,2.125,2.1121,2.1086,2.1214,2.1403,2.1339,2.137,2.1494,2.1661,2.1825,2.1976,2.1991,2.1991,2.1991,2.1991,2.2003,2.2089,2.2115,2.2186,2.2257,2.2402,2.2555,2.2712,2.2927,2.3175,2.341,2.3366,2.3217,2.3011,2.2239,2.1241,2.0584,2.0283,2.0785,2.1989,2.3441,2.4613,2.5372,2.5657,2.5389,2.5059,2.4491,2.4039,2.2943,2.2196,2.1723,2.1121,2.0769,2.0672,2.0536,2.0302,1.9872,1.9385,1.8916,1.8349,1.8293,1.8315,1.8004,1.7242,1.6971,1.6503,1.5839,1.5114,1.4288,1.3226,1.2611,1.1897,1.1128,1.0301,1.02,1.0195,1.0188,1.0187,2.3132,2.3156,2.3167,2.3134,2.3089,2.3053,2.2716,2.2383,2.243,2.2222,2.1965,2.2061,2.2235,2.2359,2.2389,2.2543,2.2708,2.286,2.3,2.312,2.314,2.3165,2.3128,2.3192,2.3291,2.3454,2.3786,2.4016,2.3978,2.4339,2.4409,2.3884,2.395,2.3885,2.3563,2.3547,2.3653,2.3815,2.3422,2.3308,2.3448,2.247,2.1872,2.2031,2.1665,2.1555,2.1751,2.1911,2.194,2.1869,2.203,2.2175,2.2279,2.231,2.231,2.231,2.2293,2.2349,2.2391,2.2402,2.2443,2.2525,2.2605,2.2712,2.2919,2.3114,2.3365,2.3671,2.3885,2.387,2.342,2.2845,2.2187,2.1522,2.0738,2.1114,2.2705,2.3712,2.4487,2.5273,2.5623,2.5678,2.5573,2.4981,2.4565,2.4016,2.2978,2.2331,2.161,2.1162,2.0694,2.0442,2.0231,1.9567,1.8965,1.8263,1.7656,1.7075,1.7118,1.6923,1.6632,1.648,1.6346,1.5703,1.5213,1.435,1.366,1.3085,1.2179,1.1138,1.0588,1.0334,1.0213,1.0246,1.0465,2.2309,2.2594,2.2606,2.2606,2.2606,2.2606,2.2377,2.2068,2.2119,2.2185,2.2166,2.2389,2.2531,2.2592,2.2836,2.303,2.3193,2.3241,2.3433,2.3671,2.3789,2.383,2.386,2.3974,2.4032,2.4063,2.4393,2.4426,2.4564,2.5048,2.5096,2.4875,2.4682,2.4545,2.4505,2.4118,2.4103,2.4405,2.4413,2.419,2.3975,2.3396,2.2829,2.2427,2.2071,2.1913,2.2056,2.234,2.2426,2.2262,2.2346,2.2398,2.246,2.2501,2.2528,2.2542,2.2582,2.2636,2.2672,2.2685,2.2725,2.2773,2.2838,2.2952,2.3119,2.3354,2.3594,2.3834,2.4086,2.4282,2.4195,2.3725,2.288,2.1785,2.1043,2.1019,2.2026,2.2906,2.3769,2.4605,2.5299,2.5622,2.5634,2.5468,2.5067,2.4521,2.3896,2.3192,2.2374,2.1638,2.1192,2.0416,1.995,1.9167,1.8425,1.7702,1.6943,1.607,1.5898,1.5978,1.5826,1.5792,1.5681,1.539,1.537,1.4761,1.4249,1.3754,1.2558,1.1422,1.1243,1.1125,1.0556,1.0377,1.0855,2.2209,2.2535,2.2535,2.2535,2.2535,2.2535,2.2431,2.2283,2.2297,2.242,2.2604,2.2848,2.3017,2.3138,2.336,2.3539,2.3688,2.3704,2.3822,2.4057,2.4419,2.459,2.4709,2.4887,2.5055,2.5154,2.5441,2.5672,2.5852,2.616,2.6206,2.6019,2.5793,2.5575,2.5229,2.4958,2.473,2.4894,2.4993,2.4984,2.4883,2.4141,2.3654,2.314,2.2649,2.2257,2.2422,2.2655,2.2712,2.2605,2.2632,2.2672,2.2672,2.2725,2.2764,2.2777,2.2829,2.2893,2.2902,2.2932,2.2952,2.3015,2.3077,2.3187,2.3365,2.3582,2.3771,2.3988,2.4248,2.4485,2.4595,2.4244,2.3448,2.2515,2.1859,2.1655,2.1849,2.2598,2.3431,2.4297,2.5122,2.5675,2.5669,2.5656,2.5416,2.4988,2.4561,2.3879,2.3159,2.2406,2.1708,2.1047,2.0344,1.9714,1.8896,1.8117,1.7126,1.6136,1.5459,1.5423,1.5413,1.5418,1.5405,1.5409,1.541,1.5232,1.4643,1.4092,1.3328,1.2505,1.2248,1.1915,1.1446,1.102,1.1435,2.2555,2.2708,2.2708,2.2708,2.2714,2.2733,2.2745,2.2812,2.2878,2.303,2.3168,2.336,2.3599,2.3936,2.3953,2.407,2.4203,2.435,2.448,2.4753,2.5126,2.5438,2.5521,2.5807,2.6115,2.6376,2.7008,2.714,2.7174,2.7565,2.7561,2.7235,2.717,2.6717,2.608,2.5796,2.5614,2.541,2.5473,2.5647,2.5645,2.4946,2.436,2.4,2.3025,2.2657,2.276,2.2889,2.2919,2.2881,2.2906,2.2906,2.2932,2.2995,2.3015,2.304,2.3107,2.3144,2.3139,2.3151,2.3175,2.3265,2.3319,2.3424,2.3616,2.3753,2.3949,2.4154,2.4389,2.4613,2.4796,2.4524,2.407,2.3387,2.3178,2.2806,2.2344,2.2709,2.3552,2.43,2.5149,2.5565,2.5612,2.5605,2.5586,2.5357,2.4972,2.4488,2.3865,2.3207,2.2567,2.2002,2.1257,2.049,1.9597,1.8666,1.7542,1.6475,1.5704,1.5418,1.541,1.5418,1.5404,1.5409,1.541,1.5175,1.4723,1.4175,1.3782,1.341,1.3018,1.2863,1.2688,1.2262,1.2342,2.2678,2.2708,2.2708,2.2769,2.2848,2.2848,2.3012,2.3253,2.3283,2.3463,2.37,2.3878,2.4041,2.4247,2.4463,2.462,2.4744,2.5181,2.5654,2.5943,2.6157,2.6259,2.6304,2.6433,2.6604,2.6945,2.7423,2.77,2.79,2.8171,2.8391,2.8254,2.7899,2.7453,2.6915,2.6525,2.614,2.5882,2.5992,2.6225,2.6318,2.5828,2.5156,2.4584,2.3402,2.2899,2.302,2.3107,2.318,2.3205,2.3119,2.3065,2.3126,2.3199,2.3247,2.3295,2.3372,2.3424,2.3418,2.3447,2.3492,2.3526,2.3631,2.3721,2.3834,2.4009,2.4201,2.4391,2.4564,2.4818,2.5083,2.5209,2.4821,2.4312,2.4092,2.3809,2.3193,2.3591,2.4097,2.4434,2.507,2.5618,2.5593,2.5593,2.5577,2.5568,2.5362,2.5019,2.4494,2.391,2.3385,2.2821,2.2252,2.1507,2.0675,1.9628,1.835,1.7286,1.6436,1.5704,1.5697,1.557,1.5634,1.5543,1.541,1.5117,1.4843,1.4919,1.4664,1.4215,1.3805,1.365,1.3476,1.3223,1.3242,2.3072,2.3133,2.312,2.315,2.3228,2.333,2.3463,2.3611,2.3717,2.391,2.4144,2.4261,2.445,2.4736,2.495,2.5132,2.5395,2.5975,2.6494,2.6764,2.6961,2.7109,2.721,2.7155,2.7203,2.7423,2.784,2.8137,2.8332,2.8581,2.8779,2.8936,2.8711,2.8263,2.7669,2.736,2.6899,2.639,2.6453,2.6674,2.6788,2.6396,2.5608,2.4656,2.3615,2.3065,2.3229,2.3277,2.3383,2.3447,2.34,2.333,2.3377,2.3453,2.351,2.3549,2.3616,2.366,2.3693,2.3747,2.381,2.3827,2.3968,2.4068,2.4183,2.4356,2.4501,2.4685,2.4836,2.504,2.5356,2.5473,2.5284,2.5158,2.4999,2.4779,2.4422,2.4349,2.4331,2.4467,2.5041,2.5414,2.5544,2.5557,2.557,2.5579,2.5593,2.5268,2.5079,2.4535,2.4088,2.3599,2.315,2.2525,2.1753,2.0649,1.9315,1.8312,1.7465,1.6733,1.6294,1.6108,1.592,1.5695,1.5408,1.5409,1.5234,1.5351,1.5331,1.498,1.4609,1.4414,1.4316,1.4314,1.4389,2.3509,2.3586,2.3586,2.3628,2.3688,2.3878,2.3979,2.4024,2.4173,2.4379,2.4567,2.4624,2.4921,2.53,2.5495,2.5702,2.6147,2.6581,2.7115,2.7407,2.7759,2.7854,2.7958,2.8021,2.8061,2.8044,2.8308,2.8525,2.8724,2.892,2.9175,2.9341,2.9544,2.9005,2.8309,2.8144,2.7713,2.686,2.689,2.7083,2.7239,2.6897,2.6125,2.4892,2.3777,2.3342,2.3412,2.347,2.3555,2.3721,2.3754,2.3725,2.3714,2.3703,2.3757,2.3774,2.3837,2.3907,2.3968,2.4037,2.4115,2.4155,2.4293,2.4418,2.4534,2.4643,2.4785,2.4943,2.5091,2.5271,2.549,2.5578,2.5642,2.5624,2.5659,2.5658,2.5488,2.4921,2.4654,2.4644,2.5101,2.5473,2.5505,2.5501,2.5534,2.557,2.5583,2.5534,2.5326,2.5138,2.471,2.4555,2.42,2.3314,2.2481,2.159,2.0256,1.9313,1.847,1.768,1.6987,1.6489,1.6166,1.5651,1.5404,1.5406,1.5408,1.539,1.539,1.541,1.5292,1.4977,1.507,1.5378,1.5334,2.3599,2.3586,2.3586,2.3747,2.4024,2.4173,2.4347,2.4492,2.4721,2.4935,2.5076,2.5217,2.5508,2.5879,2.6082,2.6569,2.7075,2.7443,2.7694,2.8067,2.8491,2.8681,2.8359,2.8774,2.896,2.8818,2.885,2.899,2.919,2.9457,2.9627,2.9788,2.9967,2.9527,2.8846,2.8622,2.8183,2.7308,2.7305,2.7522,2.7648,2.7529,2.6907,2.5513,2.429,2.3721,2.3638,2.3696,2.3782,2.3865,2.3984,2.4046,2.4057,2.3998,2.4026,2.4085,2.4107,2.4154,2.4238,2.4356,2.4398,2.4456,2.4604,2.4712,2.478,2.4885,2.5028,2.5148,2.5302,2.5462,2.5563,2.5611,2.5683,2.5676,2.5636,2.5623,2.5529,2.535,2.5163,2.5135,2.5375,2.5507,2.548,2.5461,2.5476,2.5513,2.5531,2.5538,2.5421,2.5396,2.5331,2.5292,2.5331,2.4252,2.3154,2.2241,2.1194,2.031,1.9447,1.8526,1.7775,1.6947,1.6373,1.5759,1.5434,1.5418,1.5421,1.5422,1.5403,1.5403,1.5418,1.5432,1.5408,1.5402,1.5392,2.3881,2.3969,2.3956,2.4173,2.4434,2.4607,2.4765,2.492,2.523,2.5481,2.5674,2.5811,2.6068,2.6392,2.6592,2.7021,2.7507,2.8075,2.8307,2.8637,2.8996,2.921,2.8805,2.9357,2.9375,2.9369,2.947,2.9522,2.9589,2.987,3.0097,3.0236,3.0251,2.9743,2.9133,2.8785,2.8348,2.7716,2.7777,2.7965,2.8034,2.792,2.7069,2.6063,2.501,2.4277,2.3889,2.3915,2.3978,2.4057,2.4162,2.4238,2.4293,2.4338,2.4311,2.4347,2.4373,2.4424,2.451,2.4639,2.4731,2.4785,2.4916,2.5012,2.5071,2.5161,2.5256,2.5392,2.544,2.5548,2.5604,2.5623,2.5628,2.5595,2.5561,2.5535,2.5492,2.5461,2.5425,2.5419,2.5427,2.5427,2.5447,2.5436,2.5433,2.5434,2.5476,2.546,2.5456,2.5498,2.5534,2.555,2.5534,2.5063,2.4079,2.3361,2.2513,2.1612,2.075,1.9832,1.8794,1.8079,1.6802,1.5701,1.5535,1.5714,1.5445,1.5446,1.5427,1.5485,1.5555,1.5605,1.5446,1.5379,1.5441,2.4274,2.435,2.4379,2.4593,2.4892,2.509,2.523,2.5425,2.5757,2.6042,2.6258,2.6472,2.6683,2.6919,2.7181,2.7431,2.767,2.8409,2.8682,2.897,2.9379,2.9601,2.9579,2.9728,2.9762,2.9824,3.0081,3.0172,3.0049,3.0305,3.0501,3.0462,3.0207,2.9844,2.935,2.8971,2.8403,2.822,2.8224,2.8409,2.8332,2.7858,2.7153,2.6377,2.5611,2.4813,2.4195,2.4125,2.4182,2.4248,2.4311,2.44,2.4528,2.4615,2.4647,2.4631,2.4654,2.4689,2.4778,2.4871,2.4987,2.5041,2.5159,2.526,2.5331,2.5372,2.5471,2.5582,2.5603,2.5584,2.5586,2.5584,2.5526,2.549,2.546,2.5437,2.5393,2.5355,2.5313,2.5327,2.5351,2.5365,2.5365,2.5346,2.534,2.5408,2.5433,2.5452,2.5437,2.5445,2.5483,2.5515,2.5518,2.5517,2.5055,2.4684,2.3957,2.3236,2.2491,2.1689,2.0478,1.9323,1.7909,1.6567,1.6318,1.6422,1.5961,1.5731,1.6041,1.6154,1.595,1.5884,1.5935,1.5783,1.5702,2.4549,2.4591,2.4692,2.4892,2.5188,2.5481,2.5757,2.6029,2.6418,2.6654,2.6837,2.7141,2.7412,2.7665,2.7915,2.8171,2.8381,2.8539,2.8816,2.9179,2.9746,2.9886,2.982,3.0574,3.0391,3.0314,3.0526,3.0547,3.0522,3.0767,3.0634,3.0411,3.0419,3.0176,2.9257,2.9104,2.9048,2.8665,2.8633,2.8748,2.8785,2.8261,2.7482,2.6702,2.5919,2.5143,2.4487,2.4365,2.4391,2.4408,2.4513,2.4596,2.4692,2.479,2.4927,2.4961,2.4961,2.4915,2.5019,2.5113,2.5196,2.5254,2.5356,2.5431,2.5462,2.5525,2.5562,2.5583,2.5605,2.5554,2.5503,2.5453,2.5394,2.534,2.532,2.5289,2.5248,2.5222,2.5193,2.5201,2.5204,2.5257,2.5264,2.5259,2.5264,2.5322,2.5382,2.5402,2.5406,2.5412,2.5445,2.5476,2.5476,2.5472,2.5464,2.519,2.493,2.4444,2.3967,2.3185,2.1543,2.0097,1.9187,1.8099,1.7655,1.7189,1.6922,1.6829,1.6949,1.6924,1.6853,1.671,1.6566,1.6348,1.6011,2.5118,2.4948,2.5076,2.5342,2.5729,2.5947,2.6244,2.6563,2.6904,2.7188,2.7433,2.771,2.7999,2.8229,2.8398,2.8614,2.8834,2.8982,2.9166,2.9393,2.9894,3.0073,3.0125,3.0548,3.07,3.0829,3.0998,3.1295,3.1176,3.0895,3.0687,3.0699,3.0232,2.9821,2.9229,2.9181,2.9107,2.901,2.9097,2.9237,2.9133,2.8585,2.7793,2.7017,2.6204,2.54,2.4791,2.4613,2.4634,2.4657,2.4719,2.4798,2.4891,2.4993,2.5105,2.5185,2.5203,2.5214,2.5264,2.533,2.5387,2.5418,2.5493,2.5535,2.5557,2.5566,2.5585,2.5545,2.5512,2.5454,2.5391,2.5322,2.5255,2.521,2.5152,2.5126,2.5099,2.5106,2.5075,2.5082,2.5082,2.5124,2.5162,2.5179,2.519,2.5248,2.5279,2.5279,2.5303,2.5317,2.536,2.5434,2.5438,2.5443,2.5436,2.5324,2.5274,2.4954,2.4927,2.3875,2.2068,2.0718,1.9844,1.881,1.7849,1.7603,1.773,1.7669,1.7544,1.7666,1.7802,1.7575,1.7287,1.6608,1.6192,2.5825,2.5619,2.5632,2.5851,2.6258,2.6457,2.6771,2.7199,2.7479,2.7785,2.8048,2.8341,2.859,2.874,2.8904,2.9113,2.9409,2.9582,2.9744,2.9913,3.0065,3.0269,3.048,3.0762,3.0986,3.114,3.1143,3.1387,3.1342,3.094,3.0531,3.1001,3.0097,2.9557,2.9415,2.9304,2.9191,2.9416,2.956,2.9686,2.9633,2.8927,2.8113,2.7289,2.645,2.5623,2.4932,2.483,2.4877,2.4879,2.4921,2.4967,2.5057,2.5145,2.5224,2.5303,2.5357,2.5437,2.5441,2.5489,2.5515,2.5548,2.556,2.5566,2.555,2.5568,2.5517,2.5441,2.5352,2.5296,2.5235,2.5152,2.5103,2.5043,2.4987,2.498,2.4946,2.494,2.4946,2.4965,2.4965,2.498,2.5019,2.5088,2.5111,2.5174,2.5185,2.5165,2.5195,2.5206,2.5268,2.5317,2.5346,2.5351,2.537,2.5384,2.5373,2.5281,2.5234,2.4424,2.2524,2.1363,2.0569,1.9449,1.8285,1.8508,1.8919,1.85,1.8168,1.8583,1.8826,1.84,1.7933,1.7209,1.6655,2.668,2.673,2.6402,2.6416,2.6709,2.706,2.7494,2.7919,2.8247,2.8479,2.8693,2.9029,2.9243,2.9387,2.9499,2.9722,3.0087,3.0146,3.0316,3.0506,3.0671,3.0753,3.0935,3.1114,3.1261,3.1356,3.1306,3.132,3.1154,3.0451,3.0222,3.0276,2.9961,2.9564,2.9403,2.9451,2.9586,2.9802,2.9958,3.0049,2.9855,2.9224,2.8345,2.7561,2.6715,2.5888,2.5118,2.5081,2.5082,2.5075,2.5091,2.5121,2.5195,2.5264,2.5348,2.5406,2.5492,2.5565,2.5586,2.5585,2.5595,2.5592,2.5585,2.5552,2.5508,2.5447,2.5379,2.5317,2.5186,2.5094,2.5024,2.4948,2.4874,2.4832,2.4782,2.4764,2.4742,2.4783,2.4791,2.4817,2.4839,2.4849,2.4851,2.4881,2.4993,2.5043,2.5087,2.5087,2.5086,2.5103,2.5138,2.5171,2.5206,2.5222,2.5287,2.5278,2.5278,2.5009,2.4812,2.4058,2.2822,2.1925,2.0954,2.025,1.9277,1.9685,1.9844,1.9258,1.9072,1.9713,1.9797,1.9135,1.854,1.7899,1.7519,2.6978,2.6768,2.6783,2.7011,2.7408,2.778,2.8174,2.859,2.8873,2.9136,2.9339,2.9528,2.9722,2.9875,2.9957,3.0177,3.0535,3.0559,3.076,3.0938,3.1058,3.1157,3.1332,3.144,3.156,3.1394,3.1276,3.1204,3.1063,3.0288,3.0296,3.0282,2.9972,2.9689,2.9551,2.9761,3.0023,3.0165,3.0292,3.0353,3.0088,2.9023,2.8184,2.7836,2.6347,2.5716,2.533,2.5289,2.5274,2.5274,2.5279,2.5307,2.5326,2.5398,2.5452,2.5515,2.5568,2.5615,2.5668,2.5659,2.5635,2.5579,2.5556,2.5521,2.5448,2.5342,2.5216,2.5118,2.5019,2.4915,2.4818,2.4708,2.4623,2.4591,2.4586,2.4545,2.4545,2.4596,2.4621,2.4637,2.4668,2.4673,2.4678,2.4693,2.4811,2.4915,2.4961,2.4987,2.4974,2.4987,2.5019,2.5037,2.5075,2.5074,2.5116,2.5147,2.5159,2.4776,2.438,2.3487,2.2593,2.1927,2.1032,2.0488,2.004,1.9953,1.9838,1.9686,1.9763,1.9993,1.9917,1.9587,1.9035,1.8545,1.8275,2.6959,2.6779,2.7049,2.7233,2.7448,2.7774,2.8123,2.8474,2.8748,2.907,2.9349,2.9412,2.9681,2.9938,3.0096,3.0443,3.0778,3.0965,3.1159,3.1312,3.1466,3.1442,3.1489,3.1498,3.1442,3.1188,3.1029,3.0934,3.0766,3.0314,3.0198,3.0112,2.9963,2.9842,2.9864,3.0139,3.0393,3.0476,3.0517,3.0349,3.0046,2.888,2.7831,2.752,2.6209,2.5615,2.5486,2.5441,2.5439,2.5455,2.5455,2.5478,2.5476,2.5502,2.5557,2.5591,2.5623,2.5633,2.5672,2.5663,2.5641,2.557,2.5499,2.5437,2.534,2.5212,2.508,2.4929,2.4816,2.4704,2.4629,2.4522,2.4444,2.4426,2.4401,2.4366,2.4375,2.4401,2.4418,2.4444,2.4469,2.4486,2.4451,2.4458,2.4615,2.4738,2.4823,2.4844,2.4851,2.4865,2.4879,2.4912,2.4952,2.4953,2.4942,2.4974,2.4879,2.4176,2.3682,2.2922,2.2131,2.1464,2.0859,2.0229,1.9904,1.9894,1.9821,1.9677,1.9773,1.9955,1.9823,1.9709,1.959,1.9144,1.8954,2.6616,2.6918,2.7164,2.695,2.6594,2.6975,2.7381,2.7814,2.8091,2.8332,2.8579,2.8705,2.9076,2.9549,2.9786,3.0229,3.0792,3.1117,3.1303,3.1366,3.1391,3.1394,3.1304,3.1203,3.1153,3.0668,3.0504,3.0442,3.0337,3.0024,2.9896,3.0068,3.0148,3.0177,3.0145,3.0366,3.0529,3.0597,3.0643,3.016,2.9551,2.8586,2.7687,2.7022,2.6122,2.557,2.5561,2.5564,2.557,2.5574,2.5588,2.5583,2.5593,2.5576,2.5598,2.5597,2.5658,2.5696,2.5703,2.5633,2.5566,2.5513,2.5421,2.5326,2.5201,2.5075,2.4914,2.4757,2.4626,2.4541,2.4437,2.4339,2.4275,2.421,2.4182,2.4181,2.4182,2.4201,2.422,2.422,2.4257,2.4266,2.4229,2.4238,2.4382,2.4518,2.465,2.4689,2.47,2.4696,2.4693,2.4719,2.4753,2.4783,2.4768,2.4797,2.4559,2.3803,2.3067,2.2375,2.1551,2.0747,2.022,1.9844,1.9763,1.9757,1.9732,1.9676,1.977,1.9843,1.9884,1.9821,1.9802,1.9713,1.9449,2.6878,2.672,2.6999,2.6766,2.6396,2.7371,2.7921,2.8115,2.842,2.8626,2.8718,2.8832,2.9007,2.9297,2.942,2.9719,3.0123,3.0177,3.0335,3.0611,3.0864,3.0731,3.0692,3.0823,3.077,3.0436,3.0209,3.0078,2.9982,2.9868,3.0003,3.017,3.0312,3.0482,3.0486,3.058,3.0661,3.0603,3.0247,2.9706,2.9336,2.8125,2.7186,2.6815,2.5996,2.5625,2.5605,2.5622,2.5653,2.5663,2.5659,2.5669,2.5663,2.5654,2.5661,2.5652,2.57,2.5682,2.5633,2.5549,2.5473,2.5399,2.5311,2.5192,2.5013,2.4879,2.4746,2.4578,2.4426,2.4321,2.4219,2.4105,2.4018,2.3949,2.3927,2.3927,2.3947,2.3978,2.3999,2.3999,2.4009,2.4027,2.3989,2.4018,2.4135,2.4238,2.4356,2.4462,2.4479,2.4485,2.4491,2.4491,2.4526,2.4569,2.4602,2.4607,2.4312,2.3607,2.2808,2.2041,2.1151,2.0243,1.988,1.9655,1.9635,1.9633,1.9633,1.964,1.9653,1.9693,1.9757,1.9788,1.9763,1.9762,1.9729,2.6747,2.6569,2.6833,2.6748,2.6604,2.7332,2.7786,2.7986,2.8251,2.8373,2.8304,2.8391,2.863,2.8836,2.8991,2.93,2.959,2.9775,2.9907,3.0101,3.0361,3.0401,3.0409,3.0459,3.0326,3.012,3.0102,3.0096,2.9972,3.0087,3.0235,3.0377,3.0324,3.0149,3.024,3.0415,3.0542,3.0292,2.9758,2.9141,2.843,2.7503,2.6754,2.6323,2.5897,2.5612,2.5601,2.5632,2.5661,2.5683,2.5683,2.57,2.5699,2.57,2.5702,2.5703,2.5654,2.5603,2.5524,2.5406,2.5301,2.5191,2.5154,2.5037,2.4835,2.4704,2.4553,2.44,2.4229,2.4124,2.4006,2.3886,2.3803,2.375,2.3707,2.3725,2.3725,2.3739,2.375,2.3761,2.3761,2.3761,2.3782,2.3831,2.3904,2.3966,2.4036,2.4152,2.4247,2.4266,2.4275,2.4284,2.432,2.4374,2.44,2.4418,2.4016,2.339,2.2662,2.1887,2.0919,2.0081,1.9781,1.9515,1.9515,1.9522,1.9562,1.9576,1.959,1.9599,1.9628,1.9674,1.9701,1.9745,1.9788,2.6262,2.6436,2.6725,2.6974,2.707,2.6925,2.6958,2.7186,2.7395,2.7412,2.7282,2.7547,2.7911,2.8347,2.8528,2.8904,2.9387,2.9763,2.9918,3.0149,3.018,3.0134,3.0092,3.0117,3.0023,2.9785,2.9676,2.9782,2.9995,2.98,3.0036,3.0185,2.9669,2.951,2.9648,2.9839,2.989,2.9502,2.9035,2.8308,2.7447,2.6884,2.629,2.5896,2.5626,2.5578,2.5578,2.5584,2.5606,2.5643,2.5675,2.568,2.5702,2.5702,2.5699,2.5665,2.5576,2.5479,2.5383,2.526,2.5099,2.4975,2.4903,2.4818,2.4678,2.4485,2.4329,2.4201,2.4066,2.3927,2.3813,2.3725,2.3645,2.3578,2.351,2.3517,2.3494,2.3487,2.347,2.3481,2.351,2.3533,2.3571,2.3634,2.366,2.3671,2.3736,2.3779,2.3904,2.4046,2.4049,2.4096,2.4115,2.4154,2.4182,2.4229,2.3833,2.3259,2.2669,2.1904,2.0896,2.0063,1.9743,1.9522,1.9427,1.9413,1.9453,1.949,1.9519,1.9529,1.9546,1.9647,1.9694,1.9732,1.9769,2.6774,2.694,2.7272,2.7491,2.7432,2.7032,2.7102,2.75,2.7597,2.7582,2.7567,2.7642,2.7762,2.7975,2.8112,2.8364,2.857,2.8735,2.8872,2.9161,2.9602,2.9508,2.9536,2.9661,2.9757,2.9626,2.9439,2.9238,2.9278,2.9218,2.8941,2.8774,2.875,2.8624,2.8645,2.8757,2.8624,2.8452,2.804,2.7442,2.6767,2.6269,2.5844,2.5601,2.5511,2.5544,2.5541,2.5565,2.56,2.5607,2.5626,2.5637,2.5703,2.5658,2.5626,2.5604,2.5502,2.5375,2.5265,2.5101,2.4896,2.4689,2.4564,2.4495,2.4374,2.4257,2.4096,2.3968,2.3834,2.3725,2.3616,2.3533,2.3441,2.3372,2.333,2.3277,2.3265,2.3253,2.3235,2.3265,2.3295,2.3336,2.3395,2.343,2.3458,2.3424,2.3435,2.3492,2.3571,2.3728,2.3824,2.3855,2.3925,2.3976,2.4026,2.4057,2.3601,2.3107,2.2594,2.199,2.1067,2.0311,1.9819,1.9506,1.9345,1.9314,1.9329,1.9393,1.9453,1.9483,1.9508,1.9599,1.9686,1.9719,1.9738,2.7053,2.6935,2.7242,2.725,2.7027,2.6733,2.6809,2.7086,2.7016,2.6961,2.7038,2.7359,2.7542,2.764,2.8008,2.8317,2.838,2.8611,2.8764,2.8901,2.8931,2.9008,2.909,2.9107,2.9099,2.9026,2.8848,2.8594,2.8592,2.8491,2.8254,2.8261,2.7953,2.7719,2.7614,2.7369,2.709,2.707,2.6929,2.6601,2.6191,2.5786,2.5592,2.5472,2.5461,2.5491,2.5526,2.5547,2.5579,2.561,2.5611,2.5627,2.5648,2.5611,2.5532,2.5502,2.5378,2.523,2.5071,2.4871,2.464,2.4405,2.422,2.4049,2.3998,2.3888,2.3806,2.3728,2.3616,2.3499,2.3395,2.3318,2.3217,2.3144,2.3107,2.3065,2.304,2.3015,2.3045,2.3057,2.3107,2.3163,2.3211,2.3247,2.3283,2.3324,2.3336,2.333,2.34,2.3515,2.3594,2.3627,2.3703,2.3768,2.3831,2.3894,2.3652,2.328,2.2852,2.2169,2.1242,2.0508,1.9929,1.9518,1.9202,1.93,1.9514,1.9395,1.9401,1.9468,1.9542,1.9559,1.965,1.9686,1.97,2.7046,2.6465,2.6735,2.6557,2.6081,2.6038,2.6079,2.6105,2.5823,2.5809,2.6102,2.6718,2.7074,2.7214,2.7698,2.8044,2.8082,2.8218,2.833,2.8831,2.8806,2.8717,2.8493,2.8555,2.8523,2.812,2.7822,2.7799,2.7835,2.765,2.7534,2.7933,2.7199,2.6807,2.67,2.629,2.6098,2.6115,2.6298,2.6283,2.5762,2.5492,2.5468,2.5426,2.5461,2.5515,2.5517,2.5528,2.5537,2.5587,2.5603,2.5602,2.5578,2.5511,2.5448,2.5357,2.5248,2.5049,2.485,2.4617,2.4335,2.4099,2.3888,2.3696,2.3598,2.362,2.3576,2.3463,2.333,2.3259,2.3175,2.3119,2.3057,2.2982,2.2914,2.2863,2.2829,2.2842,2.285,2.2893,2.297,2.3015,2.3077,2.3114,2.3163,2.3229,2.3229,2.3217,2.3241,2.3324,2.3365,2.34,2.3492,2.3589,2.3656,2.3693,2.3747,2.345,2.3061,2.2615,2.1872,2.0991,2.0019,1.9948,1.9956,1.9725,1.9757,1.9878,1.9953,1.9735,1.9737,1.9597,1.9596,1.9699,1.966,2.6171,2.6083,2.6321,2.608,2.5531,2.5486,2.5181,2.4721,2.4686,2.526,2.6105,2.6383,2.6545,2.6697,2.7053,2.7303,2.7287,2.7641,2.7502,2.7736,2.8003,2.8127,2.7834,2.795,2.7923,2.784,2.7503,2.6901,2.6601,2.6414,2.6295,2.6291,2.5996,2.6048,2.6028,2.5624,2.5615,2.5629,2.5776,2.5925,2.5593,2.5502,2.5495,2.5479,2.5512,2.5522,2.552,2.5557,2.5578,2.5595,2.5595,2.5579,2.5525,2.5399,2.532,2.523,2.5074,2.4867,2.4628,2.4362,2.407,2.3819,2.358,2.3383,2.3295,2.3365,2.333,2.3187,2.3089,2.3028,2.2965,2.2914,2.2893,2.2812,2.2747,2.2685,2.2636,2.2659,2.2694,2.2747,2.2842,2.2889,2.2952,2.3003,2.3052,2.3082,2.307,2.307,2.307,2.3114,2.3199,2.3247,2.3324,2.3407,2.3464,2.3522,2.3578,2.3589,2.3292,2.2865,2.2432,2.1603,2.0747,2.0881,2.0877,2.0554,2.0526,2.1023,2.0957,2.045,2.0241,2.0252,1.9859,1.9822,1.9701,2.5781,2.5599,2.543,2.5226,2.4986,2.4902,2.4709,2.4464,2.4456,2.4915,2.5653,2.59,2.6082,2.6261,2.6589,2.6767,2.6814,2.7059,2.7342,2.7426,2.7291,2.7399,2.7392,2.7283,2.6995,2.6919,2.6595,2.6051,2.5666,2.5664,2.5699,2.5583,2.5579,2.5604,2.5603,2.5598,2.5605,2.5609,2.5634,2.5615,2.558,2.5569,2.5542,2.5542,2.5547,2.5552,2.5561,2.5591,2.5607,2.5622,2.562,2.5547,2.5448,2.532,2.5215,2.5084,2.4896,2.4654,2.4407,2.4118,2.3819,2.3558,2.3324,2.3126,2.2952,2.3003,2.2977,2.2868,2.2876,2.2825,2.2734,2.2685,2.2672,2.2632,2.2619,2.2596,2.2582,2.2592,2.2632,2.2659,2.2751,2.2842,2.2876,2.2927,2.2965,2.2965,2.2952,2.297,2.297,2.2957,2.3028,2.3102,2.3163,2.3241,2.3313,2.336,2.3395,2.3413,2.3383,2.2933,2.2418,2.1956,2.1562,2.1488,2.1373,2.1172,2.1295,2.1752,2.1644,2.113,2.1008,2.0994,2.0523,2.0131,2.0118,2.5524,2.5043,2.4513,2.4366,2.4512,2.4476,2.4578,2.4719,2.4741,2.4828,2.5072,2.5499,2.5662,2.5981,2.6432,2.6752,2.6866,2.6666,2.6988,2.7117,2.7208,2.6876,2.6651,2.6554,2.6285,2.6035,2.578,2.5681,2.5543,2.5546,2.5556,2.5518,2.5553,2.5596,2.5603,2.5609,2.5625,2.5648,2.566,2.5694,2.5667,2.5633,2.5611,2.559,2.5611,2.5612,2.5616,2.5633,2.5644,2.5634,2.5605,2.5512,2.5398,2.5279,2.5113,2.4955,2.4727,2.4485,2.4238,2.3929,2.3642,2.3348,2.3114,2.2919,2.2751,2.2685,2.2659,2.2646,2.2659,2.2646,2.2552,2.2528,2.2528,2.2501,2.2501,2.2487,2.2501,2.2542,2.2569,2.2596,2.2672,2.2764,2.2816,2.2868,2.2863,2.2876,2.2876,2.2876,2.2893,2.2893,2.2914,2.2977,2.3028,2.3119,2.3168,2.3193,2.3217,2.3205,2.3134,2.2782,2.2482,2.2334,2.2131,2.1825,2.1697,2.1834,2.1918,2.2226,2.2015,2.1817,2.1807,2.1715,2.129,2.0929,2.0823,2.4548,2.4625,2.4482,2.4537,2.4668,2.47,2.4797,2.4934,2.5012,2.5077,2.5182,2.5302,2.5395,2.5233,2.5401,2.5696,2.6006,2.6001,2.5848,2.5793,2.622,2.6024,2.5923,2.603,2.5757,2.5602,2.552,2.5511,2.5462,2.549,2.551,2.5513,2.5512,2.5568,2.5612,2.5625,2.5676,2.5674,2.5663,2.5683,2.564,2.5624,2.5624,2.5644,2.5664,2.5664,2.5683,2.5683,2.5698,2.566,2.5583,2.5489,2.5365,2.5219,2.5037,2.4828,2.4564,2.4284,2.4019,2.3739,2.3447,2.3163,2.2957,2.2803,2.2685,2.2619,2.2565,2.2484,2.2497,2.2538,2.2484,2.2525,2.2542,2.2446,2.2405,2.2377,2.2377,2.246,2.2528,2.2565,2.2632,2.2699,2.2738,2.279,2.2799,2.2812,2.2812,2.2812,2.2829,2.2829,2.2829,2.2868,2.2932,2.2914,2.2952,2.299,2.3015,2.299,2.2985,2.2819,2.281,2.3011,2.2794,2.2398,2.2631,2.2928,2.2973,2.2728,2.2723,2.2605,2.26,2.2456,2.2054,2.1731,2.161]}]]